[[{"header":{"parameterUnit":"m.s-1","parameterCategory":1,"la1":30.6,"la2":29.2853,"lo1":-89.7004,"lo2":-87.6739,"dy":0.0162,"dx":0.0183,"nx":112,"ny":82,"refTime":"2026-04-13T12:00:00:Z","depth":0,"parameterNumber":2,"parameterNumberName":"U-component_of_WINDS"},"data":[0.0,0.0,0.0,0.0,0.0,0.0,0.0,0.0,0.0,0.0,0.0,0.0,0.0,0.0,0.0,0.0,0.0,0.0,0.0,0.0,0.0,0.0,0.0,0.0,0.0,0.0,0.0,0.0,0.0,0.0,0.0,0.0,0.0,0.0,0.0,0.0,0.0,0.0,0.0,0.0,0.0,0.0,0.0,0.0,0.0,0.0,0.0,0.0,0.0,0.0,0.0,0.0,0.0,0.0,0.0,0.0,0.0,0.0,0.0,0.0,0.0,0.0,0.0,0.0,0.0,0.0,0.0,0.0,0.0,0.0,0.0,0.0,0.0,0.0,0.0,0.0,0.0,0.0,0.0,0.0,0.0,0.0,0.0,0.0,0.0,0.0,0.0,0.0,0.0,0.0,-1.4535,-1.6325,-1.8174,-1.8848,-1.7755,-1.7462,-1.5853,-1.2348,0.0,0.0,0.0,0.0,0.0,0.0,0.0,0.0,0.0,0.0,0.0,0.0,0.0,0.0,0.0,0.0,0.0,0.0,0.0,0.0,0.0,0.0,0.0,0.0,0.0,0.0,0.0,0.0,0.0,0.0,0.0,0.0,0.0,0.0,0.0,0.0,0.0,0.0,0.0,0.0,0.0,0.0,0.0,0.0,0.0,0.0,0.0,0.0,0.0,0.0,0.0,0.0,0.0,0.0,0.0,0.0,0.0,0.0,0.0,0.0,0.0,0.0,0.0,0.0,0.0,0.0,0.0,0.0,0.0,0.0,0.0,0.0,0.0,0.0,0.0,0.0,0.0,0.0,0.0,0.0,0.0,0.0,0.0,0.0,0.0,0.0,0.0,0.0,0.0,0.0,0.0,0.0,0.0,0.0,0.0,0.0,0.0,0.0,0.0,0.0,0.0,0.0,0.0,0.0,-1.5631,-1.8495,-1.9099,-1.9051,-1.8491,-1.7293,-1.5478,-1.292,0.0,0.0,0.0,0.0,0.0,0.0,0.0,0.0,0.0,0.0,0.0,0.0,0.0,0.0,0.0,0.0,0.0,0.0,0.0,0.0,0.0,0.0,0.0,0.0,0.0,0.0,0.0,0.0,0.0,0.0,0.0,0.0,0.0,0.0,0.0,0.0,0.0,0.0,0.0,0.0,0.0,0.0,0.0,0.0,0.0,0.0,0.0,0.0,0.0,0.0,0.0,0.0,0.0,0.0,0.0,0.0,0.0,0.0,0.0,0.0,0.0,0.0,0.0,0.0,0.0,0.0,0.0,0.0,0.0,0.0,0.0,0.0,0.0,0.0,0.0,0.0,0.0,0.0,0.0,0.0,0.0,0.0,0.0,0.0,0.0,0.0,0.0,0.0,0.0,0.0,0.0,0.0,0.0,0.0,0.0,0.0,0.0,0.0,0.0,0.0,0.0,0.0,0.0,-1.5132,-1.6854,-1.9055,-1.9693,-1.957,-1.8677,-1.7604,-1.5862,-1.3175,-1.2263,0.0,0.0,0.0,0.0,0.0,0.0,0.0,0.0,0.0,0.0,0.0,0.0,0.0,0.0,0.0,0.0,0.0,0.0,0.0,0.0,0.0,0.0,0.0,0.0,0.0,0.0,0.0,0.0,0.0,0.0,0.0,0.0,0.0,0.0,0.0,0.0,0.0,0.0,0.0,0.0,0.0,0.0,0.0,0.0,0.0,0.0,0.0,0.0,0.0,0.0,0.0,0.0,0.0,0.0,0.0,0.0,0.0,0.0,0.0,0.0,0.0,0.0,0.0,0.0,0.0,0.0,0.0,0.0,0.0,0.0,0.0,0.0,0.0,0.0,0.0,0.0,0.0,0.0,0.0,0.0,0.0,0.0,0.0,0.0,0.0,0.0,0.0,0.0,0.0,0.0,0.0,0.0,0.0,0.0,0.0,0.0,0.0,0.0,0.0,0.0,0.0,0.0,-1.6843,-1.8151,-1.9459,-2.0126,-2.0061,-1.8971,-1.7702,-1.5844,-1.322,-1.1875,0.0,0.0,0.0,0.0,0.0,0.0,0.0,0.0,0.0,0.0,0.0,0.0,0.0,0.0,0.0,0.0,0.0,0.0,0.0,0.0,0.0,0.0,0.0,0.0,0.0,0.0,0.0,0.0,0.0,0.0,0.0,0.0,0.0,0.0,0.0,0.0,0.0,0.0,0.0,0.0,0.0,0.0,0.0,0.0,0.0,0.0,0.0,0.0,0.0,0.0,0.0,0.0,0.0,0.0,0.0,0.0,0.0,0.0,0.0,0.0,0.0,0.0,0.0,0.0,0.0,0.0,0.0,0.0,0.0,0.0,0.0,0.0,0.0,0.0,0.0,0.0,0.0,0.0,0.0,0.0,0.0,0.0,0.0,0.0,0.0,0.0,0.0,0.0,0.0,0.0,0.0,0.0,0.0,0.0,0.0,0.0,0.0,0.0,0.0,0.0,0.0,0.0,-1.7442,-1.9612,-2.0344,-2.0474,-2.0288,-1.9755,-1.7042,-1.4663,-1.3017,-1.0865,0.0,0.0,0.0,0.0,0.0,0.0,0.0,0.0,0.0,0.0,0.0,0.0,0.0,0.0,0.0,0.0,0.0,0.0,0.0,0.0,0.0,0.0,0.0,0.0,0.0,0.0,0.0,0.0,0.0,0.0,0.0,0.0,0.0,0.0,0.0,0.0,0.0,0.0,0.0,0.0,0.0,0.0,0.0,0.0,0.0,0.0,0.0,0.0,0.0,0.0,0.0,0.0,0.0,0.0,0.0,0.0,0.0,0.0,0.0,0.0,0.0,0.0,0.0,0.0,0.0,0.0,0.0,0.0,0.0,0.0,0.0,0.0,0.0,0.0,0.0,0.0,0.0,0.0,0.0,0.0,0.0,0.0,0.0,0.0,0.0,0.0,0.0,0.0,0.0,0.0,0.0,0.0,0.0,0.0,0.0,0.0,0.0,0.0,0.0,0.0,0.0,0.0,-1.7442,-1.9663,0.0,-2.0996,-2.0897,-1.989,-1.7844,-1.5599,-1.3177,0.0,0.0,0.0,0.0,0.0,0.0,0.0,0.0,0.0,0.0,0.0,0.0,0.0,0.0,0.0,0.0,0.0,0.0,0.0,0.0,0.0,0.0,0.0,0.0,0.0,0.0,0.0,0.0,0.0,0.0,0.0,0.0,0.0,0.0,0.0,0.0,0.0,0.0,0.0,0.0,0.0,0.0,0.0,0.0,0.0,0.0,0.0,0.0,0.0,0.0,0.0,0.0,0.0,0.0,0.0,0.0,0.0,0.0,0.0,0.0,0.0,0.0,0.0,0.0,0.0,0.0,0.0,0.0,0.0,0.0,0.0,0.0,0.0,0.0,0.0,0.0,0.0,0.0,0.0,0.0,0.0,0.0,0.0,0.0,0.0,0.0,0.0,0.0,0.0,0.0,0.0,0.0,0.0,0.0,0.0,0.0,0.0,0.0,0.0,0.0,0.0,0.0,-1.4555,-1.7859,-2.0189,0.0,-2.1272,-2.1288,-2.0032,-1.7995,-1.572,-1.3285,0.0,0.0,0.0,0.0,0.0,0.0,0.0,0.0,0.0,0.0,0.0,0.0,0.0,0.0,0.0,0.0,0.0,0.0,0.0,0.0,0.0,0.0,0.0,0.0,0.0,0.0,0.0,0.0,0.0,0.0,0.0,0.0,0.0,0.0,0.0,0.0,0.0,0.0,0.0,0.0,0.0,0.0,0.0,0.0,0.0,0.0,0.0,0.0,0.0,0.0,0.0,0.0,0.0,0.0,0.0,0.0,0.0,0.0,0.0,0.0,0.0,0.0,0.0,0.0,0.0,0.0,0.0,0.0,0.0,0.0,0.0,0.0,0.0,0.0,0.0,0.0,0.0,0.0,0.0,0.0,0.0,0.0,0.0,0.0,0.0,0.0,0.0,0.0,0.0,0.0,0.0,0.0,0.0,0.0,0.0,0.0,0.0,0.0,0.0,0.0,0.0,0.0,-1.4695,-1.8851,-2.1464,-2.0584,-2.1272,-2.1341,-2.0291,-1.7136,-1.4639,0.0,0.0,0.0,0.0,0.0,0.0,0.0,0.0,0.0,0.0,0.0,0.0,0.0,0.0,0.0,0.0,0.0,0.0,0.0,0.0,0.0,0.0,0.0,0.0,0.0,0.0,0.0,0.0,0.0,0.0,0.0,0.0,0.0,0.0,0.0,0.0,0.0,0.0,0.0,0.0,0.0,0.0,0.0,0.0,0.0,0.0,0.0,0.0,0.0,0.0,0.0,0.0,0.0,0.0,0.0,0.0,0.0,0.0,0.0,0.0,0.0,0.0,0.0,0.0,0.0,0.0,0.0,0.0,0.0,0.0,0.0,0.0,0.0,0.0,0.0,0.0,0.0,0.0,0.0,0.0,0.0,0.0,0.0,0.0,0.0,0.0,0.0,0.0,0.0,0.0,0.0,0.0,0.0,0.0,0.0,0.0,0.0,0.0,0.0,0.0,0.0,0.0,0.0,-1.4634,-1.8285,-2.0786,-2.0529,-2.0731,-2.0711,-2.0237,-1.7641,-1.5282,-1.3527,0.0,0.0,0.0,0.0,0.0,0.0,0.0,0.0,0.0,0.0,0.0,0.0,0.0,0.0,0.0,0.0,0.0,0.0,0.0,0.0,0.0,0.0,0.0,0.0,0.0,0.0,0.0,0.0,0.0,0.0,0.0,0.0,0.0,0.0,0.0,0.0,0.0,0.0,0.0,0.0,0.0,0.0,0.0,0.0,0.0,0.0,0.0,0.0,0.0,0.0,0.0,0.0,0.0,0.0,0.0,0.0,0.0,0.0,0.0,0.0,0.0,0.0,0.0,0.0,0.0,0.0,0.0,0.0,0.0,0.0,0.0,0.0,0.0,0.0,0.0,0.0,0.0,0.0,0.0,0.0,0.0,0.0,0.0,0.0,0.0,0.0,0.0,0.0,0.0,0.0,0.0,0.0,0.0,0.0,0.0,0.0,0.0,0.0,0.0,0.0,0.0,0.0,-1.4598,-1.805,-2.0382,-2.0052,-2.0309,-2.0315,-1.9888,-1.8072,-1.6001,-1.3798,0.0,0.0,0.0,0.0,0.0,0.0,0.0,0.0,0.0,0.0,0.0,0.0,0.0,0.0,0.0,0.0,0.0,0.0,0.0,0.0,0.0,0.0,0.0,0.0,0.0,0.0,0.0,0.0,0.0,0.0,0.0,0.0,0.0,0.0,0.0,0.0,0.0,0.0,0.0,0.0,0.0,0.0,0.0,0.0,0.0,0.0,0.0,0.0,0.0,0.0,0.0,0.0,0.0,0.0,0.0,0.0,0.0,0.0,0.0,0.0,0.0,0.0,0.0,0.0,0.0,0.0,0.0,0.0,0.0,0.0,0.0,0.0,0.0,0.0,0.0,0.0,0.0,0.0,0.0,0.0,0.0,0.0,0.0,0.0,0.0,0.0,0.0,0.0,0.0,0.0,0.0,0.0,0.0,0.0,0.0,0.0,0.0,0.0,0.0,0.0,0.0,0.0,-1.4688,-1.8024,-2.0107,-1.9389,-1.995,-2.0089,-1.9352,-1.8375,-1.6722,-1.4211,0.0,0.0,0.0,0.0,0.0,0.0,0.0,0.0,0.0,0.0,0.0,0.0,0.0,0.0,0.0,0.0,0.0,0.0,0.0,0.0,0.0,0.0,0.0,0.0,0.0,0.0,0.0,0.0,0.0,0.0,0.0,0.0,0.0,0.0,0.0,0.0,0.0,0.0,0.0,0.0,0.0,0.0,0.0,0.0,0.0,0.0,0.0,0.0,0.0,0.0,0.0,0.0,0.0,0.0,0.0,0.0,0.0,0.0,0.0,0.0,-1.9763,0.0,0.0,0.0,0.0,0.0,0.0,0.0,0.0,0.0,0.0,0.0,0.0,0.0,0.0,0.0,0.0,0.0,0.0,0.0,0.0,0.0,0.0,0.0,0.0,0.0,0.0,0.0,0.0,0.0,0.0,0.0,0.0,0.0,0.0,0.0,0.0,0.0,0.0,0.0,0.0,0.0,-1.538,-1.7861,-1.9499,-1.9315,-1.9444,-1.9499,-1.9315,-1.8375,-1.7033,-1.5264,-1.3412,0.0,0.0,0.0,0.0,0.0,0.0,0.0,0.0,0.0,0.0,0.0,0.0,0.0,0.0,0.0,0.0,0.0,0.0,0.0,0.0,0.0,0.0,0.0,0.0,0.0,0.0,0.0,0.0,0.0,0.0,0.0,0.0,0.0,0.0,0.0,0.0,0.0,0.0,0.0,0.0,0.0,0.0,0.0,0.0,0.0,0.0,0.0,0.0,0.0,0.0,0.0,0.0,0.0,0.0,0.0,0.0,0.0,0.0,0.0,0.0,-2.129,0.0,0.0,0.0,0.0,0.0,0.0,0.0,0.0,0.0,0.0,0.0,0.0,0.0,0.0,0.0,0.0,0.0,0.0,0.0,0.0,0.0,0.0,0.0,0.0,0.0,0.0,0.0,0.0,0.0,0.0,0.0,0.0,0.0,0.0,0.0,0.0,0.0,0.0,0.0,0.0,-1.5607,-1.781,-1.9297,-1.9297,-1.9297,-1.9297,-1.9297,-1.8817,-1.7818,-1.6173,-1.4701,0.0,0.0,0.0,0.0,0.0,0.0,0.0,0.0,0.0,0.0,0.0,0.0,0.0,0.0,0.0,0.0,0.0,0.0,0.0,0.0,0.0,0.0,0.0,0.0,0.0,0.0,0.0,0.0,0.0,0.0,0.0,0.0,0.0,0.0,0.0,0.0,0.0,0.0,0.0,0.0,0.0,0.0,0.0,0.0,0.0,0.0,0.0,0.0,0.0,0.0,0.0,0.0,0.0,-2.9445,-3.0179,-3.0834,-3.0834,-3.1182,-3.1562,-2.6906,-2.5016,-2.5107,-2.3355,0.0,0.0,0.0,0.0,0.0,0.0,0.0,0.0,0.0,0.0,0.0,0.0,0.0,0.0,0.0,0.0,0.0,0.0,0.0,0.0,0.0,0.0,0.0,0.0,-2.0868,-2.0548,0.0,0.0,0.0,0.0,0.0,0.0,0.0,0.0,0.0,0.0,0.0,0.0,-1.6004,-1.7975,-1.9297,-1.9297,-1.9297,-1.9297,-1.9297,-1.9297,-1.8628,-1.7038,-1.6162,-1.4855,0.0,0.0,0.0,0.0,0.0,0.0,0.0,0.0,0.0,0.0,0.0,0.0,0.0,0.0,0.0,0.0,0.0,0.0,0.0,0.0,0.0,0.0,0.0,0.0,0.0,0.0,0.0,0.0,0.0,0.0,0.0,0.0,-1.675,-1.8471,0.0,0.0,0.0,0.0,0.0,0.0,0.0,0.0,0.0,0.0,0.0,0.0,0.0,-2.7603,-2.9237,-3.073,-3.1647,-3.1977,-3.2779,-3.322,-3.333,-3.333,-3.3385,-3.344,-3.2706,0.0,-2.9237,-2.6924,0.0,0.0,0.0,0.0,0.0,0.0,0.0,0.0,0.0,0.0,0.0,0.0,0.0,0.0,0.0,0.0,0.0,0.0,0.0,0.0,0.0,0.0,-2.4603,-2.4603,-2.4677,-2.4254,0.0,-1.9887,-1.7649,-1.6615,-1.5857,0.0,0.0,0.0,0.0,0.0,0.0,0.0,-1.7601,-1.8665,-1.9297,-1.9297,-1.9297,-1.9297,-1.9297,-1.9297,-1.8904,-1.7965,-1.7042,-1.5801,-1.4148,-1.301,0.0,0.0,0.0,0.0,0.0,0.0,0.0,0.0,0.0,0.0,0.0,0.0,0.0,0.0,0.0,0.0,0.0,0.0,0.0,0.0,0.0,0.0,0.0,0.0,0.0,0.0,0.0,0.0,0.0,-1.6897,-1.9182,-1.9887,-2.0097,-1.9987,0.0,0.0,0.0,0.0,0.0,0.0,0.0,0.0,0.0,-2.8055,-2.9659,-3.1274,-3.2876,-3.4082,-3.5128,-3.6032,-3.6835,-3.7221,-3.7221,-3.7221,-3.7221,-3.7184,-3.6266,-3.5289,-3.4027,-3.0668,-2.8356,-2.6767,0.0,0.0,0.0,0.0,-2.5172,-2.5356,-2.6612,-2.6814,0.0,-2.4942,0.0,0.0,0.0,0.0,0.0,0.0,0.0,0.0,0.0,0.0,0.0,-2.6062,-2.6062,-2.575,-2.4593,-2.3226,-2.1547,0.0,-1.864,-1.7601,-1.5074,0.0,0.0,0.0,0.0,-1.7472,-1.8629,-1.9077,-1.9297,-1.9297,-1.9297,-1.9297,-1.9297,-1.9297,-1.915,-1.8794,-1.7954,-1.7115,-1.6294,-1.4618,-1.2902,0.0,0.0,0.0,0.0,0.0,0.0,0.0,0.0,0.0,0.0,0.0,0.0,0.0,0.0,0.0,0.0,0.0,0.0,0.0,0.0,0.0,0.0,0.0,0.0,0.0,0.0,0.0,0.0,-1.9455,-2.1685,-2.1465,-2.2373,-2.2611,0.0,0.0,0.0,0.0,0.0,0.0,-2.8051,-2.9464,-3.0693,-3.1733,-3.3316,-3.4821,-3.6233,-3.711,-3.8138,-3.9331,-3.9918,-4.0212,-4.0212,-4.0212,-4.0212,-4.0139,-3.8927,-3.8429,-3.8098,-3.4009,-3.1494,-3.0143,-2.9347,-2.8539,-2.7934,-2.8723,-2.9035,-2.92,-3.0393,-3.0687,-3.021,-2.8411,0.0,-2.6804,-2.4612,0.0,0.0,0.0,0.0,-2.5566,-2.6182,-2.6778,-2.7152,-2.6961,-2.6906,-2.6686,-2.5888,-2.5705,-2.4805,0.0,-2.1135,-2.0236,-1.7417,0.0,0.0,0.0,0.0,-1.8933,-1.9528,-1.9601,-1.9536,-1.9315,-1.9297,-1.9297,-1.9297,-1.9297,-1.9297,-1.9297,-1.8739,-1.8247,-1.7881,-1.6005,-1.4408,-1.3216,0.0,0.0,0.0,0.0,0.0,0.0,0.0,0.0,0.0,0.0,0.0,0.0,0.0,0.0,0.0,0.0,0.0,0.0,0.0,0.0,0.0,0.0,0.0,0.0,0.0,0.0,0.0,0.0,0.0,-2.4098,-2.5401,0.0,0.0,0.0,0.0,-2.7449,-2.8998,-3.0595,-3.2216,-3.3109,-3.4302,-3.5936,-3.7551,-3.8799,-3.9643,-4.0451,-4.0893,-4.0967,-4.1022,-4.104,-4.104,-4.104,-4.104,-4.104,-4.0948,-4.0912,-4.06,-3.6509,-3.4325,-3.3476,-3.2674,-3.188,-3.1268,-3.2051,-3.2362,-3.2362,-3.2454,-3.199,-3.1323,-3.1213,-3.0118,-2.8987,-2.9592,-2.8705,0.0,0.0,-2.873,-2.8767,-2.8822,-2.8858,-2.8693,-2.7915,-2.7732,-2.7512,-2.6722,-2.6539,-2.5813,0.0,-2.2878,-2.2327,-2.0566,0.0,-2.0309,-2.0264,-2.0327,-2.0393,-2.0437,-2.0437,-2.0144,-1.9389,-1.9297,-1.9297,-1.9297,-1.9297,-1.9297,-1.9297,-1.926,-1.8886,-1.8119,-1.7231,-1.597,-1.4271,-1.2478,0.0,0.0,0.0,0.0,0.0,0.0,0.0,0.0,0.0,0.0,0.0,0.0,0.0,0.0,0.0,0.0,0.0,0.0,0.0,0.0,0.0,0.0,0.0,0.0,0.0,0.0,0.0,0.0,-2.7189,-2.8705,0.0,-2.89,-2.9347,-3.0026,-3.0834,-3.2381,-3.3775,-3.4926,-3.6725,-3.7991,-3.8597,-3.968,-4.0634,-4.1442,-4.1735,-4.2139,-4.2635,-4.2635,-4.2635,-4.2635,-4.2635,-4.2359,-4.1882,-4.1882,-4.1572,-4.0985,-3.9536,-3.8141,-3.6872,-3.6064,-3.5257,-3.4578,-3.4871,-3.4981,-3.4981,-3.4981,-3.4798,-3.4389,-3.3293,-3.221,-3.1262,-3.1035,-3.0558,-3.0185,-3.0467,-3.054,-3.054,-3.054,-3.054,-3.0338,-2.9531,-2.9347,-2.898,-2.7658,-2.7365,-2.6961,-2.5574,-2.4905,-2.3869,-2.1712,-2.2208,-2.2538,-2.1492,-2.1777,-2.2107,-2.2107,-2.1171,-2.0401,-2.0107,-1.9601,-1.9297,-1.9297,-1.9297,-1.9297,-1.9297,-1.9297,-1.8948,-1.8126,-1.733,-1.6119,-1.4453,-1.3225,-1.1677,0.0,0.0,0.0,0.0,0.0,0.0,0.0,0.0,0.0,0.0,0.0,0.0,0.0,0.0,0.0,0.0,0.0,0.0,0.0,0.0,0.0,0.0,0.0,0.0,0.0,0.0,-2.8521,-2.9317,-3.1311,-3.2504,-3.2241,-3.2706,-3.3495,-3.4582,-3.5903,-3.7022,-3.7863,-3.968,-4.0708,-4.0708,-4.1497,-4.2176,-4.269,-4.269,-4.2965,-4.3515,-4.3515,-4.3515,-4.3515,-4.3515,-4.3221,-4.269,-4.269,-4.2396,-4.1919,-4.1919,-4.113,-3.9827,-3.9019,-3.8212,-3.7514,-3.7514,-3.7331,-3.7074,-3.6813,-3.6523,-3.6119,-3.5,-3.4284,-3.3752,-3.3201,-3.2852,-3.2614,-3.2614,-3.2412,-3.2149,-3.188,-3.1806,-3.1604,-3.0797,-3.0393,-2.9916,-2.8833,-2.8393,-2.797,-2.7163,-2.6355,-2.5209,-2.3336,-2.3906,-2.4144,-2.2804,-2.3052,-2.3299,-2.3024,-2.2034,-2.1135,-2.0558,-2.028,-2.0013,-1.973,-1.9693,-1.9693,-1.9693,-1.9444,-1.9058,-1.8537,-1.7458,-1.6395,-1.5331,-1.3608,-1.2069,-1.0692,0.0,0.0,0.0,0.0,0.0,0.0,0.0,0.0,0.0,0.0,0.0,0.0,0.0,0.0,0.0,0.0,0.0,0.0,0.0,0.0,0.0,0.0,0.0,-2.441,-2.8477,-3.1195,-3.0503,-3.3206,-3.4821,-3.41,-3.5495,-3.7092,-3.867,-3.9515,-4.0322,-4.1095,-4.1901,-4.2341,-4.2341,-4.3075,-4.3515,-4.3515,-4.3515,-4.3515,-4.3515,-4.3515,-4.3515,-4.3515,-4.3515,-4.3515,-4.3515,-4.3515,-4.3515,-4.3515,-4.3515,-4.3039,-4.2268,-4.1444,-4.0653,-3.9937,-3.9937,-3.9423,-3.8615,-3.7823,-3.7033,-3.6376,-3.634,-3.634,-3.6321,-3.6303,-3.5701,-3.5041,-3.5023,-3.4435,-3.3642,-3.2839,-3.2638,-3.2417,-3.1635,-3.0834,-3.0265,-3.021,-2.9592,-2.8803,-2.7989,-2.7218,-2.641,-2.5576,-2.5411,-2.5136,-2.4355,-2.4208,0.0,-2.3134,-2.3024,-2.2382,-2.0741,-2.1308,-2.1464,-2.0621,-2.0548,-2.0529,-2.0503,-1.9767,-1.9315,-1.926,-1.7777,-1.6908,-1.6853,-1.371,-1.164,-1.0774,0.0,0.0,0.0,0.0,0.0,0.0,0.0,0.0,0.0,0.0,0.0,0.0,0.0,0.0,0.0,0.0,0.0,0.0,0.0,0.0,0.0,-2.7273,-2.8741,-2.934,-3.1072,-3.3073,-3.5252,-3.6798,-3.805,-3.8985,-3.9499,-3.9958,-4.0398,-4.1185,-4.1735,-4.1974,-4.2727,-4.3167,-4.3167,-4.3386,-4.3515,-4.3515,-4.3515,-4.3515,-4.3515,-4.3515,-4.3515,-4.3515,-4.3515,-4.3515,-4.3515,-4.3515,-4.3515,-4.3515,-4.3515,-4.3369,-4.3075,-4.2286,-4.1479,-4.0781,-4.0781,-4.0267,-3.946,-3.8652,-3.823,-3.7936,-3.7364,-3.718,-3.707,-3.6468,-3.6138,-3.5807,-3.5188,-3.4839,-3.4472,-3.3678,-3.3476,-3.3275,-3.2467,-3.2087,-3.161,-3.0448,-3.0026,-2.9629,-2.8822,-2.8491,-2.7904,-2.6521,-2.5797,-2.5319,-2.5099,-2.4566,0.0,-2.3896,-2.3354,-2.2822,-2.2364,-2.2006,-2.1702,-2.1464,-2.1445,-2.1161,-2.0548,-2.0291,-1.9649,-1.8482,-1.8016,-1.7227,-1.6059,-1.4573,-1.3408,0.0,0.0,0.0,0.0,0.0,0.0,0.0,0.0,0.0,0.0,0.0,0.0,0.0,0.0,0.0,0.0,0.0,0.0,0.0,0.0,0.0,0.0,-3.0063,-3.1971,-3.4156,-3.4578,-3.5495,-3.7749,-3.9019,-4.0212,-4.1479,-4.159,-4.1754,-4.2084,-4.2543,-4.28,-4.28,-4.324,-4.3515,-4.3515,-4.3515,-4.3515,-4.3515,-4.3515,-4.3515,-4.3515,-4.3515,-4.3515,-4.3515,-4.3515,-4.3515,0.0,-4.3515,-4.3515,-4.3515,-4.3515,-4.3515,0.0,0.0,0.0,0.0,0.0,-4.0802,-4.0286,-3.9478,-3.9203,-3.9074,-3.8248,-3.7991,-3.7918,-3.7441,-3.7074,-3.6688,-3.6193,-3.5536,-3.4894,-3.4417,-3.4064,-3.3678,-3.322,-3.2839,-3.2344,-3.1421,-3.0687,-3.0063,-2.9592,-2.9225,0.0,-2.7776,-2.6943,-2.6182,-2.5503,-2.5007,-2.4585,-2.4245,-2.3786,-2.3373,-2.3043,-2.2887,-2.2675,-2.2336,-2.2299,0.0,0.0,0.0,-1.9777,-1.8163,-1.8089,0.0,0.0,0.0,0.0,0.0,0.0,0.0,0.0,-1.2168,-1.2278,0.0,0.0,0.0,0.0,0.0,0.0,0.0,0.0,0.0,0.0,0.0,0.0,0.0,0.0,0.0,0.0,-3.2504,-3.4486,-3.8303,-3.8377,-3.8319,-3.9019,-4.0361,-4.1535,-4.2359,-4.2433,-4.2727,-4.346,-4.3515,-4.3515,-4.3515,0.0,0.0,0.0,0.0,-4.3515,-4.3515,-4.3515,-4.3515,-4.3515,-4.3515,-4.3515,-4.3515,-4.3515,-4.3515,-4.3515,-4.3515,-4.3515,-4.3515,-4.3515,-4.3515,-4.3515,-4.3515,-4.3057,-4.2341,-4.1534,-4.1242,-4.1113,-4.0304,0.0,0.0,-3.9074,-3.8781,-3.8707,-3.8707,-3.8193,-3.7621,-3.7529,-3.6431,-3.5243,-3.5059,-3.4472,-3.3917,-3.3825,-3.3256,-3.2711,-3.2619,-3.1482,-3.043,-3.0246,-2.961,-2.9115,-2.9023,-2.8338,-2.7321,-2.5888,-2.5521,-2.5136,-2.4438,-2.4263,-2.3933,-2.3208,0.0,0.0,-2.3189,-2.3134,-2.3098,-2.3006,-2.152,-2.0016,-1.8574,-1.8519,-1.8144,-1.733,-1.722,-1.7165,-1.7165,-1.7073,-1.7073,-1.711,-1.4793,-1.4468,0.0,0.0,0.0,0.0,0.0,0.0,0.0,0.0,0.0,0.0,0.0,0.0,0.0,0.0,0.0,-3.2871,-3.5161,-3.729,-3.9368,-4.0653,-4.1423,-4.1589,-4.1882,-4.2378,-4.3185,-4.3276,-4.3331,-4.3496,-4.3515,-4.3515,-4.3515,-4.3515,-4.3515,-4.3515,-4.3515,-4.3515,-4.3515,-4.3515,-4.3515,-4.3515,0.0,0.0,-4.3515,-4.3515,-4.3515,-4.3515,-4.3515,-4.3515,-4.3515,-4.3515,-4.3515,-4.3515,-4.3515,-4.3387,-4.3167,-4.2359,-4.2066,-4.1956,-4.1148,-4.0451,-3.9863,-3.9717,-3.9239,-3.8707,-3.8707,-3.8597,0.0,-3.7676,-3.7272,-3.6707,-3.5353,-3.4876,-3.4601,-3.3954,-3.3678,-3.3385,-3.2729,-3.2362,-3.1739,-3.0448,-3.0081,-2.9769,-2.9115,-2.8338,-2.7688,-2.7376,-2.6237,-2.5338,-2.5191,-2.4603,-2.4135,-2.3988,-2.4116,-2.4135,-2.3988,-2.3969,-2.3694,-2.3043,-2.2097,-2.1408,-2.1096,-2.1078,-2.0684,-1.9824,-1.9179,-1.8838,-1.8831,-1.8188,-1.8207,-1.8794,-1.7025,-1.6376,0.0,0.0,0.0,0.0,0.0,0.0,0.0,0.0,0.0,0.0,0.0,-2.7207,-2.9225,0.0,-3.339,-3.5862,-3.7624,-3.9273,-4.0873,-4.1791,-4.2304,-4.2304,-4.2653,-4.3057,-4.346,-4.3515,-4.3515,-4.3515,-4.3515,-4.3515,-4.3515,-4.3515,-4.3515,-4.3515,-4.3515,-4.3515,-4.3515,-4.3515,-4.3515,-4.3515,-4.3515,-4.3515,-4.3515,-4.3515,-4.3515,-4.3515,-4.3515,-4.3515,-4.3515,-4.3515,-4.3515,-4.3515,-4.3515,-4.3515,-4.346,-4.3039,-4.2892,-4.2782,-4.1992,-4.1442,-4.0965,-4.0157,-3.9625,-3.9239,-3.8817,-3.8707,-3.8615,-3.8212,-3.7823,-3.7217,-3.5973,-3.5334,-3.4802,-3.399,-3.3807,-3.3697,-3.3293,-3.2876,-3.2234,-3.1035,-3.0485,-2.9953,-2.9133,-2.8492,-2.8026,-2.782,-2.7119,-2.6311,-2.5503,-2.5044,-2.4658,-2.4245,-2.419,-2.419,-2.419,-2.3823,-2.3254,-2.2446,-2.1602,-2.096,-2.0564,-2.0546,-2.0344,-1.9913,-1.9499,-1.9499,-1.9895,-1.9502,-1.973,-2.0527,-1.9282,-1.8493,0.0,0.0,0.0,0.0,0.0,0.0,0.0,-2.4043,-2.5079,-2.7501,-2.9152,-3.0821,-3.2931,-3.4637,-3.6417,-3.8579,-3.9735,-4.0818,-4.2121,-4.2433,-4.2525,-4.2525,-4.3112,-4.3515,-4.3515,-4.3515,-4.3515,-4.3515,-4.3515,-4.3515,-4.3515,-4.3515,-4.3515,-4.3515,-4.3515,-4.3515,-4.3515,-4.3515,-4.3515,-4.3515,-4.3515,-4.3515,-4.3515,-4.3515,-4.3515,-4.3515,-4.3515,-4.3515,-4.3515,-4.3515,-4.3515,-4.3515,-4.3515,-4.3515,-4.3515,-4.3515,-4.3515,-4.3423,-4.2763,-4.2433,-4.2084,-4.0781,-4.0139,-3.9772,-3.9129,-3.8817,-3.8707,-3.8707,-3.823,-3.7547,-3.6725,-3.5899,-3.5041,-3.4229,-3.3917,-3.3807,-3.3807,-3.3293,-3.2596,-3.1788,-3.098,-3.0149,-2.9271,-2.8711,-2.8323,-2.8072,-2.7834,-2.72,-2.5805,-2.5503,-2.5081,-2.4281,-2.419,-2.419,-2.419,-2.3621,-2.296,-2.2308,-2.1455,-2.0694,-2.005,-1.9866,-1.9793,-1.9793,-1.9627,-1.9932,-2.0749,-2.0584,-2.0859,-2.1537,-2.0823,-2.0144,-2.298,-2.2829,-2.3152,-2.4216,-2.4652,-2.5795,0.0,-2.9843,-3.0081,-3.2504,-3.3702,-3.4656,-3.5697,-3.7202,-3.8615,-3.9588,-4.1038,-4.2084,-4.2268,-4.291,-4.3369,-4.3369,-4.346,-4.3515,-4.3515,-4.3515,-4.3515,-4.3515,-4.3515,-4.3515,-4.3515,-4.3515,-4.3515,-4.3515,-4.3515,-4.3515,-4.3515,-4.3515,-4.3515,-4.3515,-4.3515,-4.3515,-4.3515,-4.3515,-4.3515,-4.3515,-4.3515,-4.3515,-4.3515,-4.3515,-4.3515,-4.3515,-4.3515,-4.3515,-4.3515,-4.3515,-4.3515,-4.3496,-4.3387,-4.2892,-4.2268,-4.2084,-4.1056,-3.9879,-3.979,-3.9276,-3.8707,-3.8707,-3.8634,-3.8377,-3.7566,-3.6762,-3.5936,-3.5078,-3.4307,-3.3807,-3.3807,-3.3733,-3.344,-3.2619,-3.1825,-3.0893,-2.9725,-2.8897,-2.8504,-2.8812,-2.7948,-2.7066,-2.6533,-2.5852,-2.5081,-2.4281,-2.419,-2.419,-2.419,-2.4116,-2.4025,-2.3933,-2.3171,-2.2676,-2.2584,-2.1904,-2.1519,-2.1519,-2.0758,-2.0786,-2.1647,-2.0878,-2.0548,-2.0639,-2.0548,-2.0456,-2.582,-2.5653,-2.5724,-2.7573,-2.8464,-2.945,-3.1604,-3.2192,-3.2706,-3.4197,-3.555,-3.656,-3.6942,-3.8707,-4.0212,0.0,-4.1956,-4.3002,-4.3002,-4.2873,-4.28,-4.28,-4.28,-4.2983,-4.346,-4.3515,-4.3515,-4.3515,-4.3515,-4.3515,-4.3515,-4.3515,-4.3515,-4.3515,-4.3515,-4.3515,-4.3515,-4.3515,-4.3515,-4.3515,-4.3515,-4.3515,-4.3515,-4.3515,-4.3515,-4.3515,-4.3515,-4.3515,-4.3515,-4.3515,-4.3515,-4.3515,-4.3515,-4.3515,-4.3515,-4.3515,-4.3515,-4.3515,-4.3515,-4.3277,-4.291,-4.2451,-4.1605,-4.0615,-3.9722,-3.899,-3.8384,-3.7934,-3.7826,-3.7628,-3.6784,-3.6208,-3.562,-3.4788,-3.4195,-3.3734,-3.3508,-3.3447,-3.3125,-3.2046,-3.157,-3.0901,-2.9487,-2.8776,-2.8393,-2.8367,-2.8098,-2.7755,-2.7339,-2.6594,-2.5603,-2.4337,-2.419,-2.419,-2.419,-2.3768,-2.3511,-2.3511,-2.2758,-2.2299,-2.2299,-2.1492,-2.1051,-2.1051,-2.0225,-2.0207,-2.1051,-2.0676,-2.0768,-2.1235,-2.0731,-2.0503,-2.6954,-2.7374,-2.7964,-3.0021,-3.1476,-3.2614,-3.3426,-3.4247,-3.5055,-3.5848,-3.7,-3.7896,-3.8117,-3.9588,-4.0912,-4.1352,-4.2415,-4.324,-4.3478,-4.28,-4.2304,-4.2304,-4.2103,-4.2286,-4.3075,-4.3369,-4.3515,-4.3515,-4.3515,-4.3515,-4.3515,-4.3515,-4.3515,-4.3515,-4.3515,-4.3515,-4.3515,-4.3515,-4.3515,-4.3515,-4.3515,-4.3515,-4.3515,-4.3515,-4.3515,-4.3515,-4.3515,-4.3515,-4.3515,-4.3515,-4.3515,-4.3515,-4.3515,-4.3515,-4.3515,-4.3515,-4.3515,-4.3515,-4.3515,-4.3515,-4.337,-4.2645,-4.1942,-4.1158,-3.9894,-3.8948,-3.8196,-3.7649,-3.735,-3.7086,-3.6576,-3.6024,-3.5495,-3.5071,-3.4341,-3.3669,-3.3366,-3.3142,-3.2726,-3.1806,-3.1458,-3.0861,-2.9411,-2.8744,-2.8251,-2.7801,-2.7932,-2.7963,-2.7562,-2.6683,-2.5651,-2.4521,-2.4279,-2.4161,-2.4074,-2.361,-2.3318,-2.3318,-2.2575,-2.2125,-2.2125,-2.1308,-2.0859,-2.0859,-2.0288,-2.0288,-2.0859,-2.0859,-2.118,-2.1776,-2.0914,-2.0503,-2.5658,-2.7366,-2.9504,-3.0989,-3.3146,-3.5114,-3.5991,-3.6813,-3.7621,-3.8414,-3.8634,-3.8909,-3.968,-3.9882,-4.0451,-4.2011,-4.2304,-4.2598,-4.3404,-4.28,-4.2304,-4.2304,-4.1625,-4.1444,0.0,-4.3039,-4.3515,-4.3515,-4.3515,-4.3515,-4.3515,-4.3515,-4.3515,-4.3515,-4.3515,-4.3515,-4.3515,-4.3515,-4.3515,-4.3515,-4.3515,-4.3515,-4.3515,-4.3515,-4.3515,-4.3515,-4.3515,-4.3515,-4.3515,-4.3515,-4.3515,-4.3515,-4.3515,-4.3515,-4.3515,-4.3515,-4.3515,-4.3515,-4.3515,-4.3515,-4.341,-4.2865,-4.2098,-4.1299,-4.0732,-3.9504,-3.83,-3.8265,-3.7755,-3.7304,-3.7719,-3.6881,-3.6024,-3.6514,-3.5076,-3.3598,-3.3598,-3.3031,-3.2517,-3.2465,-3.183,-3.0923,-2.9793,-2.8914,-2.8155,-2.7423,-2.7317,-2.7193,-2.6784,-2.5629,-2.4856,-2.4877,-2.447,-2.4074,-2.3735,-2.3988,-2.4153,-2.4153,-2.3419,-2.2951,-2.2951,-2.2189,-2.1757,-2.1757,-2.1739,-2.1739,-2.1757,-2.1757,-2.1776,-2.1776,-2.0914,-2.0503,-2.8385,-3.0309,-3.2419,-3.4202,-3.5661,-3.6872,-3.7698,-3.8102,-3.8212,-3.797,-3.7915,-3.7823,-3.7551,-3.8377,-3.946,-4.0524,-4.1607,-4.258,-4.3404,-4.28,-4.2103,-4.1572,-4.1754,0.0,0.0,0.0,0.0,-4.346,-4.3515,-4.3515,-4.3515,-4.3515,-4.3515,-4.3515,-4.3515,-4.3515,-4.3515,-4.3515,-4.3515,-4.3515,-4.3515,-4.3515,-4.3515,-4.3515,-4.3515,-4.3515,-4.3515,-4.3515,-4.3515,-4.3515,-4.3515,-4.3515,-4.3515,-4.3268,-4.3014,-4.3375,-4.3268,-4.3014,-4.3375,-4.3515,-4.3462,-4.3286,-4.2515,-4.1525,-4.0864,-3.9429,-3.8011,-3.7808,-3.6988,-3.627,-3.6766,-3.6169,-3.5475,-3.5668,-3.5009,-3.4111,-3.3368,-3.2998,-3.2577,-3.1797,-3.1414,-3.0963,-3.0081,-2.9294,-2.8373,-2.7094,-2.7365,-2.7458,-2.6784,-2.6344,-2.5664,-2.4604,-2.4361,-2.4107,-2.3718,-2.3806,-2.3947,-2.418,-2.3951,-2.3804,-2.3804,-2.3015,-2.2593,-2.2593,-2.2069,-2.1794,-2.1794,-2.1794,-2.1794,-2.1794,-2.15,-2.1363,-3.0214,-3.2242,-3.4306,-3.6245,-3.7327,-3.8065,-3.8579,-3.8342,-3.7791,-3.7019,-3.6492,-3.5991,-3.5345,-3.6069,-3.7375,-3.9187,-4.0341,-4.1607,-4.3276,-4.28,-4.2121,-4.1589,-4.1735,-4.1791,0.0,0.0,0.0,-4.3441,-4.3515,-4.3515,-4.3515,-4.3515,-4.3515,-4.3515,-4.3515,-4.3515,-4.3515,-4.3515,-4.3515,-4.3515,-4.3515,-4.3515,-4.3515,-4.3515,-4.3515,-4.3515,-4.3515,-4.3515,-4.3515,-4.3515,-4.3392,-4.3214,-4.3214,-4.2865,-4.2422,-4.2753,-4.2676,-4.25,-4.325,-4.3375,-4.3178,-4.2959,-4.2248,-4.1358,-4.0691,-3.9474,-3.8296,-3.8318,-3.7192,-3.6191,-3.6918,-3.6222,-3.5379,-3.5586,-3.5124,-3.4363,-3.336,-3.2941,-3.2451,-3.1404,-3.119,-3.097,-3.0243,-2.9245,-2.823,-2.7249,-2.7303,-2.7325,-2.697,-2.6672,-2.6097,-2.5094,-2.4584,-2.4168,-2.3792,-2.3735,-2.3795,-2.4006,-2.4123,-2.419,-2.419,-2.3694,-2.3428,-2.3428,-2.2923,-2.2657,-2.2657,-2.2657,-2.2657,-2.2657,-2.2363,-2.2226,-3.1219,-3.3278,-3.5302,-3.7158,-3.8157,-3.8673,-3.8621,-3.7626,-3.6497,-3.5661,-3.4492,-3.3508,-3.3109,-3.3146,-3.4421,-3.797,-3.8673,-3.9863,-4.3056,-4.2837,-4.2359,0.0,0.0,0.0,0.0,0.0,0.0,-4.3389,0.0,-4.3444,-4.3444,-4.3444,-4.3444,-4.3444,-4.3497,-4.3515,-4.3515,-4.3515,-4.3515,-4.3515,-4.3515,-4.3515,-4.3515,-4.3515,-4.3515,-4.3515,-4.3515,-4.3515,-4.3497,-4.3462,-4.316,-4.2711,-4.2673,-4.2282,-4.175,-4.1789,-4.1789,-4.1898,-4.3032,-4.3069,-4.2577,-4.1979,-4.1402,-4.0803,-4.0286,-3.9613,-3.9117,-3.9675,-3.8408,-3.7087,-3.8139,-3.7026,-3.579,-3.6245,-3.5437,-3.4336,-3.3626,-3.2865,-3.2141,-3.1393,-3.1224,-3.097,-3.0243,-2.8889,-2.7891,-2.7824,-2.7199,-2.6875,-2.7225,-2.6603,-2.6139,-2.6165,-2.5096,-2.4234,-2.3925,-2.3803,-2.3718,-2.3692,-2.4016,-2.419,-2.419,-2.419,-2.419,-2.419,-2.419,-2.419,-2.419,-2.419,-2.419,-2.4171,-2.341,-2.3061,-3.4497,-3.6701,-3.8666,-3.915,-3.8982,-3.8447,-3.7505,-3.6612,-3.5327,-3.3046,-3.1869,-3.0894,-2.9637,-3.1099,-3.3361,-3.6097,-3.8253,0.0,-4.3129,-4.3331,0.0,-4.2378,0.0,-4.2727,-4.2341,-4.2468,0.0,0.0,-4.2902,-4.2902,-4.2902,-4.2902,-4.2902,-4.2902,-4.3286,-4.3515,-4.3515,-4.3515,-4.3515,-4.3515,-4.3515,-4.3515,-4.3515,-4.3515,-4.3515,-4.3515,-4.3515,-4.3515,-4.3462,-4.3069,-4.2826,-4.2673,-4.2221,-4.1664,-4.1161,-4.1621,-4.1512,-4.1246,-4.1982,-4.2144,-4.2,-4.1853,-4.1402,-4.088,-4.075,-3.9904,-3.9214,-4.0128,-3.9041,-3.7729,-3.8262,-3.7442,-3.6378,-3.5919,-3.5559,-3.5131,-3.437,-3.3643,-3.2899,-3.2158,-3.1562,-3.097,-3.0243,-2.9768,-2.9125,-2.7976,-2.7638,-2.7368,-2.6909,-2.667,-2.6331,-2.5802,-2.5456,-2.4908,-2.3971,-2.4053,-2.4016,-2.3718,-2.4016,-2.419,-2.419,-2.419,-2.419,-2.419,-2.419,-2.419,-2.419,-2.419,-2.419,-2.419,-2.3988,-2.3896,-3.592,-3.7683,-3.9209,-3.9209,-3.8358,-3.715,-3.5779,-3.4482,-3.2838,-3.0274,-2.8983,-2.7979,-2.6975,-2.8744,-3.1315,0.0,0.0,0.0,-4.258,-4.3277,-4.3331,0.0,-4.303,0.0,-4.2522,-4.2366,-4.2302,0.0,-4.2302,-4.2302,-4.2302,-4.2302,-4.2302,-4.2302,-4.2599,-4.2753,-4.2753,-4.2753,-4.2884,-4.316,-4.316,-4.3268,-4.3515,-4.3515,-4.3515,-4.3497,0.0,-4.316,-4.3124,-4.2539,-4.2142,-4.1874,-4.1534,-4.1059,-4.0577,-4.0938,-4.0844,-4.0601,-4.0938,-4.1053,-4.1082,-4.1335,-4.1013,-4.0552,-4.0552,-4.0046,-3.9698,-4.0832,-3.9961,-3.8763,-3.8906,-3.8039,-3.6881,-3.5836,-3.56,-3.5397,-3.4658,-3.4167,-3.3558,-3.2513,-3.1698,-3.1072,-3.0649,-3.0311,-2.982,-2.8939,-2.8229,-2.7655,-2.7249,-2.6894,-2.6539,-2.6133,-2.5778,-2.5349,-2.4694,-2.4326,-2.4073,-2.3968,-2.3847,-2.3896,-2.418,-2.4064,-2.4054,-2.4208,-2.419,-2.419,-2.419,-2.419,-2.419,-2.419,-2.419,-2.419,-3.6502,-3.7551,-3.8461,-3.8461,-3.7226,-3.558,-3.3915,-3.2054,-2.9984,-2.7585,-2.6145,-2.5211,-2.4931,-2.6472,-2.8973,-3.2613,0.0,-3.8327,-4.1725,-4.2805,-4.3281,-4.3374,-4.2976,-4.2655,-4.2596,-4.2021,-4.1686,-4.1686,-4.1599,-4.1617,-4.1664,-4.1686,-4.1725,-4.181,-4.181,-4.181,-4.181,-4.181,-4.2062,-4.2577,-4.2577,-4.2827,-4.3267,-4.3267,-4.3267,-4.3249,-4.2789,0.0,-4.2519,-4.1937,-4.138,-4.088,-4.0827,-4.0521,-4.0096,-4.0096,-4.0096,-4.0096,-4.0096,-4.0096,-4.0196,-4.0631,-4.0473,-4.0096,-4.0096,-4.0096,-4.0311,-4.138,-4.0796,-3.9822,-3.9661,-3.8657,-3.7314,-3.6078,-3.5667,-3.5414,-3.4776,-3.4556,-3.4049,-3.2598,-3.1785,-3.1309,-3.1207,-3.0666,-3.0226,-3.0106,-2.8956,-2.8027,-2.7824,-2.7165,-2.6691,-2.6691,-2.6133,-2.571,-2.5609,-2.4722,-2.4263,-2.4382,-2.3879,-2.375,-2.4208,-2.4021,-2.3995,-2.4141,-2.4123,-2.4123,-2.4123,-2.4084,-2.4094,-2.4123,-2.4123,-2.4161,-3.8087,-3.8803,-3.9297,-3.9297,-3.7634,-3.5348,-3.2809,-3.1011,-2.8947,-2.569,-2.4348,-2.3761,-2.3699,-2.5273,-2.7824,-3.1633,-3.3984,-3.6806,-4.1035,-4.176,-4.2086,0.0,-4.2769,-4.25,-4.2,-4.1424,0.0,0.0,0.0,-4.0594,-4.1041,-4.1064,-4.1273,-4.1771,-4.181,-4.181,-4.181,-4.181,-4.1853,-4.1958,-4.1958,-4.2,-4.2085,-4.2085,-4.2085,-4.2103,-4.2,0.0,-4.1916,-4.1296,-4.0995,-4.0874,-4.0417,-4.0179,-4.0096,-4.0096,-4.0096,-4.0096,-4.0096,-4.0096,-4.0138,-4.0204,-4.0196,-4.0096,-4.0096,-4.0096,-4.0229,-4.0874,-4.0569,-4.001,-3.9817,-3.8814,-3.764,-3.6801,-3.6079,-3.5566,-3.543,-3.4928,-3.4049,-3.2598,-3.2192,-3.1921,-3.1309,-3.1089,-3.0801,-3.0192,-2.9869,-2.9227,-2.7959,-2.7165,-2.6691,-2.6691,-2.659,-2.6251,-2.5643,-2.5666,-2.5475,-2.4903,-2.5283,-2.5147,-2.4319,-2.4806,-2.4691,-2.3795,-2.3785,-2.3785,-2.3785,-2.3511,-2.3522,-2.3785,-2.3785,-2.3945,-3.8066,-3.8475,-3.8659,-3.8659,-3.6364,-3.3433,-3.095,-2.8939,-2.678,-2.3943,-2.3071,-2.2835,-2.2835,-2.4428,-2.6586,-2.9231,-3.164,-3.4717,-3.9118,-3.9841,-4.0629,-4.2494,-4.2142,-4.1643,-4.1358,-4.0821,-4.0473,-4.0473,0.0,-4.0204,-4.0473,-4.0473,-4.0601,-4.0908,-4.0932,-4.0932,-4.0932,-4.0932,-4.1076,-4.1335,-4.1335,-4.149,-4.181,-4.181,-4.181,-4.1771,-4.1468,0.0,-4.1291,-4.0703,-4.0473,-4.0449,-4.0204,-4.0096,-4.0096,-4.0096,-4.0096,-4.0096,-4.0096,-4.0096,-4.0096,-4.0096,-4.0096,-4.0096,-4.0096,-4.0096,-4.0204,-4.0733,-4.0709,-4.0405,-3.9916,-3.9055,-3.8077,-3.7034,-3.618,-3.56,-3.56,-3.503,-3.4286,-3.3596,-3.2835,-3.2192,-3.1836,-3.1444,-3.1072,-3.0734,-3.0362,-2.9818,-2.9092,-2.7994,-2.7131,-2.6742,-2.6691,-2.6556,-2.6201,-2.5973,-2.5752,-2.5584,-2.5338,-2.5129,-2.4935,-2.5249,-2.5194,-2.4659,-2.4433,-2.4217,-2.3998,-2.3472,-2.3271,-2.3437,-2.3437,-2.3533,-3.7466,-3.7669,-3.7618,-3.7466,-3.4827,-3.1684,-2.9297,-2.7114,-2.4967,-2.2753,-2.2296,-2.2347,-2.2513,-2.3776,-2.5374,-2.7039,-2.9425,-3.2542,-3.6831,-3.7951,-3.9274,-4.1938,-4.145,0.0,-4.0733,-4.0343,0.0,-4.0096,0.0,0.0,-4.0096,-4.0096,-4.0096,-4.0096,-4.0096,-4.0096,-4.0096,-4.0096,-4.0311,-4.0726,-4.0726,-4.099,-4.1442,-4.1442,-4.1442,-4.142,-4.0943,0.0,0.0,-4.0262,-4.0096,-4.0096,-4.0096,-4.0096,-4.0096,-4.0096,-4.0096,-4.0096,-4.0096,-4.0096,-4.0096,-4.0096,-4.0096,-4.0096,-4.0096,-4.0096,-4.0179,-4.0625,-4.0726,-4.0612,-4.0026,-3.9301,-3.8436,-3.7097,-3.618,-3.56,-3.56,-3.5148,-3.4692,-3.4523,-3.3563,-3.2666,-3.2344,-3.1819,-3.1376,-3.1207,-3.0717,-3.0294,-3.0125,-2.9041,-2.801,-2.7266,-2.6911,-2.6691,-2.6691,-2.6167,-2.5958,-2.6208,-2.5521,-2.5232,-2.5502,-2.5671,-2.5637,-2.5393,-2.5084,-2.4687,-2.4211,-2.3558,-2.3197,-2.3093,-2.3093,-2.3129,-3.6694,-3.6897,-3.6721,-3.5988,-3.4032,-3.1532,-2.8568,-2.6708,-2.4967,-2.2753,-2.2296,-2.2499,-2.3173,-2.3437,-2.4264,-2.6418,-2.8168,-3.0644,-3.471,-3.6677,-3.8454,-4.0548,0.0,0.0,-4.0229,-4.0121,0.0,0.0,0.0,0.0,-4.0096,-4.0096,-4.0096,-4.0096,-4.0096,-4.0096,-4.0096,-4.0096,-4.0121,-4.0154,-4.0154,-4.0204,-4.0254,-4.0254,-4.0254,-4.0254,-4.0196,0.0,0.0,-4.0121,-4.0096,-4.0096,-4.0096,-4.0096,-4.0096,-4.0096,-4.0096,-4.0096,-4.0096,-4.0096,-4.0096,-4.0096,-4.0096,-4.0096,-4.0096,-4.0096,-4.0096,-4.0171,-4.0154,-4.0154,-4.0086,-3.9527,-3.8628,-3.7134,-3.618,-3.56,-3.56,-3.5549,-3.5295,-3.4624,-3.4387,-3.3884,-3.253,-3.2242,-3.1972,-3.1292,-3.114,-3.0852,-3.0192,-2.9989,-2.9617,-2.8874,-2.7537,-2.6691,-2.6691,-2.664,-2.6606,-2.664,-2.6912,-2.6616,-2.5636,-2.6234,-2.61,-2.5065,-2.5007,-2.4639,-2.3952,-2.3551,-2.3168,-2.2746,-2.2746,-2.291,-3.5757,-3.6417,-3.6609,-3.5785,-3.3609,-3.0954,-2.8382,-2.6319,-2.4441,-2.2651,-2.2296,-2.2381,-2.2682,-2.275,-2.3173,-2.4492,-2.522,-2.6952,-3.0681,-3.2294,-3.4347,-3.7737,-3.8703,0.0,0.0,0.0,-4.0096,0.0,0.0,0.0,-4.0096,-4.0096,-4.0096,-4.0096,-4.0096,-4.0096,-4.0096,-4.0096,-4.0096,-4.0096,-4.0096,-4.0096,-4.0096,-4.0096,-4.0096,-4.0096,-4.0096,0.0,0.0,-4.0096,-4.0096,-4.0096,-4.0096,-4.0096,-4.0096,-4.0096,-4.0096,-4.0096,-4.0096,-4.0096,-4.0096,-4.0096,-4.0096,-4.0096,-4.0096,-4.0096,-4.0096,-4.0096,-4.0096,-4.0096,-4.0096,-3.9208,-3.8075,-3.7049,-3.618,-3.56,-3.56,-3.56,-3.5498,-3.5211,-3.4793,-3.4303,-3.3732,-3.2886,-3.2209,-3.1921,-3.1478,-3.1089,-3.0801,-3.0378,-2.9989,-2.9685,-2.8281,-2.735,-2.735,-2.6962,-2.6691,-2.6691,-2.6841,-2.6754,-2.6285,-2.6776,-2.6849,-2.6387,-2.5952,-2.5588,-2.5276,-2.4466,-2.3973,-2.3779,-2.3779,-2.385,-3.4235,-3.5199,-3.5605,-3.4827,-3.256,-3.0006,-2.7942,-2.5761,-2.3831,-2.2564,-2.2296,-2.2296,-2.2296,-2.2296,-2.2465,-2.2987,-2.3427,-2.4874,-2.8202,-2.9676,-3.1849,-3.5694,0.0,-3.8058,0.0,-3.9842,0.0,0.0,0.0,0.0,-4.0096,-4.0096,-4.0096,-4.0096,-4.0096,-4.0096,-4.0096,-4.0096,-4.0096,-4.0096,-4.0096,-4.0096,-4.0096,-4.0096,-4.0096,-4.0096,-4.0096,0.0,0.0,-4.0096,-4.0096,-4.0096,-4.0096,-4.0096,-4.0096,-4.0096,-4.0096,-4.0096,-4.0096,-4.0096,-4.0096,-4.0096,-4.0096,-4.0096,-4.0096,-4.0096,-4.0096,-4.0096,-4.0096,-4.0096,-4.0096,-3.9157,-3.8041,-3.7297,-3.6518,-3.5893,-3.565,-3.56,-3.56,-3.56,-3.5182,-3.4759,-3.4523,-3.3647,-3.2801,-3.2361,-3.187,-3.1464,-3.1224,-3.0751,-3.0429,-3.0429,-2.9261,-2.8297,-2.7841,-2.7317,-2.6928,-2.6708,-2.6691,-2.6691,-2.6691,-2.6971,-2.7131,-2.7131,-2.6599,-2.6236,-2.6029,-2.5224,-2.4711,-2.4491,-2.4491,-2.4491,-3.1938,-3.2865,-3.3271,-3.253,-3.0668,-2.862,-2.7046,-2.5,-2.319,-2.2448,-2.2296,-2.2296,-2.2296,-2.2296,-2.2296,-2.2313,-2.3543,-2.5456,-2.8213,-3.0103,-3.2205,0.0,0.0,-3.7117,-3.7855,-3.9225,0.0,0.0,0.0,0.0,-4.0096,-4.0096,-4.0096,-4.0096,-4.0096,-4.0096,-4.0096,-4.0096,-4.0096,-4.0096,-4.0096,-4.0096,-4.0096,-4.0096,-4.0096,0.0,0.0,0.0,0.0,-4.0096,-4.0096,-4.0096,-4.0096,-4.0096,-4.0096,-4.0096,-4.0096,-4.0096,-4.0096,-4.0096,-4.0096,-4.0096,-4.0096,-4.0096,-4.0096,-4.0096,-4.0096,-4.0096,-4.0096,-4.0096,-4.0096,-3.9554,-3.8802,-3.8075,-3.7313,-3.6575,-3.5769,-3.56,-3.56,-3.56,-3.5583,-3.5346,-3.4624,-3.4472,-3.3986,-3.2513,-3.2293,-3.2022,-3.1275,-3.119,-3.119,-3.119,-3.0531,-2.9447,-2.7925,-2.779,-2.7469,-2.6742,-2.6691,-2.6691,-2.6691,-2.6708,-2.6708,-2.6708,-2.6708,-2.6336,-2.5609,-2.5592,-2.5203,-2.4491,-2.4491,-2.4491,-2.911,-3.0176,-3.0852,-2.9567,-2.8117,-2.67,-2.5459,-2.4021,-2.281,-2.2389,-2.2296,-2.2296,-2.2296,-2.2296,-2.2632,-2.3644,-2.4203,-2.5163,-2.7042,0.0,0.0,-3.3775,-3.6995,-3.9148,0.0,0.0,0.0,0.0,0.0,0.0,-4.0096,-4.0096,-4.0096,-4.0096,-4.0096,-4.0096,-4.0096,-4.0096,-4.0096,-4.0096,-4.0096,-4.0096,-4.0096,-4.0096,-4.0096,0.0,0.0,0.0,0.0,-4.0096,-4.0096,-4.0096,-4.0096,-4.0096,-4.0096,-4.0096,-4.0096,-4.0096,-4.0096,-4.0096,-4.0096,-4.0096,-4.0096,-4.0096,-4.0096,-4.0096,-4.0096,-4.0096,-4.0096,-4.0096,-4.0096,-3.9554,-3.8802,-3.8091,-3.733,-3.6592,-3.5769,-3.56,-3.56,-3.56,-3.56,-3.5515,-3.5301,-3.4827,-3.4167,-3.3203,-3.2611,-3.2039,-3.1275,-3.119,-3.119,-3.119,-3.0987,-3.0446,-2.9447,-2.8415,-2.7705,-2.7469,-2.6979,-2.6691,-2.6691,-2.6691,-2.6824,-2.7099,-2.6841,-2.6722,-2.6771,-2.6484,-2.6218,-2.6014,-2.6014,-2.6014,-2.6553,-2.7769,-2.8602,-2.7621,-2.6334,-2.5111,-2.4427,-2.325,-2.2249,-2.2072,-2.218,-2.2296,-2.2296,-2.2296,-2.2598,-2.3511,-2.3898,-2.4694,0.0,0.0,0.0,-3.437,0.0,0.0,0.0,0.0,0.0,0.0,0.0,0.0,-4.0096,-4.0096,-4.0096,-4.0096,-4.0096,-4.0096,-4.0096,-4.0096,-4.0096,-4.0096,-4.0096,-4.0096,-4.0096,-4.0096,-4.0096,0.0,0.0,0.0,0.0,-4.0096,-4.0096,-4.0096,-4.0096,-4.0096,-4.0096,-4.0096,-4.0096,-4.0096,-4.0096,-4.0096,-4.0096,-4.0096,-4.0096,-4.0096,-4.0096,-4.0096,-4.0096,-4.0096,-4.0096,-4.0096,-4.0096,-3.9757,-3.9249,-3.8481,-3.7753,-3.6992,-3.6231,-3.5802,-3.56,-3.56,-3.56,-3.56,-3.56,-3.5211,-3.4658,-3.3931,-3.3406,-3.2767,-3.1752,-3.1633,-3.1495,-3.1224,-3.119,-3.1004,-3.0548,-2.9379,-2.8551,-2.8281,-2.7537,-2.7114,-2.7114,-2.6843,-2.6808,-2.7067,-2.6824,-2.6824,-2.7067,-2.6808,-2.6691,-2.6691,-2.6691,-2.6691,0.0,-2.5497,-2.6371,-2.632,-2.4946,-2.3654,-2.3687,-2.2585,0.0,-2.1582,-2.1957,-2.2313,-2.2364,-2.233,-2.2347,-2.2499,-2.3156,-2.4391,0.0,-2.8958,0.0,0.0,-3.7635,0.0,0.0,0.0,0.0,0.0,0.0,0.0,-4.0096,-4.0096,-4.0096,-4.0096,-4.0096,-4.0096,-4.0096,-4.0096,-4.0096,-4.0096,-4.0096,-4.0096,-4.0096,-4.0096,-4.0096,0.0,0.0,0.0,0.0,-4.0096,-4.0096,-4.0096,-4.0096,-4.0096,-4.0096,-4.0096,-4.0096,-4.0096,-4.0096,-4.0096,-4.0096,-4.0096,-4.0096,-4.0096,-4.0096,-4.0096,-4.0096,-4.0096,-4.0096,-4.0096,-4.0096,-4.0096,-3.991,-3.9174,-3.8481,-3.777,-3.6981,-3.6214,-3.5667,-3.5616,-3.56,-3.56,-3.56,-3.56,-3.5346,-3.4607,-3.4489,-3.3981,-3.2564,-3.2327,-3.2039,-3.1343,-3.1224,-3.119,-3.119,-3.0531,-2.9803,-2.9128,-2.8332,-2.7891,-2.7891,-2.7182,-2.6776,-2.6776,-2.6725,-2.6691,-2.6691,-2.6691,-2.6691,-2.6691,-2.6691,-2.6691,-2.117,0.0,-2.3046,-2.2476,-2.1743,-2.1239,0.0,-2.1408,-2.1228,-2.1553,-2.1957,-2.2465,-2.3038,-2.2682,-2.2854,-2.4544,-2.5439,-2.6522,-2.8231,0.0,0.0,-3.8928,-3.9486,0.0,0.0,0.0,0.0,0.0,0.0,-4.0096,-4.0096,-4.0096,-4.0096,-4.0096,-4.0096,-4.0096,-4.0096,-4.0096,-4.0096,-4.0096,-4.0096,-4.0096,-4.0096,-4.0096,-4.0096,0.0,0.0,0.0,-4.0096,-4.0096,-4.0096,-4.0096,-4.0096,-4.0096,-4.0096,-4.0096,-4.0096,-4.0096,-4.0096,-4.0096,-4.0096,-4.0096,-4.0096,-4.0096,-4.0096,-4.0096,-4.0096,-4.0096,-4.0096,-4.0096,-4.0096,-4.0096,-3.991,-3.9174,-3.887,-3.8379,-3.7083,-3.666,-3.6332,-3.5718,-3.56,-3.56,-3.56,-3.56,-3.5346,-3.4607,-3.4489,-3.4167,-3.3254,-3.2666,-3.2226,-3.2056,-3.1549,-3.119,-3.119,-3.0531,-3.004,-2.9854,-2.9127,-2.8722,-2.8722,-2.796,-2.7536,-2.7536,-2.6996,-2.6691,-2.6691,-2.6691,-2.6691,-2.6691,-2.6691,-2.6691,-1.9028,-2.0095,-2.1119,-2.1023,-2.0649,-2.0365,-2.0616,-2.0682,-2.0732,-2.0959,-2.1522,-2.2105,-2.2504,-2.2702,-2.3308,-2.4847,-2.5998,0.0,0.0,0.0,-3.7127,-3.9791,-4.0096,0.0,0.0,0.0,0.0,0.0,0.0,-4.0096,-4.0096,-4.0096,-4.0096,-4.0096,-4.0096,-4.0096,-4.0096,-4.0096,-4.0096,-4.0096,-4.0096,-4.0096,-4.0096,-4.0096,-4.0096,0.0,0.0,0.0,-4.0096,-4.0096,-4.0096,-4.0096,-4.0096,-4.0096,-4.0096,-4.0096,-4.0096,-4.0096,-4.0096,-4.0096,-4.0096,-4.0096,-4.0096,-4.0096,-4.0096,-4.0096,-4.0096,-4.0096,-4.0096,-4.0096,-4.0096,-4.0096,-4.0011,-3.9605,-3.9266,-3.8768,-3.7997,-3.7286,-3.6677,-3.6231,-3.5836,-3.56,-3.56,-3.56,-3.5447,-3.5064,-3.5013,-3.4742,-3.3998,-3.3563,-3.3055,-3.2361,-3.1955,-3.1582,-3.1224,-3.0835,-3.0598,-3.0598,-2.9905,-2.9499,-2.9499,-2.8755,-2.8197,-2.7807,-2.7401,-2.7046,-2.6691,-2.6691,-2.6691,-2.6691,-2.6691,-2.6691,-1.7923,-1.887,-1.9956,-2.0591,-2.0537,-2.0314,-2.0399,-2.0451,-2.05,-2.05,-2.1149,-2.1769,-2.1999,-2.2884,-2.3866,-2.4846,0.0,0.0,-3.415,-3.6062,-3.776,-3.9859,0.0,0.0,0.0,0.0,0.0,0.0,0.0,-4.0096,-4.0096,-4.0096,-4.0096,-4.0096,-4.0096,-4.0096,-4.0096,-4.0096,-4.0096,-4.0096,-4.0096,-4.0096,-4.0096,-4.0096,-4.0096,-4.0096,0.0,0.0,-4.0096,-4.0096,-4.0096,-4.0096,-4.0096,-4.0096,-4.0096,-4.0096,-4.0096,-4.0096,-4.0096,-4.0096,-4.0096,-4.0096,-4.0096,-4.0096,-4.0096,-4.0096,-4.0096,-4.0096,-4.0096,-4.0096,-4.0096,-4.0096,-4.0096,-4.0096,-3.9622,-3.9123,-3.9005,-3.8031,-3.7083,-3.6846,-3.6248,-3.5735,-3.5616,-3.56,-3.56,-3.56,-3.56,-3.5363,-3.4742,-3.4556,-3.4015,-3.2767,-3.2429,-3.2056,-3.141,-3.1258,-3.119,-3.119,-3.0615,-3.0226,-3.0108,-2.9499,-2.8789,-2.7993,-2.7976,-2.7689,-2.7046,-2.7046,-2.7046,-2.7046,-2.6928,-2.686,-1.8927,-1.9151,-1.9007,-1.9526,-1.9978,-2.0399,-2.0813,-2.1166,-2.1414,-2.1414,-2.1809,-2.2565,-2.3825,-2.4223,-2.4982,0.0,0.0,-3.2615,0.0,0.0,-3.8311,0.0,0.0,0.0,0.0,0.0,0.0,0.0,0.0,-4.0096,-4.0096,-4.0096,-4.0096,-4.0096,-4.0096,-4.0096,-4.0096,-4.0096,-4.0096,-4.0096,-4.0096,-4.0096,-4.0096,-4.0096,-4.0096,-4.0096,0.0,-4.0096,-4.0096,-4.0096,-4.0096,-4.0096,-4.0096,-4.0096,-4.0096,-4.0096,-4.0096,-4.0096,-4.0096,-4.0096,-4.0096,-4.0096,-4.0096,-4.0096,-4.0096,-4.0096,-4.0096,-4.0096,-4.0096,-4.0096,-4.0096,-4.0096,-4.0096,-4.0096,-4.0011,-3.9757,-3.9123,-3.8802,-3.8278,-3.7049,-3.6711,-3.64,-3.5718,-3.56,-3.56,-3.56,-3.56,-3.5549,-3.5447,-3.4895,-3.4404,-3.4206,-3.3055,-3.2259,-3.2141,-3.1546,-3.119,-3.119,-3.1089,-3.0751,-3.0142,-2.9989,-2.9583,-2.884,-2.8824,-2.8756,-2.8654,-2.8654,-2.8654,-2.8637,-2.796,-2.7621,-1.7728,-1.83,-1.8822,-2.002,-2.0879,-2.1463,-2.1564,-2.2053,-2.2459,-2.2459,-2.283,-2.3493,0.0,0.0,-2.7283,-3.0326,0.0,-3.4861,-3.7077,-3.8024,-3.8886,0.0,0.0,0.0,0.0,0.0,0.0,0.0,0.0,0.0,-4.0096,-4.0096,-4.0096,-4.0096,-4.0096,-4.0096,-4.0096,-4.0096,-4.0096,-4.0096,-4.0096,-4.0096,-4.0096,-4.0096,-4.0096,-4.0096,0.0,-4.0096,-4.0096,-4.0096,-4.0096,-4.0096,-4.0096,-4.0096,-4.0096,-4.0096,-4.0096,-4.0096,-4.0096,-4.0096,-4.0096,-4.0096,-4.0096,-4.0096,-4.0096,-4.0096,-4.0096,-4.0096,-4.0096,-4.0096,-4.0096,-4.0096,-4.0096,-4.0096,-4.0096,-4.0011,-3.9673,-3.9276,-3.8785,-3.8132,-3.7354,-3.6694,-3.6315,-3.5893,-3.56,-3.56,-3.56,-3.56,-3.56,-3.5295,-3.4945,-3.4539,-3.3901,-3.3343,-3.2933,-3.2205,-3.1633,-3.1224,-3.119,-3.1055,-3.0717,-3.0683,-3.0345,-2.96,-2.9583,-2.9416,-2.8993,-2.8993,-2.8993,-2.8993,-2.8619,-2.845,-1.695,-1.7898,-1.903,-2.0671,-2.1641,-2.2348,-2.2815,-2.3355,-2.3811,-2.3975,-2.4445,0.0,0.0,-2.7411,0.0,-3.3136,-3.5064,-3.6597,-3.7973,-3.8785,0.0,0.0,0.0,0.0,0.0,0.0,0.0,0.0,0.0,0.0,-4.0096,-4.0096,-4.0096,-4.0096,-4.0096,-4.0096,-4.0096,-4.0096,-4.0096,-4.0096,-4.0096,-4.0096,-4.0096,-4.0096,-4.0096,-4.0096,-4.0096,-4.0096,-4.0096,-4.0096,-4.0096,-4.0096,-4.0096,-4.0096,-4.0096,-4.0096,-4.0096,-4.0096,-4.0096,-4.0096,-4.0096,-4.0096,-4.0096,-4.0096,-4.0096,-4.0096,-4.0096,-4.0096,-4.0096,-4.0096,-4.0096,-4.0096,-4.0096,-4.0096,-4.0096,-4.0096,-4.0096,-3.9673,-3.9191,-3.9022,-3.8099,-3.7269,-3.71,-3.6552,-3.6073,-3.5904,-3.5893,-3.5802,-3.5616,-3.56,-3.538,-3.481,-3.459,-3.4201,-3.3457,-3.2882,-3.2242,-3.1495,-3.1292,-3.119,-3.119,-3.119,-3.0937,-3.0378,-3.0362,-3.0074,-2.9517,-2.9517,-2.9517,-2.9517,-2.9348,-2.9264,-1.8207,-1.8935,-1.9592,-2.0735,-2.1341,-2.2303,-2.4774,-2.5393,-2.5629,-2.6303,-2.7029,-2.7552,0.0,-3.0004,-3.2513,-3.415,-3.6282,-3.8024,-3.8802,0.0,0.0,0.0,0.0,0.0,0.0,0.0,0.0,0.0,0.0,0.0,-4.0096,-4.0096,-4.0096,-4.0096,-4.0096,-4.0096,-4.0096,-4.0096,-4.0096,-4.0096,-4.0096,-4.0096,-4.0096,-4.0096,-4.0096,-4.0096,-4.0096,-4.0096,-4.0096,-4.0096,-4.0096,-4.0096,-4.0096,-4.0096,-4.0096,-4.0096,-4.0096,-4.0096,-4.0096,-4.0096,-4.0096,-4.0096,-4.0096,-4.0096,-4.0096,-4.0096,-4.0096,-4.0096,-4.0096,-4.0096,-4.0096,-4.0096,-4.0096,-4.0096,-4.0096,-4.0096,-4.0096,-4.0062,-3.9825,-3.9123,-3.8903,-3.8616,-3.7939,-3.7787,-3.7499,-3.6829,-3.6711,-3.6434,-3.5701,-3.56,-3.5583,-3.5515,-3.4912,-3.4201,-3.3457,-3.3355,-3.3,-3.2276,-3.1562,-3.119,-3.119,-3.119,-3.1173,-3.1123,-3.1123,-3.1089,-3.1038,-3.1038,-3.1038,-3.1021,-3.0345,-3.0023,-1.7833,-1.8949,-2.0129,-2.1424,-2.2931,-2.4473,-2.5948,-2.7029,-2.8044,-2.9245,-2.9719,-3.0057,-3.0514,0.0,-3.3626,-3.5627,-3.7043,-3.8328,0.0,0.0,0.0,0.0,0.0,0.0,0.0,0.0,0.0,0.0,0.0,0.0,-4.0096,-4.0096,-4.0096,-4.0096,-4.0096,-4.0096,-4.0096,-4.0096,-4.0096,-4.0096,-4.0096,-4.0096,-4.0096,-4.0096,-4.0096,-4.0096,-4.0096,-4.0096,-4.0096,-4.0096,-4.0096,-4.0096,-4.0096,-4.0096,-4.0096,-4.0096,-4.0096,-4.0096,-4.0096,-4.0096,-4.0096,-4.0096,-4.0096,-4.0096,-4.0096,-4.0096,-4.0096,-4.0096,-4.0096,-4.0096,-4.0096,-4.0096,-4.0096,-4.0096,-4.0096,-4.0096,-4.0096,-4.0096,-4.0028,-3.974,-3.9292,-3.8903,-3.8633,-3.821,-3.7652,-3.6914,-3.6795,-3.6524,-3.5701,-3.56,-3.56,-3.56,-3.5346,-3.4895,-3.415,-3.4083,-3.3761,-3.3034,-3.2273,-3.1684,-3.1207,-3.119,-3.119,-3.119,-3.119,-3.119,-3.119,-3.119,-3.119,-3.119,-3.0903,-3.0784,-1.7671,-1.8858,-2.0361,-2.1553,-2.3654,-2.5832,-2.7401,-2.8755,-3.0178,-3.1884,-3.2053,-3.2121,-3.2869,0.0,0.0,0.0,-3.7601,0.0,0.0,0.0,0.0,0.0,0.0,0.0,0.0,0.0,0.0,0.0,0.0,0.0,0.0,-4.0096,-4.0096,-4.0096,-4.0096,-4.0096,-4.0096,-4.0096,-4.0096,-4.0096,-4.0096,-4.0096,-4.0096,-4.0096,-4.0096,-4.0096,-4.0096,-4.0096,-4.0096,-4.0096,-4.0096,-4.0096,-4.0096,-4.0096,-4.0096,-4.0096,-4.0096,-4.0096,-4.0096,-4.0096,-4.0096,-4.0096,-4.0096,-4.0096,-4.0096,-4.0096,-4.0096,-4.0096,-4.0096,-4.0096,-4.0096,-4.0096,-4.0096,-4.0096,-4.0096,-4.0096,-4.0096,-4.0096,-4.0096,-4.0096,-3.9706,-3.9368,-3.9368,-3.892,-3.8345,-3.7625,-3.7506,-3.7134,-3.6113,-3.5994,-3.5893,-3.5616,-3.56,-3.5397,-3.4895,-3.4844,-3.4539,-3.3795,-3.3254,-3.2564,-3.1599,-3.1565,-3.1427,-3.119,-3.119,-3.119,-3.119,-3.119,-3.119,-3.119,-3.119,-3.119,-1.8008,-1.8827,-2.0188,-2.0941,-2.3096,-2.5927,-2.9338,-3.07,-3.185,-3.4066,-3.3947,-3.366,-3.437,-3.4506,0.0,-3.6558,0.0,0.0,0.0,0.0,0.0,0.0,0.0,0.0,0.0,0.0,0.0,0.0,0.0,0.0,0.0,-4.0096,-4.0096,-4.0096,-4.0096,-4.0096,-4.0096,-4.0096,-4.0096,-4.0096,-4.0096,-4.0096,-4.0096,-4.0096,-4.0096,-4.0096,-4.0096,-4.0096,-4.0096,-4.0096,-4.0096,-4.0096,-4.0096,-4.0096,-4.0096,-4.0096,-4.0096,-4.0096,-4.0096,-4.0096,-4.0096,-4.0096,-4.0096,-4.0096,-4.0096,-4.0096,-4.0096,-4.0096,-4.0096,-4.0096,-4.0096,-4.0096,-4.0096,-4.0096,-4.0096,-4.0096,-4.0096,-4.0096,-4.0096,-4.0096,-4.0096,-4.0096,-4.0096,-4.0096,-3.9859,-3.9106,-3.8988,-3.8464,-3.6998,-3.6795,-3.6485,-3.5684,-3.56,-3.56,-3.56,-3.56,-3.5301,-3.4556,-3.4506,-3.3846,-3.2361,-3.231,-3.1972,-3.1241,-3.1207,-3.1207,-3.1207,-3.119,-3.119,-3.119,-3.119,-3.119,-1.8191,-1.9122,-2.055,-2.262,-2.5513,-2.8365,-3.0476,-3.188,-3.3541,-3.6332,-3.6299,-3.569,-3.5351,-3.574,0.0,-3.6728,0.0,0.0,0.0,0.0,0.0,0.0,0.0,0.0,0.0,0.0,0.0,0.0,0.0,0.0,0.0,-4.0096,-4.0096,-4.0096,-4.0096,-4.0096,-4.0096,-4.0096,-4.0096,-4.0096,-4.0096,-4.0096,-4.0096,-4.0096,-4.0096,-4.0096,-4.0096,-4.0096,-4.0096,-4.0096,-4.0096,-4.0096,-4.0096,-4.0096,-4.0096,-4.0096,-4.0096,-4.0096,-4.0096,-4.0096,-4.0096,-4.0096,-4.0096,-4.0096,-4.0096,-4.0096,-4.0096,-4.0096,-4.0096,-4.0096,-4.0096,-4.0096,-4.0096,-4.0096,-4.0096,-4.0096,-4.0096,-4.0096,-4.0096,-4.0096,-4.0096,-4.0096,-4.0096,-4.0096,-3.9859,-3.9106,-3.8988,-3.8464,-3.6998,-3.6795,-3.6485,-3.5684,-3.56,-3.56,-3.56,-3.56,-3.5498,-3.5301,-3.5261,-3.4624,-3.3136,-3.3068,-3.2966,-3.2763,-3.2242,-3.1972,-3.1972,-3.1444,-3.119,-3.119,-3.119,-3.119,-1.8816,-1.9934,-2.1612,-2.4286,-2.6889,-2.9546,-3.2364,-3.3913,-3.5427,-3.7841,-3.7753,-3.7178,-3.6992,-3.711,0.0,0.0,0.0,0.0,0.0,0.0,0.0,0.0,0.0,0.0,0.0,0.0,0.0,0.0,0.0,0.0,0.0,-4.0096,-4.0096,-4.0096,-4.0096,-4.0096,-4.0096,-4.0096,-4.0096,-4.0096,-4.0096,-4.0096,-4.0096,-4.0096,-4.0096,-4.0096,-4.0096,-4.0096,-4.0096,-4.0096,-4.0096,-4.0096,-4.0096,-4.0096,-4.0096,-4.0096,-4.0096,-4.0096,-4.0096,-4.0096,-4.0096,-4.0096,-4.0096,-4.0096,-4.0096,-4.0096,-4.0096,-4.0096,-4.0096,-4.0096,-4.0096,-4.0096,-4.0096,-4.0096,-4.0096,-4.0096,-4.0096,-4.0096,-4.0096,-4.0096,-4.0096,-4.0096,-4.0096,-4.0096,-3.996,-3.9503,-3.9174,-3.8667,-3.7794,-3.7415,-3.6924,-3.6163,-3.6079,-3.596,-3.5616,-3.56,-3.56,-3.56,-3.56,-3.5194,-3.4298,-3.3998,-3.3694,-3.3406,-3.2949,-3.273,-3.273,-3.229,-3.1918,-3.165,-3.165,-3.1481,-1.9582,-2.0953,-2.2964,-2.5856,-2.7784,-3.0114,-3.4589,-3.6169,-3.7136,-3.8679,0.0,-3.8278,-3.8886,-3.8514,-3.8311,0.0,0.0,0.0,0.0,0.0,0.0,0.0,0.0,0.0,0.0,0.0,0.0,0.0,0.0,0.0,0.0,-4.0096,-4.0096,-4.0096,-4.0096,-4.0096,-4.0096,-4.0096,-4.0096,-4.0096,-4.0096,-4.0096,-4.0096,-4.0096,-4.0096,-4.0096,-4.0096,-4.0096,-4.0096,-4.0096,-4.0096,-4.0096,-4.0096,-4.0096,-4.0096,-4.0096,-4.0096,-4.0096,-4.0096,-4.0096,-4.0096,-4.0096,-4.0096,-4.0096,-4.0096,-4.0096,-4.0096,-4.0096,-4.0096,-4.0096,-4.0096,-4.0096,-4.0096,-4.0096,-4.0096,-4.0096,-4.0096,-4.0096,-4.0096,-4.0096,-4.0096,-4.0096,-4.0096,-4.0096,-4.0096,-4.0096,-3.9537,-3.9073,-3.9005,-3.8413,-3.7719,-3.6981,-3.6897,-3.6569,-3.5769,-3.5701,-3.5667,-3.56,-3.56,-3.56,-3.56,-3.4962,-3.4286,-3.3605,-3.3541,-3.3508,-3.3508,-3.344,-3.3051,-3.2395,-3.2395,-3.2056,-1.9205,-2.0803,-2.3126,-2.6877,-3.0154,-3.3001,-3.519,-3.5819,-3.6514,-3.8578,-3.9326,-3.9503,-3.9073,-3.9326,0.0,0.0,0.0,0.0,0.0,0.0,0.0,0.0,0.0,0.0,0.0,0.0,0.0,0.0,0.0,0.0,-4.0096,-4.0096,-4.0096,-4.0096,-4.0096,-4.0096,-4.0096,-4.0096,-4.0096,0.0,-4.0096,-4.0096,-4.0096,-4.0096,-4.0096,-4.0096,-4.0096,-4.0096,-4.0096,-4.0096,-4.0096,-4.0096,-4.0096,-4.0096,-4.0096,-4.0096,-4.0096,-4.0096,-4.0096,-4.0096,-4.0096,-4.0096,-4.0096,-4.0096,-4.0096,-4.0096,-4.0096,-4.0096,-4.0096,-4.0096,-4.0096,-4.0096,-4.0096,-4.0096,-4.0096,-4.0096,-4.0096,-4.0096,-4.0096,-4.0096,-4.0096,-4.0096,-4.0096,-4.0096,-4.0096,-4.0096,-3.9977,-3.9656,-3.9056,-3.8853,-3.8481,-3.7736,-3.7669,-3.7364,-3.6626,-3.6535,-3.6265,-3.5633,-3.56,-3.56,-3.56,-3.5447,-3.5278,-3.5126,-3.4556,-3.4252,-3.4252,-3.3677,-3.3322,-3.3169,-3.3169,-3.3085,-1.9598,-2.1427,-2.3986,-2.8655,-3.1696,-3.3778,-3.4905,-3.5457,-3.6034,-3.7177,-3.8571,-3.9469,-3.9056,0.0,0.0,0.0,0.0,0.0,0.0,0.0,0.0,0.0,0.0,0.0,0.0,0.0,0.0,0.0,0.0,-4.0096,-4.0096,-4.0096,-4.0096,-4.0096,-4.0096,-4.0096,-4.0096,-4.0096,-4.0096,-4.0096,-4.0096,-4.0096,-4.0096,-4.0096,-4.0096,-4.0096,-4.0096,-4.0096,-4.0096,-4.0096,-4.0096,-4.0096,-4.0096,-4.0096,-4.0096,-4.0096,-4.0096,-4.0096,-4.0096,-4.0096,-4.0096,-4.0096,-4.0096,-4.0096,-4.0096,-4.0096,-4.0096,-4.0096,-4.0096,-4.0096,-4.0096,-4.0096,-4.0096,-4.0096,-4.0096,-4.0096,-4.0096,-4.0096,-4.0096,-4.0096,-4.0096,-4.0096,-4.0096,-4.0096,-4.0096,-4.0096,-4.0096,-3.996,-3.9588,-3.9537,-3.9225,-3.8514,-3.843,-3.8125,-3.7381,-3.7015,-3.6626,-3.6197,-3.5802,-3.56,-3.56,-3.56,-3.56,-3.56,-3.5211,-3.503,-3.503,-3.4641,-3.4286,-3.3931,-3.3931,-3.3744,-1.9672,-2.2114,-2.5238,-2.9903,-3.238,-3.3756,-3.4023,-3.4922,-3.5645,-3.5547,-3.7251,-3.8802,0.0,0.0,0.0,0.0,0.0,0.0,0.0,0.0,0.0,0.0,0.0,0.0,0.0,0.0,0.0,0.0,0.0,-4.0096,-4.0096,-4.0096,-4.0096,-4.0096,-4.0096,-4.0096,-4.0096,-4.0096,-4.0096,-4.0096,-4.0096,-4.0096,-4.0096,-4.0096,-4.0096,-4.0096,-4.0096,-4.0096,-4.0096,-4.0096,-4.0096,-4.0096,-4.0096,-4.0096,-4.0096,-4.0096,-4.0096,-4.0096,-4.0096,-4.0096,-4.0096,-4.0096,-4.0096,-4.0096,-4.0096,-4.0096,-4.0096,-4.0096,-4.0096,-4.0096,-4.0096,-4.0096,-4.0096,-4.0096,-4.0096,-4.0096,-4.0096,-4.0096,-4.0096,-4.0096,-4.0096,-4.0096,-4.0096,-4.0096,-4.0096,-4.0096,-4.0096,-4.0096,-4.0096,-4.0096,-3.9876,-3.9242,-3.9174,-3.8886,-3.8159,-3.7516,-3.7134,-3.7015,-3.6383,-3.5938,-3.5802,-3.5825,-3.5735,-3.56,-3.56,-3.56,-3.56,-3.56,-3.5301,-3.4692,-3.4692,-3.4353,-1.7728,-2.2053,-2.6646,-2.8466,-3.1655,-3.3962,0.0,0.0,-3.545,0.0,-3.6499,-3.8058,0.0,0.0,0.0,0.0,0.0,0.0,0.0,0.0,0.0,0.0,0.0,0.0,0.0,0.0,0.0,0.0,-4.0096,-4.0096,-4.0096,-4.0096,-4.0096,-4.0096,-4.0096,-4.0096,-4.0096,-4.0096,-4.0096,-4.0096,-4.0096,-4.0096,-4.0096,-4.0096,-4.0096,-4.0096,-4.0096,-4.0096,-4.0096,-4.0096,-4.0096,-4.0096,-4.0096,-4.0096,-4.0096,-4.0096,-4.0096,-4.0096,-4.0096,-4.0096,-4.0096,-4.0096,-4.0096,-4.0096,-4.0096,-4.0096,-4.0096,-4.0096,-4.0096,-4.0096,-4.0096,-4.0096,-4.0096,-4.0096,-4.0096,-4.0096,-4.0096,-4.0096,-4.0096,-4.0096,-4.0096,-4.0096,-4.0096,-4.0096,-4.0096,-4.0096,-4.0096,-4.0096,-4.0096,-4.0096,-4.0062,-3.996,-3.996,-3.9656,-3.8903,-3.8751,-3.843,-3.7787,-3.7652,-3.7313,-3.6677,-3.6643,-3.6315,-3.5616,-3.56,-3.56,-3.56,-3.56,-3.5549,-3.5447,-3.5447,-3.5397,-1.9128,-2.2384,-2.5496,-2.796,-2.9863,-3.1322,-3.2012,-3.308,-3.3931,-3.403,-3.5402,0.0,0.0,0.0,0.0,0.0,0.0,0.0,0.0,0.0,0.0,0.0,0.0,0.0,0.0,0.0,0.0,0.0,-3.8647,-3.8688,-3.8279,-3.8647,-3.887,-3.887,-3.9259,-3.9486,-3.9486,-3.9893,-4.0096,-4.0096,-4.0096,-4.0096,-4.0096,-4.0096,-4.0096,-4.0096,-4.0096,-4.0096,-4.0096,-4.0096,-4.0096,-4.0096,-4.0096,-4.0096,-4.0096,-4.0096,-4.0096,-4.0096,-4.0096,-4.0096,-4.0096,-4.0096,-4.0096,-4.0096,-4.0096,-4.0096,-4.0096,-4.0096,-4.0096,-4.0096,-4.0096,-4.0096,-4.0096,-4.0096,-4.0096,-4.0096,-4.0096,-4.0096,-4.0096,-4.0096,-4.0096,-4.0096,-4.0096,-4.0096,-4.0096,-4.0096,-4.0096,-4.0096,-4.0096,-4.0096,-4.0096,-4.0096,-4.0096,-3.9977,-3.9656,-3.9225,-3.8853,-3.8531,-3.8125,-3.7753,-3.7432,-3.7415,-3.706,-3.6282,-3.5842,-3.5424,-3.5052,-3.5052,-3.4847,-3.4471,-3.4471,-3.4471,-1.9468,-2.1605,-2.3526,-2.639,-2.7813,-2.9014,0.0,0.0,-3.2686,0.0,0.0,0.0,0.0,0.0,0.0,0.0,0.0,0.0,0.0,0.0,0.0,0.0,0.0,0.0,0.0,0.0,0.0,0.0,-3.7053,-3.7195,-3.681,-3.7319,-3.7704,-3.7882,-3.843,-3.8717,-3.8717,-3.9445,-3.991,-4.0096,-4.0096,-4.0096,-4.0096,-4.0096,-4.0096,-4.0096,-4.0096,-4.0096,-4.0096,-4.0096,-4.0096,-4.0096,-4.0096,-4.0096,-4.0096,-4.0096,-4.0096,-4.0096,-4.0096,-4.0096,-4.0096,-4.0096,-4.0096,-4.0096,-4.0096,-4.0096,-4.0096,-4.0096,-4.0096,-4.0096,-4.0096,-4.0096,-4.0096,-4.0096,-4.0096,-4.0096,-4.0096,-4.0096,-4.0096,-4.0096,-4.0096,-4.0096,-4.0096,-4.0096,-4.002,-3.985,-3.9969,-4.002,-3.9808,-3.9978,-4.0096,-4.0096,-3.9927,-3.9876,-4.007,-3.9413,-3.9068,-3.9276,-3.8562,-3.8077,-3.7892,-3.7686,-3.7335,-3.6807,-3.583,-3.5188,-3.4854,-3.4671,-3.4333,-3.3862,-3.3684,-3.3582,-1.6577,-1.8821,-2.1118,-2.2642,-2.5784,-2.8392,0.0,0.0,0.0,0.0,0.0,0.0,0.0,0.0,0.0,0.0,0.0,0.0,0.0,0.0,0.0,0.0,0.0,0.0,0.0,0.0,0.0,0.0,-3.5894,-3.6188,-3.6759,-3.6835,-3.7178,-3.7882,-3.7939,-3.7973,-3.7973,-3.8684,-3.9419,-4.0096,-4.0096,-4.0096,-4.0096,-4.0096,-4.0096,-4.0096,-4.0096,-4.0096,-4.0096,-4.0096,-4.0096,-4.0096,-4.0096,-4.0096,-4.0096,-4.0096,-4.0096,-4.0096,-4.0096,-4.0096,-4.0096,-4.0096,-4.0096,-4.0096,-4.0096,-4.0096,-4.0096,-4.0096,-4.0096,-4.0096,-4.0096,-4.0096,-4.0096,-4.0096,-4.0096,-4.0096,-4.0096,-4.0096,-4.0096,-4.0096,-4.0096,-4.0096,-4.0096,-4.0096,-3.9833,-3.9086,-3.961,-3.9808,-3.9059,-3.9636,-4.0096,-4.0096,-3.9411,-3.9289,-4.0045,-3.9378,-3.9239,-3.9995,-3.9285,-3.8523,-3.7837,-3.7145,-3.6734,-3.6717,-3.5364,-3.4945,-3.5538,-3.4918,-3.4576,-3.4528,-3.3887,-3.3582,-1.6353,-1.8011,-1.981,-2.1624,-2.3437,-2.5145,-2.6626,-2.8545,-3.0082,-3.0279,0.0,0.0,0.0,0.0,0.0,0.0,0.0,0.0,0.0,0.0,0.0,0.0,0.0,0.0,0.0,0.0,0.0,0.0,0.0,-3.4491,-3.4748,-3.5152,-3.5716,-3.6388,-3.6924,-3.7415,-3.7905,-3.8633,-3.9123,-3.9394,-3.9876,-4.0096,-4.0096,-4.0096,-4.0096,-4.0096,-4.0096,-4.0096,-4.0096,-4.0096,-4.0096,-4.0096,-4.0096,-4.0096,-4.0096,-4.0096,-4.0096,-4.0096,-4.0096,-4.0096,-4.0096,-4.0096,-4.0096,-4.0096,-4.0096,-4.0096,-4.0096,-4.0096,-4.0096,-4.0096,-4.0096,-4.0096,-4.0096,-4.0096,-4.0096,-4.0096,-4.0096,-4.0096,-4.0096,-4.0096,-4.0096,-4.0096,-4.0096,-4.0096,-3.985,-3.9032,-3.9139,-3.9236,-3.8935,-3.8734,-3.8805,-3.9289,-3.9086,-3.8843,-3.8624,-3.8789,-3.8799,-3.864,-3.8346,-3.8092,-3.7806,-3.7552,-3.7187,-3.6712,-3.6192,-3.5637,-3.5028,-3.3858,-3.3077,-3.2594,-3.2351,-3.2256,-1.5359,0.0,0.0,0.0,-2.1431,-2.2706,-2.5323,0.0,-2.7841,0.0,0.0,0.0,0.0,0.0,0.0,0.0,0.0,0.0,0.0,0.0,0.0,0.0,0.0,0.0,0.0,0.0,0.0,0.0,0.0,0.0,-3.3235,-3.3912,-3.4664,-3.5577,-3.6129,-3.6755,-3.7516,-3.8007,-3.8497,-3.9005,-3.9503,-3.9859,-4.0096,-4.0096,-4.0096,-4.007,-3.9808,-3.9833,-4.0096,-4.0096,-4.0096,-4.0096,-4.0096,-4.0096,-4.0096,-4.0096,-4.0096,-4.007,-3.9782,-3.9859,-4.0045,-3.9782,-3.9876,-4.0096,-4.0096,-4.0096,-4.0096,-4.0096,-4.0096,-4.0096,-4.0096,-4.0096,-4.0096,-4.0096,-4.0096,-4.0096,-4.0096,-4.0096,-4.0096,-4.0096,-4.0096,-4.0096,-4.0096,-3.9876,-3.9437,-3.8635,-3.8525,-3.8425,-3.8157,-3.8145,-3.8358,-3.8854,-3.869,-3.8442,-3.8206,-3.8145,-3.8032,-3.7806,-3.7544,-3.7397,-3.7397,-3.7175,-3.6925,-3.6672,-3.6218,-3.5543,-3.4698,-3.3486,-3.2542,-3.1866,-3.1611,-3.1511,0.0,0.0,0.0,0.0,0.0,0.0,-2.3872,0.0,-2.5869,0.0,0.0,0.0,0.0,0.0,0.0,0.0,0.0,0.0,0.0,0.0,0.0,0.0,0.0,0.0,0.0,0.0,0.0,0.0,-3.1511,-3.1824,-3.2559,-3.3235,-3.4252,-3.5577,-3.5577,-3.5955,-3.6761,-3.6772,-3.7499,-3.8937,-3.8971,-3.9385,-4.0079,-4.0096,-4.0096,-4.0045,-3.9262,-3.9342,-4.007,-4.007,-4.007,-4.0096,-4.0096,-4.0096,-4.0096,-4.0096,-4.0096,-3.9995,-3.9209,-3.9437,-3.9927,-3.9139,-3.9437,-4.007,-4.007,-4.007,-4.0096,-4.0096,-4.0096,-4.0096,-4.0096,-4.0096,-4.0096,-4.0096,-4.0096,-4.0096,-4.0096,-4.0096,-4.0096,-4.0096,-4.0096,-4.0096,-4.007,-3.9411,-3.8635,-3.7892,-3.7748,-3.7485,-3.6707,-3.7901,-3.8827,-3.8827,-3.8189,-3.8064,-3.8745,-3.7438,-3.6904,-3.769,-3.6994,-3.6584,-3.6584,-3.5894,-3.5846,-3.6554,-3.5228,-3.4576,-3.4661,-3.3847,-3.3166,-3.2547,-3.1824,-3.1511,-1.5254,0.0,0.0,0.0,0.0,0.0,0.0,0.0,0.0,0.0,0.0,0.0,0.0,0.0,0.0,0.0,0.0,0.0,0.0,0.0,0.0,0.0,0.0,0.0,0.0,0.0,0.0,0.0,-3.1511,-3.1824,-3.2559,-3.3684,-3.4728,-3.5577,-3.5121,-3.5222,-3.5943,-3.5973,-3.6482,-3.7422,-3.8481,-3.9106,-3.9309,-3.9859,-4.0096,-4.0045,-3.9262,-3.9032,-3.9236,-3.9236,-3.9568,-4.0096,-4.0096,-4.0096,-4.0096,-4.0096,-4.0096,-4.007,-3.985,-3.9516,-3.9209,-3.8962,-3.9059,-3.9236,-3.9236,-3.9636,-4.0096,-4.0096,-4.0096,-4.0096,-4.0096,-4.0096,-4.0096,-4.0096,-4.0096,-4.0096,-4.0096,-4.0096,-4.0096,-4.0096,-4.0096,-3.9927,-3.9342,-3.9059,-3.8453,-3.7144,-3.6934,-3.6843,-3.663,-3.6523,-3.6631,-3.7188,-3.7038,-3.6798,-3.6477,-3.6538,-3.6477,-3.6164,-3.5941,-3.5814,-3.5814,-3.5619,-3.5587,-3.5814,-3.5424,-3.4763,-3.3834,-3.3124,-3.243,-3.1796,-3.1582,-3.1511,-1.6112,0.0,0.0,0.0,0.0,0.0,0.0,-2.0559,0.0,0.0,0.0,0.0,0.0,0.0,0.0,0.0,0.0,0.0,0.0,0.0,0.0,0.0,0.0,0.0,0.0,-3.1739,-3.1511,-3.1511,-3.1511,-3.1824,-3.2559,-3.3339,-3.4062,-3.4728,-3.4399,-3.4503,-3.5184,-3.4931,-3.5473,-3.6812,-3.7362,-3.8101,-3.9005,-3.9453,-3.9615,-3.9558,-3.8789,-3.8442,-3.8414,-3.8088,-3.8591,-3.961,-3.961,-3.9808,-4.0096,-4.0096,-4.0096,-4.002,-3.9358,-3.9032,-3.8783,-3.8157,-3.8398,-3.8908,-3.8908,-3.9236,-3.961,-3.961,-3.9385,-3.9226,-3.9516,-3.9358,-3.9305,-3.9944,-3.9833,-3.9688,-4.002,-4.0096,-4.0096,-4.0096,-3.9833,-3.9463,-3.8962,-3.837,-3.7642,-3.6722,-3.6337,-3.6134,-3.6134,-3.6023,-3.6117,-3.6554,-3.6615,-3.6415,-3.6006,-3.6054,-3.5943,-3.5537,-3.5504,-3.5504,-3.5504,-3.5504,-3.5504,-3.5504,-3.5504,-3.4846,-3.3499,-3.311,-3.2437,-3.1511,-3.1511,-3.1511,-1.6706,-1.7286,0.0,0.0,0.0,0.0,-1.9935,-2.001,-2.0128,0.0,0.0,0.0,0.0,0.0,0.0,0.0,0.0,0.0,0.0,0.0,0.0,0.0,0.0,0.0,-3.1376,-3.1391,-3.1421,-3.1496,-3.1511,-3.1824,-3.2559,-3.2586,-3.2922,-3.3582,-3.3547,-3.3811,-3.4479,-3.3836,-3.4528,-3.6544,-3.5974,-3.6812,-3.887,-3.8954,-3.895,-3.8854,-3.8121,-3.7764,-3.7602,-3.6798,-3.7438,-3.8881,-3.8799,-3.9315,-4.007,-3.9901,-3.9901,-3.9756,-3.8402,-3.8246,-3.8425,-3.7158,-3.7584,-3.8646,-3.8646,-3.8718,-3.8772,-3.8772,-3.8318,-3.795,-3.8608,-3.8274,-3.8149,-3.961,-3.9437,-3.9113,-3.9927,-4.002,-3.9969,-3.9969,-3.9385,-3.8854,-3.8674,-3.7496,-3.6584,-3.6492,-3.5926,-3.5504,-3.5504,-3.6054,-3.6477,-3.6477,-3.6477,-3.6477,-3.6477,-3.5863,-3.5504,-3.5504,-3.5504,-3.5504,-3.5504,-3.5504,-3.5504,-3.5504,-3.5429,-3.4801,-3.3604,-3.3455,-3.2751,-3.1511,-3.1511,-3.1511,-1.9179,-1.9169,-1.9251,-1.8879,0.0,0.0,-1.7673,-1.8342,-1.9226,0.0,0.0,0.0,0.0,0.0,0.0,0.0,0.0,0.0,0.0,0.0,0.0,0.0,0.0,0.0,-3.0657,-3.0717,-3.0913,-3.1466,-3.1511,-3.1824,-3.2559,-3.2586,-3.2922,-3.3582,-3.3066,-3.3119,-3.3786,-3.3145,-3.3533,-3.5039,-3.5489,-3.6546,-3.8142,-3.8717,-3.895,-3.8854,-3.8121,-3.7427,-3.6768,-3.6038,-3.698,-3.8854,-3.8262,-3.8887,-3.9952,-3.8723,-3.8624,-3.9086,-3.8799,-3.7975,-3.7098,-3.744,-3.7322,-3.7038,-3.7038,-3.7483,-3.8007,-3.8007,-3.7892,-3.7835,-3.7978,-3.7892,-3.8035,-3.8924,-3.9016,-3.9113,-3.9927,-3.9584,-3.9139,-3.9139,-3.9005,-3.8509,-3.7261,-3.6813,-3.6384,-3.5814,-3.5587,-3.5504,-3.5504,-3.5619,-3.5701,-3.5701,-3.5701,-3.5701,-3.5701,-3.5587,-3.5504,-3.5504,-3.5504,-3.5504,-3.5504,-3.5504,-3.5504,-3.5504,-3.4966,-3.4578,-3.4309,-3.3215,-3.2273,-3.1511,-3.1511,-3.1511,-2.0303,-1.9808,-1.9393,-1.9393,0.0,0.0,0.0,-1.7964,-1.8526,-1.918,-1.989,0.0,0.0,0.0,0.0,0.0,0.0,0.0,0.0,0.0,0.0,0.0,0.0,0.0,-3.0013,-3.0043,-3.0313,-3.0943,-3.0987,-3.1293,-3.202,-3.2064,-3.2216,-3.2528,-3.2244,-3.2394,-3.3093,-3.2394,-3.2745,-3.4087,-3.4156,-3.5079,-3.6816,-3.7204,-3.7514,-3.7729,-3.7381,-3.6753,-3.6023,-3.5636,-3.6384,-3.7729,-3.7352,-3.7933,-3.8859,-3.8108,-3.8035,-3.8302,-3.7873,-3.7247,-3.6615,-3.6646,-3.6646,-3.6615,-3.6615,-3.6873,-3.713,-3.6753,-3.6662,-3.6738,-3.71,-3.6935,-3.7025,-3.8536,-3.8635,-3.8553,-3.9358,-3.9166,-3.8674,-3.7901,-3.7758,-3.7496,-3.6722,-3.6306,-3.5926,-3.5554,-3.5504,-3.5504,-3.5504,-3.5504,-3.5504,-3.5504,-3.5504,-3.5504,-3.5504,-3.5504,-3.5504,-3.5504,-3.5504,-3.5504,-3.5504,-3.5504,-3.5504,-3.5504,-3.516,-3.4816,-3.4503,-3.3814,-3.2976,-3.1989,-3.166,-3.1511,0.0,0.0,0.0,0.0,0.0,-1.8496,0.0,0.0,0.0,-1.8486,0.0,0.0,0.0,0.0,0.0,0.0,0.0,0.0,0.0,0.0,0.0,0.0,0.0,0.0,0.0,-2.9142,-2.9532,-3.0268,-3.0088,-3.0342,-3.1256,-3.1316,-3.1376,-3.1511,-3.1511,-3.1796,-3.2382,-3.1796,-3.2145,-3.3391,-3.2868,-3.3697,-3.5694,-3.5694,-3.6039,-3.6615,-3.6615,-3.6165,-3.5504,-3.5504,-3.5831,-3.6384,-3.6384,-3.695,-3.7748,-3.7472,-3.7442,-3.7485,-3.6828,-3.6492,-3.6306,-3.5863,-3.6038,-3.6384,-3.6384,-3.6384,-3.6244,-3.5668,-3.5504,-3.5651,-3.6228,-3.5943,-3.599,-3.8003,-3.8003,-3.7761,-3.8525,-3.8564,-3.8101,-3.6828,-3.6508,-3.6384,-3.6384,-3.5894,-3.5504,-3.5504,-3.5504,-3.5504,-3.5504,-3.5504,-3.5504,-3.5504,-3.5504,-3.5504,-3.5504,-3.5504,-3.5504,-3.5504,-3.5504,-3.5504,-3.5504,-3.5504,-3.5504,-3.5504,-3.5504,-3.5235,-3.4698,-3.4578,-3.3858,-3.2691,-3.1989,-3.169,0.0,0.0,0.0,0.0,-2.1023,0.0,0.0,0.0,-1.7999,-1.7421,0.0,0.0,0.0,0.0,0.0,0.0,0.0,0.0,0.0,0.0,0.0,0.0,0.0,0.0,0.0,-2.748,-2.8349,-2.9621,-2.8603,-2.8723,-3.0522,-3.0612,-3.0883,-3.1481,-3.1511,-3.1539,-3.1611,-3.1524,-3.191,-3.2722,-3.2641,-3.3697,-3.5694,-3.5694,-3.6039,-3.6615,-3.6615,-3.6165,-3.5504,-3.5504,-3.5554,-3.5619,-3.5619,-3.6508,-3.7648,-3.6258,-3.618,-3.6722,-3.663,-3.6165,-3.5733,-3.6275,-3.6086,-3.5619,-3.5619,-3.5619,-3.5619,-3.5537,-3.5504,-3.5537,-3.5619,-3.5554,-3.5733,-3.6646,-3.6813,-3.6964,-3.7748,-3.7381,-3.6813,-3.663,-3.6054,-3.5619,-3.5619,-3.5554,-3.5504,-3.5504,-3.5504,-3.5504,-3.5504,-3.5504,-3.5504,-3.5504,-3.5504,-3.5504,-3.5504,-3.5504,-3.5504,-3.5504,-3.5504,-3.5504,-3.5504,-3.5504,-3.5504,-3.5504,-3.5504,-3.5474,-3.5385,-3.4771,-3.4129,-3.3365,-3.2706,-3.2378,0.0,0.0,0.0,0.0,0.0,0.0,-1.7908,0.0,-1.7613,0.0,0.0,0.0,0.0,0.0,0.0,0.0,0.0,0.0,0.0,0.0,0.0,0.0,0.0,0.0,0.0,0.0,0.0,0.0,-2.7345,-2.7735,-2.931,-3.0103,-3.0642,-3.0898,-3.1301,-3.1511,-3.1511,-3.1511,-3.1668,-3.1951,-3.1951,-3.285,-3.4442,-3.4442,-3.4987,-3.5943,-3.5943,-3.5782,-3.5504,-3.5504,-3.5504,-3.5504,-3.5504,-3.591,-3.6383,-3.5733,-3.5701,-3.5943,-3.5943,-3.575,-3.5554,-3.5863,-3.575,-3.5504,-3.5504,-3.5504,-3.5504,-3.5504,-3.5504,-3.5504,-3.5504,-3.5504,-3.5701,-3.6415,-3.6615,-3.6691,-3.7024,-3.6843,-3.6477,-3.6023,-3.5701,-3.5504,-3.5504,-3.5504,-3.5504,-3.5504,-3.5504,-3.5504,-3.5504,-3.5504,-3.5504,-3.5504,-3.5504,-3.5504,-3.5504,-3.5504,-3.5504,-3.5504,-3.5504,-3.5504,-3.5504,-3.5504,-3.5504,-3.5504,-3.5504,-3.5504,-3.5504,-3.522,-3.4936,-3.4637,-3.3185,-3.2512,-2.5486,0.0,0.0,0.0,0.0,0.0,0.0,0.0,0.0,0.0,0.0,0.0,0.0,0.0,0.0,0.0,0.0,0.0,0.0,0.0,0.0,0.0,0.0,0.0,0.0,0.0,0.0,0.0,0.0,-2.6333,-2.8218,-2.9385,-3.0148,-3.0492,-3.1152,-3.1511,-3.1511,-3.1511,-3.1511,-3.1511,-3.1511,-3.2183,-3.3499,-3.3499,-3.4233,-3.5504,-3.5504,-3.5504,-3.5504,-3.5504,-3.5504,-3.5504,-3.5504,-3.5504,-3.5504,-3.5504,-3.5504,-3.5504,-3.5504,-3.5504,-3.5504,-3.5504,-3.5504,-3.5504,-3.5504,-3.5504,-3.5504,-3.5504,-3.5504,-3.5504,-3.5504,-3.5504,-3.5636,-3.6165,-3.6306,-3.6306,-3.6306,-3.6306,-3.6134,-3.5619,-3.5504,-3.5504,-3.5504,-3.5504,-3.5504,-3.5504,-3.5504,-3.5504,-3.5504,-3.5504,-3.5504,-3.5504,-3.5504,-3.5504,-3.5504,-3.5504,-3.5504,-3.5504,-3.5504,-3.5504,-3.5504,-3.5504,-3.5504,-3.5504,-3.5504,-3.5504,-3.5504,-3.5504,-3.5504,-3.5474,-3.3814,-3.2961,0.0,0.0,0.0,-2.3402,0.0,0.0,0.0,0.0,-1.8643,0.0,0.0,0.0,0.0,0.0,0.0,0.0,0.0,0.0,0.0,0.0,0.0,0.0,0.0,0.0,0.0,0.0,0.0,0.0,0.0,0.0,-2.745,-2.8278,-2.9235,-3.0462,-3.1152,-3.1511,-3.1511,-3.1511,-3.1511,-3.1511,-3.1511,-3.2183,-3.3499,-3.3499,-3.4233,-3.5504,-3.5504,-3.5504,-3.5504,-3.5504,-3.5504,-3.5504,-3.5504,-3.5504,-3.5504,-3.5504,-3.5504,-3.5504,-3.5504,-3.5504,-3.5504,-3.5504,-3.5504,-3.5504,-3.5504,-3.5504,-3.5504,-3.5504,-3.5504,-3.5504,-3.5504,-3.5504,-3.5504,-3.5537,-3.5537,-3.5537,-3.5537,-3.5537,-3.5537,-3.5504,-3.5504,-3.5504,-3.5504,-3.5504,-3.5504,-3.5504,-3.5504,-3.5504,-3.5504,-3.5504,-3.5504,-3.5504,-3.5504,-3.5504,-3.5504,-3.5504,-3.5504,-3.5504,-3.5504,-3.5504,-3.5504,-3.5504,-3.5504,-3.5504,-3.5504,-3.5504,-3.5504,-3.5504,-3.5504,-3.5489,-3.4756,-3.4099,0.0,0.0,-2.6843,-2.4645,0.0,0.0,0.0,0.0,0.0,0.0,0.0,0.0,0.0,0.0,0.0,0.0,0.0,0.0,0.0,0.0,0.0,0.0,0.0,0.0,0.0,0.0,0.0,0.0,-2.2682,0.0,0.0,-2.7081,-2.8349,-2.922,-3.0298,-3.1047,-3.1511,-3.1511,-3.1511,-3.1511,-3.1944,-3.2647,-3.3514,-3.3948,-3.4637,-3.5504,-3.5504,-3.5504,-3.5504,-3.5504,-3.5504,-3.5504,-3.5504,-3.5504,-3.5504,-3.5504,-3.5504,-3.5504,-3.5504,-3.5504,-3.5504,-3.5504,-3.5504,-3.5504,-3.5504,-3.5504,-3.5504,-3.5504,-3.5504,-3.5504,-3.5504,-3.5504,-3.5504,-3.5504,-3.5504,-3.5504,-3.5504,-3.5504,-3.5504,-3.5504,-3.5504,-3.5504,-3.5504,-3.5504,-3.5504,-3.5504,-3.5504,-3.5504,-3.5504,-3.5504,-3.5504,-3.5504,-3.5504,-3.5504,-3.5504,-3.5504,-3.5504,-3.5504,-3.5504,-3.5504,-3.5504,-3.5504,-3.5504,-3.5504,-3.5504,-3.5504,-3.5504,-3.5504,-3.5504,-3.5504,-3.5265,-3.4562,-2.9638,-2.8928,0.0,-2.5651,-2.4181,0.0,-1.9725,0.0,0.0,0.0,0.0,0.0,0.0,0.0,0.0,0.0,0.0,0.0,0.0,0.0,0.0,0.0,0.0,0.0,0.0,0.0,-2.0378,-2.1276,-2.1739,0.0,0.0,0.0,-2.7675,-2.8562,-2.9834,-3.0808,-3.1496,-3.1511,-3.1511,-3.1511,-3.2168,-3.2856,-3.3514,-3.4173,-3.4861,-3.5504,-3.5504,-3.5504,-3.5504,-3.5504,-3.5504,-3.5504,-3.5504,-3.5504,-3.5504,-3.5504,-3.5504,-3.5504,-3.5504,-3.5504,-3.5504,-3.5504,-3.5504,-3.5504,-3.5504,-3.5504,-3.5504,-3.5504,-3.5504,-3.5504,-3.5504,-3.5504,-3.5504,-3.5504,-3.5504,-3.5504,-3.5504,-3.5504,-3.5504,-3.5504,-3.5504,-3.5504,-3.5504,-3.5504,-3.5504,-3.5504,-3.5504,-3.5504,-3.5504,-3.5504,-3.5504,-3.5504,-3.5504,-3.5504,-3.5504,-3.5504,-3.5504,-3.5504,-3.5504,-3.5504,-3.5504,-3.5504,-3.5504,-3.5504,-3.5504,-3.5504,-3.5504,-3.5504,-3.5504,-3.5504,-3.5504,-3.4906]},{"header":{"parameterUnit":"m.s-1","parameterCategory":1,"la1":30.6,"la2":29.2853,"lo1":-89.7004,"lo2":-87.6739,"dy":0.0162,"dx":0.0183,"nx":112,"ny":82,"refTime":"2026-04-13T12:00:00:Z","depth":0,"parameterNumber":3,"parameterNumberName":"V-component_of_WINDS"},"data":[0.0,0.0,0.0,0.0,0.0,0.0,0.0,0.0,0.0,0.0,0.0,0.0,0.0,0.0,0.0,0.0,0.0,0.0,0.0,0.0,0.0,0.0,0.0,0.0,0.0,0.0,0.0,0.0,0.0,0.0,0.0,0.0,0.0,0.0,0.0,0.0,0.0,0.0,0.0,0.0,0.0,0.0,0.0,0.0,0.0,0.0,0.0,0.0,0.0,0.0,0.0,0.0,0.0,0.0,0.0,0.0,0.0,0.0,0.0,0.0,0.0,0.0,0.0,0.0,0.0,0.0,0.0,0.0,0.0,0.0,0.0,0.0,0.0,0.0,0.0,0.0,0.0,0.0,0.0,0.0,0.0,0.0,0.0,0.0,0.0,0.0,0.0,0.0,0.0,0.0,0.3861,0.4855,0.6191,0.7306,0.8045,0.7981,0.7818,0.7586,0.0,0.0,0.0,0.0,0.0,0.0,0.0,0.0,0.0,0.0,0.0,0.0,0.0,0.0,0.0,0.0,0.0,0.0,0.0,0.0,0.0,0.0,0.0,0.0,0.0,0.0,0.0,0.0,0.0,0.0,0.0,0.0,0.0,0.0,0.0,0.0,0.0,0.0,0.0,0.0,0.0,0.0,0.0,0.0,0.0,0.0,0.0,0.0,0.0,0.0,0.0,0.0,0.0,0.0,0.0,0.0,0.0,0.0,0.0,0.0,0.0,0.0,0.0,0.0,0.0,0.0,0.0,0.0,0.0,0.0,0.0,0.0,0.0,0.0,0.0,0.0,0.0,0.0,0.0,0.0,0.0,0.0,0.0,0.0,0.0,0.0,0.0,0.0,0.0,0.0,0.0,0.0,0.0,0.0,0.0,0.0,0.0,0.0,0.0,0.0,0.0,0.0,0.0,0.0,0.4854,0.6459,0.6857,0.7432,0.85,0.7927,0.7738,0.8291,0.0,0.0,0.0,0.0,0.0,0.0,0.0,0.0,0.0,0.0,0.0,0.0,0.0,0.0,0.0,0.0,0.0,0.0,0.0,0.0,0.0,0.0,0.0,0.0,0.0,0.0,0.0,0.0,0.0,0.0,0.0,0.0,0.0,0.0,0.0,0.0,0.0,0.0,0.0,0.0,0.0,0.0,0.0,0.0,0.0,0.0,0.0,0.0,0.0,0.0,0.0,0.0,0.0,0.0,0.0,0.0,0.0,0.0,0.0,0.0,0.0,0.0,0.0,0.0,0.0,0.0,0.0,0.0,0.0,0.0,0.0,0.0,0.0,0.0,0.0,0.0,0.0,0.0,0.0,0.0,0.0,0.0,0.0,0.0,0.0,0.0,0.0,0.0,0.0,0.0,0.0,0.0,0.0,0.0,0.0,0.0,0.0,0.0,0.0,0.0,0.0,0.0,0.0,0.4339,0.5517,0.6865,0.7168,0.766,0.861,0.8092,0.7887,0.8253,0.7869,0.0,0.0,0.0,0.0,0.0,0.0,0.0,0.0,0.0,0.0,0.0,0.0,0.0,0.0,0.0,0.0,0.0,0.0,0.0,0.0,0.0,0.0,0.0,0.0,0.0,0.0,0.0,0.0,0.0,0.0,0.0,0.0,0.0,0.0,0.0,0.0,0.0,0.0,0.0,0.0,0.0,0.0,0.0,0.0,0.0,0.0,0.0,0.0,0.0,0.0,0.0,0.0,0.0,0.0,0.0,0.0,0.0,0.0,0.0,0.0,0.0,0.0,0.0,0.0,0.0,0.0,0.0,0.0,0.0,0.0,0.0,0.0,0.0,0.0,0.0,0.0,0.0,0.0,0.0,0.0,0.0,0.0,0.0,0.0,0.0,0.0,0.0,0.0,0.0,0.0,0.0,0.0,0.0,0.0,0.0,0.0,0.0,0.0,0.0,0.0,0.0,0.0,0.523,0.6073,0.7011,0.735,0.7852,0.872,0.8114,0.7835,0.8181,0.7749,0.0,0.0,0.0,0.0,0.0,0.0,0.0,0.0,0.0,0.0,0.0,0.0,0.0,0.0,0.0,0.0,0.0,0.0,0.0,0.0,0.0,0.0,0.0,0.0,0.0,0.0,0.0,0.0,0.0,0.0,0.0,0.0,0.0,0.0,0.0,0.0,0.0,0.0,0.0,0.0,0.0,0.0,0.0,0.0,0.0,0.0,0.0,0.0,0.0,0.0,0.0,0.0,0.0,0.0,0.0,0.0,0.0,0.0,0.0,0.0,0.0,0.0,0.0,0.0,0.0,0.0,0.0,0.0,0.0,0.0,0.0,0.0,0.0,0.0,0.0,0.0,0.0,0.0,0.0,0.0,0.0,0.0,0.0,0.0,0.0,0.0,0.0,0.0,0.0,0.0,0.0,0.0,0.0,0.0,0.0,0.0,0.0,0.0,0.0,0.0,0.0,0.0,0.5541,0.6633,0.7379,0.7477,0.7915,0.8977,0.7677,0.7271,0.8393,0.7294,0.0,0.0,0.0,0.0,0.0,0.0,0.0,0.0,0.0,0.0,0.0,0.0,0.0,0.0,0.0,0.0,0.0,0.0,0.0,0.0,0.0,0.0,0.0,0.0,0.0,0.0,0.0,0.0,0.0,0.0,0.0,0.0,0.0,0.0,0.0,0.0,0.0,0.0,0.0,0.0,0.0,0.0,0.0,0.0,0.0,0.0,0.0,0.0,0.0,0.0,0.0,0.0,0.0,0.0,0.0,0.0,0.0,0.0,0.0,0.0,0.0,0.0,0.0,0.0,0.0,0.0,0.0,0.0,0.0,0.0,0.0,0.0,0.0,0.0,0.0,0.0,0.0,0.0,0.0,0.0,0.0,0.0,0.0,0.0,0.0,0.0,0.0,0.0,0.0,0.0,0.0,0.0,0.0,0.0,0.0,0.0,0.0,0.0,0.0,0.0,0.0,0.0,0.5794,0.6963,0.0,0.7642,0.8127,0.9012,0.8132,0.7714,0.8214,0.0,0.0,0.0,0.0,0.0,0.0,0.0,0.0,0.0,0.0,0.0,0.0,0.0,0.0,0.0,0.0,0.0,0.0,0.0,0.0,0.0,0.0,0.0,0.0,0.0,0.0,0.0,0.0,0.0,0.0,0.0,0.0,0.0,0.0,0.0,0.0,0.0,0.0,0.0,0.0,0.0,0.0,0.0,0.0,0.0,0.0,0.0,0.0,0.0,0.0,0.0,0.0,0.0,0.0,0.0,0.0,0.0,0.0,0.0,0.0,0.0,0.0,0.0,0.0,0.0,0.0,0.0,0.0,0.0,0.0,0.0,0.0,0.0,0.0,0.0,0.0,0.0,0.0,0.0,0.0,0.0,0.0,0.0,0.0,0.0,0.0,0.0,0.0,0.0,0.0,0.0,0.0,0.0,0.0,0.0,0.0,0.0,0.0,0.0,0.0,0.0,0.0,0.4363,0.6084,0.7348,0.0,0.7742,0.8145,0.8788,0.8082,0.7689,0.7924,0.0,0.0,0.0,0.0,0.0,0.0,0.0,0.0,0.0,0.0,0.0,0.0,0.0,0.0,0.0,0.0,0.0,0.0,0.0,0.0,0.0,0.0,0.0,0.0,0.0,0.0,0.0,0.0,0.0,0.0,0.0,0.0,0.0,0.0,0.0,0.0,0.0,0.0,0.0,0.0,0.0,0.0,0.0,0.0,0.0,0.0,0.0,0.0,0.0,0.0,0.0,0.0,0.0,0.0,0.0,0.0,0.0,0.0,0.0,0.0,0.0,0.0,0.0,0.0,0.0,0.0,0.0,0.0,0.0,0.0,0.0,0.0,0.0,0.0,0.0,0.0,0.0,0.0,0.0,0.0,0.0,0.0,0.0,0.0,0.0,0.0,0.0,0.0,0.0,0.0,0.0,0.0,0.0,0.0,0.0,0.0,0.0,0.0,0.0,0.0,0.0,0.0,0.444,0.6445,0.7786,0.7517,0.7742,0.8006,0.8276,0.7318,0.6963,0.0,0.0,0.0,0.0,0.0,0.0,0.0,0.0,0.0,0.0,0.0,0.0,0.0,0.0,0.0,0.0,0.0,0.0,0.0,0.0,0.0,0.0,0.0,0.0,0.0,0.0,0.0,0.0,0.0,0.0,0.0,0.0,0.0,0.0,0.0,0.0,0.0,0.0,0.0,0.0,0.0,0.0,0.0,0.0,0.0,0.0,0.0,0.0,0.0,0.0,0.0,0.0,0.0,0.0,0.0,0.0,0.0,0.0,0.0,0.0,0.0,0.0,0.0,0.0,0.0,0.0,0.0,0.0,0.0,0.0,0.0,0.0,0.0,0.0,0.0,0.0,0.0,0.0,0.0,0.0,0.0,0.0,0.0,0.0,0.0,0.0,0.0,0.0,0.0,0.0,0.0,0.0,0.0,0.0,0.0,0.0,0.0,0.0,0.0,0.0,0.0,0.0,0.0,0.4702,0.6408,0.7591,0.7497,0.7571,0.7795,0.8253,0.7625,0.7248,0.7383,0.0,0.0,0.0,0.0,0.0,0.0,0.0,0.0,0.0,0.0,0.0,0.0,0.0,0.0,0.0,0.0,0.0,0.0,0.0,0.0,0.0,0.0,0.0,0.0,0.0,0.0,0.0,0.0,0.0,0.0,0.0,0.0,0.0,0.0,0.0,0.0,0.0,0.0,0.0,0.0,0.0,0.0,0.0,0.0,0.0,0.0,0.0,0.0,0.0,0.0,0.0,0.0,0.0,0.0,0.0,0.0,0.0,0.0,0.0,0.0,0.0,0.0,0.0,0.0,0.0,0.0,0.0,0.0,0.0,0.0,0.0,0.0,0.0,0.0,0.0,0.0,0.0,0.0,0.0,0.0,0.0,0.0,0.0,0.0,0.0,0.0,0.0,0.0,0.0,0.0,0.0,0.0,0.0,0.0,0.0,0.0,0.0,0.0,0.0,0.0,0.0,0.0,0.4814,0.637,0.7444,0.7323,0.7417,0.757,0.7759,0.7509,0.7229,0.6993,0.0,0.0,0.0,0.0,0.0,0.0,0.0,0.0,0.0,0.0,0.0,0.0,0.0,0.0,0.0,0.0,0.0,0.0,0.0,0.0,0.0,0.0,0.0,0.0,0.0,0.0,0.0,0.0,0.0,0.0,0.0,0.0,0.0,0.0,0.0,0.0,0.0,0.0,0.0,0.0,0.0,0.0,0.0,0.0,0.0,0.0,0.0,0.0,0.0,0.0,0.0,0.0,0.0,0.0,0.0,0.0,0.0,0.0,0.0,0.0,0.0,0.0,0.0,0.0,0.0,0.0,0.0,0.0,0.0,0.0,0.0,0.0,0.0,0.0,0.0,0.0,0.0,0.0,0.0,0.0,0.0,0.0,0.0,0.0,0.0,0.0,0.0,0.0,0.0,0.0,0.0,0.0,0.0,0.0,0.0,0.0,0.0,0.0,0.0,0.0,0.0,0.0,0.4914,0.6383,0.7343,0.7033,0.7261,0.7337,0.702,0.7123,0.6991,0.6495,0.0,0.0,0.0,0.0,0.0,0.0,0.0,0.0,0.0,0.0,0.0,0.0,0.0,0.0,0.0,0.0,0.0,0.0,0.0,0.0,0.0,0.0,0.0,0.0,0.0,0.0,0.0,0.0,0.0,0.0,0.0,0.0,0.0,0.0,0.0,0.0,0.0,0.0,0.0,0.0,0.0,0.0,0.0,0.0,0.0,0.0,0.0,0.0,0.0,0.0,0.0,0.0,0.0,0.0,0.0,0.0,0.0,0.0,0.0,0.0,0.6974,0.0,0.0,0.0,0.0,0.0,0.0,0.0,0.0,0.0,0.0,0.0,0.0,0.0,0.0,0.0,0.0,0.0,0.0,0.0,0.0,0.0,0.0,0.0,0.0,0.0,0.0,0.0,0.0,0.0,0.0,0.0,0.0,0.0,0.0,0.0,0.0,0.0,0.0,0.0,0.0,0.0,0.5484,0.6435,0.7073,0.7006,0.7053,0.7073,0.7006,0.7123,0.6903,0.6225,0.6451,0.0,0.0,0.0,0.0,0.0,0.0,0.0,0.0,0.0,0.0,0.0,0.0,0.0,0.0,0.0,0.0,0.0,0.0,0.0,0.0,0.0,0.0,0.0,0.0,0.0,0.0,0.0,0.0,0.0,0.0,0.0,0.0,0.0,0.0,0.0,0.0,0.0,0.0,0.0,0.0,0.0,0.0,0.0,0.0,0.0,0.0,0.0,0.0,0.0,0.0,0.0,0.0,0.0,0.0,0.0,0.0,0.0,0.0,0.0,0.0,0.7749,0.0,0.0,0.0,0.0,0.0,0.0,0.0,0.0,0.0,0.0,0.0,0.0,0.0,0.0,0.0,0.0,0.0,0.0,0.0,0.0,0.0,0.0,0.0,0.0,0.0,0.0,0.0,0.0,0.0,0.0,0.0,0.0,0.0,0.0,0.0,0.0,0.0,0.0,0.0,0.0,0.5661,0.646,0.7,0.7,0.7,0.7,0.7,0.7059,0.6884,0.6371,0.6354,0.0,0.0,0.0,0.0,0.0,0.0,0.0,0.0,0.0,0.0,0.0,0.0,0.0,0.0,0.0,0.0,0.0,0.0,0.0,0.0,0.0,0.0,0.0,0.0,0.0,0.0,0.0,0.0,0.0,0.0,0.0,0.0,0.0,0.0,0.0,0.0,0.0,0.0,0.0,0.0,0.0,0.0,0.0,0.0,0.0,0.0,0.0,0.0,0.0,0.0,0.0,0.0,0.0,1.0754,1.1022,1.1223,1.1223,1.1349,1.1449,0.9793,0.9105,0.9138,0.8472,0.0,0.0,0.0,0.0,0.0,0.0,0.0,0.0,0.0,0.0,0.0,0.0,0.0,0.0,0.0,0.0,0.0,0.0,0.0,0.0,0.0,0.0,0.0,0.0,0.7595,0.7504,0.0,0.0,0.0,0.0,0.0,0.0,0.0,0.0,0.0,0.0,0.0,0.0,0.5825,0.652,0.7,0.7,0.7,0.7,0.7,0.7,0.6895,0.6626,0.6346,0.6191,0.0,0.0,0.0,0.0,0.0,0.0,0.0,0.0,0.0,0.0,0.0,0.0,0.0,0.0,0.0,0.0,0.0,0.0,0.0,0.0,0.0,0.0,0.0,0.0,0.0,0.0,0.0,0.0,0.0,0.0,0.0,0.0,0.6117,0.67,0.0,0.0,0.0,0.0,0.0,0.0,0.0,0.0,0.0,0.0,0.0,0.0,0.0,1.0047,1.0641,1.1223,1.1558,1.1678,1.1931,1.2091,1.2131,1.2131,1.2151,1.2171,1.1904,0.0,1.0641,0.98,0.0,0.0,0.0,0.0,0.0,0.0,0.0,0.0,0.0,0.0,0.0,0.0,0.0,0.0,0.0,0.0,0.0,0.0,0.0,0.0,0.0,0.0,0.8924,0.8924,0.8951,0.8798,0.0,0.7263,0.6445,0.6088,0.5772,0.0,0.0,0.0,0.0,0.0,0.0,0.0,0.6406,0.6794,0.7,0.7,0.7,0.7,0.7,0.7,0.688,0.6605,0.6563,0.6304,0.5806,0.564,0.0,0.0,0.0,0.0,0.0,0.0,0.0,0.0,0.0,0.0,0.0,0.0,0.0,0.0,0.0,0.0,0.0,0.0,0.0,0.0,0.0,0.0,0.0,0.0,0.0,0.0,0.0,0.0,0.0,0.6171,0.7029,0.7263,0.7315,0.7275,0.0,0.0,0.0,0.0,0.0,0.0,0.0,0.0,0.0,1.0177,1.0795,1.1383,1.2007,1.2405,1.2786,1.3159,1.3407,1.3547,1.3547,1.3547,1.3547,1.3534,1.32,1.2801,1.2385,1.1162,1.0321,0.9775,0.0,0.0,0.0,0.0,0.9131,0.9198,0.9686,0.976,0.0,0.9078,0.0,0.0,0.0,0.0,0.0,0.0,0.0,0.0,0.0,0.0,0.0,0.9486,0.9486,0.9372,0.8951,0.8425,0.7842,0.0,0.6807,0.6406,0.5468,0.0,0.0,0.0,0.0,0.6359,0.678,0.692,0.7,0.7,0.7,0.7,0.7,0.7,0.6946,0.684,0.669,0.6591,0.6542,0.5999,0.5593,0.0,0.0,0.0,0.0,0.0,0.0,0.0,0.0,0.0,0.0,0.0,0.0,0.0,0.0,0.0,0.0,0.0,0.0,0.0,0.0,0.0,0.0,0.0,0.0,0.0,0.0,0.0,0.0,0.7081,0.7919,0.7839,0.8143,0.823,0.0,0.0,0.0,0.0,0.0,0.0,1.0244,1.076,1.1209,1.155,1.2167,1.2717,1.3233,1.3507,1.3881,1.4315,1.4529,1.4636,1.4636,1.4636,1.4636,1.4609,1.4168,1.3939,1.382,1.2378,1.1463,1.1008,1.0681,1.0388,1.0167,1.0454,1.0568,1.0628,1.1062,1.1169,1.0995,1.0341,0.0,0.9789,0.8958,0.0,0.0,0.0,0.0,0.9305,0.9497,0.9746,0.9916,0.9813,0.9793,0.9713,0.9391,0.9324,0.8998,0.0,0.7718,0.739,0.6339,0.0,0.0,0.0,0.0,0.6914,0.7108,0.7134,0.7086,0.7006,0.7,0.7,0.7,0.7,0.7,0.7,0.682,0.68,0.7044,0.6264,0.584,0.585,0.0,0.0,0.0,0.0,0.0,0.0,0.0,0.0,0.0,0.0,0.0,0.0,0.0,0.0,0.0,0.0,0.0,0.0,0.0,0.0,0.0,0.0,0.0,0.0,0.0,0.0,0.0,0.0,0.0,0.8771,0.9245,0.0,0.0,0.0,0.0,0.9957,1.0555,1.1136,1.1765,1.2051,1.2485,1.308,1.3667,1.4122,1.4429,1.4723,1.4934,1.4961,1.4981,1.4988,1.4988,1.4988,1.4988,1.4988,1.4955,1.4941,1.4827,1.3333,1.2536,1.2184,1.1933,1.1603,1.1342,1.1705,1.1819,1.1819,1.1852,1.1643,1.1362,1.1322,1.0962,1.0586,1.0807,1.0448,0.0,0.0,1.0492,1.0506,1.0526,1.0539,1.0479,1.016,1.0094,1.0013,0.9726,0.9659,0.9427,0.0,0.8355,0.8154,0.7511,0.0,0.7417,0.7426,0.7424,0.7473,0.7464,0.7464,0.7357,0.7033,0.7,0.7,0.7,0.7,0.7,0.7,0.6986,0.6874,0.6639,0.6336,0.603,0.5711,0.5345,0.0,0.0,0.0,0.0,0.0,0.0,0.0,0.0,0.0,0.0,0.0,0.0,0.0,0.0,0.0,0.0,0.0,0.0,0.0,0.0,0.0,0.0,0.0,0.0,0.0,0.0,0.0,0.0,0.993,1.0448,0.0,1.0483,1.0681,1.0929,1.1223,1.1826,1.2335,1.2712,1.3367,1.3828,1.4048,1.4442,1.479,1.5084,1.519,1.5337,1.5518,1.5518,1.5518,1.5518,1.5518,1.5418,1.5244,1.5244,1.5182,1.4968,1.4439,1.3929,1.342,1.3126,1.2832,1.2585,1.2692,1.2732,1.2732,1.2732,1.2665,1.2474,1.2118,1.1724,1.1417,1.1296,1.1122,1.0949,1.1089,1.1116,1.1116,1.1116,1.1116,1.1042,1.0748,1.0681,1.0548,1.0067,0.996,0.9813,0.934,0.9065,0.8658,0.7903,0.8083,0.8203,0.7822,0.7953,0.8074,0.8074,0.7732,0.745,0.7343,0.7134,0.7,0.7,0.7,0.7,0.7,0.7,0.6873,0.662,0.635,0.5966,0.5458,0.5276,0.4882,0.0,0.0,0.0,0.0,0.0,0.0,0.0,0.0,0.0,0.0,0.0,0.0,0.0,0.0,0.0,0.0,0.0,0.0,0.0,0.0,0.0,0.0,0.0,0.0,0.0,0.0,1.0381,1.0707,1.1396,1.183,1.1695,1.1904,1.2191,1.263,1.3112,1.3521,1.3781,1.4442,1.4816,1.4816,1.5104,1.5351,1.5538,1.5538,1.5638,1.5784,1.5784,1.5784,1.5784,1.5784,1.5678,1.5538,1.5538,1.5431,1.5257,1.5257,1.497,1.4496,1.4202,1.3908,1.3654,1.3654,1.3587,1.3494,1.3353,1.3293,1.3146,1.2739,1.2478,1.2285,1.2084,1.1957,1.187,1.187,1.1797,1.1662,1.1603,1.1577,1.1503,1.1209,1.1062,1.0889,1.0494,1.0334,1.018,0.9886,0.9593,0.9144,0.8465,0.8671,0.8758,0.8272,0.839,0.8509,0.8409,0.8047,0.7718,0.7533,0.7381,0.7259,0.7181,0.7168,0.7168,0.7168,0.7053,0.6913,0.6747,0.6398,0.6008,0.5618,0.5207,0.48,0.4401,0.0,0.0,0.0,0.0,0.0,0.0,0.0,0.0,0.0,0.0,0.0,0.0,0.0,0.0,0.0,0.0,0.0,0.0,0.0,0.0,0.0,0.0,0.0,0.8884,1.033,1.1315,1.1102,1.2127,1.2717,1.2412,1.2919,1.35,1.4075,1.4382,1.4676,1.5008,1.5251,1.5411,1.5411,1.5678,1.5784,1.5784,1.5784,1.5784,1.5784,1.5784,1.5784,1.5784,1.5784,1.5784,1.5784,1.5784,1.5784,1.5784,1.5784,1.5665,1.5384,1.5135,1.4796,1.4536,1.4536,1.4349,1.4055,1.372,1.3433,1.324,1.3227,1.3227,1.322,1.3213,1.3038,1.2797,1.279,1.2576,1.2245,1.1993,1.1919,1.1839,1.1475,1.1223,1.1015,1.0995,1.0807,1.0519,1.0187,0.9907,0.9613,0.9277,0.9217,0.9118,0.8864,0.8811,0.0,0.8449,0.8409,0.8174,0.76,0.7756,0.7786,0.7531,0.7504,0.7497,0.7513,0.7194,0.7006,0.6986,0.6492,0.6196,0.6176,0.516,0.4556,0.4408,0.0,0.0,0.0,0.0,0.0,0.0,0.0,0.0,0.0,0.0,0.0,0.0,0.0,0.0,0.0,0.0,0.0,0.0,0.0,0.0,0.0,0.9927,1.0461,1.0643,1.1309,1.2037,1.2787,1.3394,1.3896,1.4238,1.4425,1.4593,1.4754,1.499,1.519,1.5277,1.5551,1.5712,1.5712,1.5738,1.5784,1.5784,1.5784,1.5784,1.5784,1.5784,1.5784,1.5784,1.5784,1.5784,1.5784,1.5784,1.5784,1.5784,1.5784,1.5785,1.5678,1.5391,1.5097,1.4843,1.4843,1.4656,1.4362,1.4068,1.3915,1.3808,1.3553,1.3487,1.3447,1.3273,1.3153,1.3033,1.2851,1.2723,1.2589,1.2258,1.2184,1.2111,1.1817,1.1718,1.1544,1.1082,1.0929,1.0821,1.0526,1.0405,1.0191,0.9653,0.9357,0.9184,0.9104,0.8911,0.0,0.8697,0.8529,0.8335,0.8167,0.8009,0.7872,0.7786,0.7779,0.7702,0.7504,0.741,0.7176,0.6727,0.6579,0.6291,0.5845,0.5358,0.4963,0.0,0.0,0.0,0.0,0.0,0.0,0.0,0.0,0.0,0.0,0.0,0.0,0.0,0.0,0.0,0.0,0.0,0.0,0.0,0.0,0.0,0.0,1.0942,1.1637,1.2432,1.2585,1.2919,1.3693,1.4202,1.4636,1.5097,1.5189,1.5197,1.5317,1.5484,1.5578,1.5578,1.5738,1.5784,1.5784,1.5784,1.5784,1.5784,1.5784,1.5784,1.5784,1.5784,1.5784,1.5784,1.5784,1.5784,0.0,1.5784,1.5784,1.5784,1.5784,1.5784,0.0,0.0,0.0,0.0,0.0,1.4901,1.4663,1.4369,1.4269,1.4222,1.3921,1.3828,1.3801,1.3627,1.3494,1.3353,1.3173,1.2978,1.2744,1.2569,1.2398,1.2258,1.2091,1.1993,1.1812,1.1436,1.1169,1.0942,1.0807,1.0673,0.0,1.0144,0.9806,0.9497,0.9251,0.9071,0.8918,0.8824,0.8657,0.8536,0.8415,0.833,0.8225,0.813,0.8116,0.0,0.0,0.0,0.7223,0.6633,0.6606,0.0,0.0,0.0,0.0,0.0,0.0,0.0,0.0,0.4429,0.4469,0.0,0.0,0.0,0.0,0.0,0.0,0.0,0.0,0.0,0.0,0.0,0.0,0.0,0.0,0.0,0.0,1.183,1.2552,1.3941,1.3968,1.39,1.4202,1.474,1.5169,1.5418,1.5444,1.5551,1.5764,1.5784,1.5784,1.5784,0.0,0.0,0.0,0.0,1.5784,1.5784,1.5784,1.5784,1.5784,1.5784,1.5784,1.5784,1.5784,1.5784,1.5784,1.5784,1.5784,1.5784,1.5784,1.5784,1.5784,1.5784,1.5671,1.5411,1.5117,1.5062,1.5015,1.4669,0.0,0.0,1.4222,1.4115,1.4088,1.4088,1.3901,1.3646,1.3613,1.326,1.2871,1.2804,1.2589,1.2345,1.2311,1.2104,1.1946,1.1913,1.1497,1.1076,1.1009,1.0814,1.0633,1.06,1.0314,0.991,0.9391,0.9257,0.9118,0.8865,0.8831,0.8711,0.8476,0.0,0.0,0.8469,0.8449,0.8435,0.8402,0.7859,0.731,0.676,0.674,0.6626,0.635,0.631,0.629,0.629,0.6256,0.6256,0.627,0.5384,0.5248,0.0,0.0,0.0,0.0,0.0,0.0,0.0,0.0,0.0,0.0,0.0,0.0,0.0,0.0,0.0,1.1964,1.2754,1.3527,1.4329,1.4796,1.5077,1.5137,1.5244,1.5424,1.5718,1.5698,1.5718,1.5778,1.5784,1.5784,1.5784,1.5784,1.5784,1.5784,1.5784,1.5784,1.5784,1.5784,1.5784,1.5784,0.0,0.0,1.5784,1.5784,1.5784,1.5784,1.5784,1.5784,1.5784,1.5784,1.5784,1.5784,1.5784,1.5792,1.5712,1.5418,1.5311,1.5271,1.4977,1.4723,1.4509,1.4456,1.4282,1.4088,1.4088,1.4048,0.0,1.3666,1.352,1.336,1.2911,1.2737,1.2636,1.2358,1.2258,1.2151,1.1953,1.1819,1.1591,1.1082,1.0949,1.0835,1.0633,1.0314,1.0043,0.993,0.9517,0.9191,0.9138,0.8924,0.8784,0.8731,0.8778,0.8784,0.8731,0.8724,0.8624,0.8415,0.8043,0.7766,0.7652,0.7646,0.7528,0.7264,0.6981,0.6833,0.6854,0.662,0.6627,0.684,0.6218,0.6001,0.0,0.0,0.0,0.0,0.0,0.0,0.0,0.0,0.0,0.0,0.0,0.9936,1.0673,0.0,1.2194,1.3053,1.3694,1.4246,1.4877,1.5211,1.5398,1.5398,1.5524,1.5671,1.5764,1.5784,1.5784,1.5784,1.5784,1.5784,1.5784,1.5784,1.5784,1.5784,1.5784,1.5784,1.5784,1.5784,1.5784,1.5784,1.5784,1.5784,1.5784,1.5784,1.5784,1.5784,1.5784,1.5784,1.5784,1.5784,1.5784,1.5784,1.5784,1.5784,1.5764,1.5665,1.5611,1.5571,1.5284,1.5084,1.491,1.4616,1.4422,1.4282,1.4128,1.4088,1.4055,1.3908,1.372,1.35,1.3093,1.2904,1.271,1.2371,1.2305,1.2265,1.2118,1.2007,1.1772,1.1296,1.1096,1.0902,1.064,1.0795,1.0758,1.0194,0.9837,0.9544,0.9251,0.9084,0.8944,0.8824,0.8804,0.8804,0.8804,0.8671,0.8464,0.817,0.7862,0.7629,0.7459,0.7453,0.7379,0.7248,0.7073,0.7073,0.7241,0.7122,0.7181,0.7446,0.7042,0.6754,0.0,0.0,0.0,0.0,0.0,0.0,0.0,0.8751,0.9159,1.0043,1.0646,1.1256,1.2027,1.265,1.33,1.4041,1.4462,1.4856,1.5331,1.5444,1.5478,1.5478,1.5691,1.5784,1.5784,1.5784,1.5784,1.5784,1.5784,1.5784,1.5784,1.5784,1.5784,1.5784,1.5784,1.5784,1.5784,1.5784,1.5784,1.5784,1.5784,1.5784,1.5784,1.5784,1.5784,1.5784,1.5784,1.5784,1.5784,1.5784,1.5784,1.5784,1.5784,1.5784,1.5784,1.5784,1.5784,1.5751,1.5565,1.5444,1.5317,1.4843,1.4609,1.4476,1.4242,1.4128,1.4088,1.4088,1.3915,1.362,1.3367,1.3066,1.2797,1.2458,1.2345,1.2305,1.2305,1.2118,1.1864,1.157,1.1276,1.1048,1.0944,1.1418,1.1443,1.0356,1.0269,1.0068,0.9392,0.9251,0.9098,0.8838,0.8804,0.8804,0.8804,0.8597,0.8357,0.8092,0.7809,0.7558,0.7273,0.7206,0.718,0.718,0.712,0.7255,0.7578,0.7517,0.7618,0.7812,0.7605,0.7357,1.2968,1.1979,1.0612,1.003,0.9463,0.942,0.0,1.0862,1.0949,1.183,1.2308,1.2656,1.2993,1.354,1.4055,1.4409,1.4937,1.5317,1.5384,1.5618,1.5785,1.5785,1.5764,1.5784,1.5784,1.5784,1.5784,1.5784,1.5784,1.5784,1.5784,1.5784,1.5784,1.5784,1.5784,1.5784,1.5784,1.5784,1.5784,1.5784,1.5784,1.5784,1.5784,1.5784,1.5784,1.5784,1.5784,1.5784,1.5784,1.5784,1.5784,1.5784,1.5784,1.5784,1.5784,1.5784,1.5784,1.5778,1.5792,1.5611,1.5384,1.5317,1.4943,1.4466,1.4482,1.4295,1.4088,1.4088,1.4062,1.3968,1.3626,1.338,1.308,1.2811,1.2529,1.2305,1.2305,1.2278,1.2171,1.1913,1.1583,1.1512,1.1934,1.1896,1.1516,1.0665,1.0904,1.0798,0.9789,0.9377,0.9098,0.8838,0.8804,0.8804,0.8804,0.8778,0.8744,0.8711,0.8462,0.8281,0.8248,0.7945,0.7806,0.7806,0.7555,0.7591,0.7852,0.7625,0.7504,0.7538,0.7504,0.7471,1.3298,1.2408,1.1419,1.0792,1.0536,1.0683,1.1503,1.1717,1.1904,1.2489,1.2939,1.3307,1.34,1.4088,1.4636,0.0,1.5271,1.5651,1.5651,1.5605,1.5578,1.5578,1.5578,1.5645,1.5764,1.5784,1.5784,1.5784,1.5784,1.5784,1.5784,1.5784,1.5784,1.5784,1.5784,1.5784,1.5784,1.5784,1.5784,1.5784,1.5784,1.5784,1.5784,1.5784,1.5784,1.5784,1.5784,1.5784,1.5784,1.5784,1.5784,1.5784,1.5784,1.5784,1.5784,1.5784,1.5784,1.5784,1.5784,1.5752,1.5618,1.5451,1.5711,1.5999,1.5547,1.5852,1.6293,1.6053,1.5959,1.5875,1.5614,1.4813,1.4076,1.3791,1.2998,1.2445,1.2989,1.3091,1.3216,1.3479,1.3401,1.3276,1.3051,1.3342,1.324,1.2151,1.1783,1.1179,1.0086,0.9679,0.9319,0.8858,0.8804,0.8804,0.8804,0.8651,0.8557,0.8557,0.8283,0.8116,0.8116,0.7822,0.7662,0.7662,0.7361,0.7355,0.7662,0.7551,0.7584,0.7729,0.7571,0.7513,1.3037,1.2511,1.2195,1.1336,1.1456,1.187,1.2208,1.2465,1.2759,1.3092,1.3467,1.3746,1.3826,1.4409,1.4941,1.5102,1.5438,1.5738,1.5771,1.5578,1.5398,1.5398,1.5324,1.5391,1.5678,1.5785,1.5784,1.5784,1.5784,1.5784,1.5784,1.5784,1.5784,1.5784,1.5784,1.5784,1.5784,1.5784,1.5784,1.5784,1.5784,1.5784,1.5784,1.5784,1.5784,1.5784,1.5784,1.5784,1.5784,1.5784,1.5784,1.5784,1.5784,1.5784,1.5784,1.5784,1.5784,1.5784,1.5784,1.5784,1.5839,1.5997,1.6574,1.7154,1.6985,1.7443,1.7913,1.7606,1.7416,1.7195,1.6717,1.5992,1.525,1.4751,1.3962,1.3433,1.412,1.4196,1.4272,1.4747,1.4753,1.4555,1.4147,1.4528,1.455,1.3484,1.284,1.205,1.0926,1.0276,0.975,0.926,0.8957,0.8883,0.9061,0.874,0.8516,0.8516,0.8216,0.8025,0.8025,0.7756,0.7618,0.7618,0.7359,0.7359,0.7618,0.7618,0.7709,0.7899,0.7638,0.7513,1.2307,1.2435,1.2867,1.1702,1.2064,1.2824,1.31,1.3353,1.3646,1.3981,1.4062,1.4162,1.4442,1.4516,1.4723,1.5291,1.5398,1.5504,1.5744,1.5578,1.5398,1.5398,1.515,1.5135,0.0,1.5665,1.5784,1.5784,1.5784,1.5784,1.5784,1.5784,1.5784,1.5784,1.5784,1.5784,1.5784,1.5784,1.5784,1.5784,1.5784,1.5784,1.5784,1.5784,1.5784,1.5784,1.5784,1.5784,1.5784,1.5784,1.5784,1.5784,1.5784,1.5784,1.5784,1.5784,1.5784,1.5784,1.5784,1.5784,1.6015,1.721,1.7437,1.7424,1.8617,1.8526,1.8012,1.7996,1.7656,1.705,1.6011,1.6276,1.656,1.5499,1.5479,1.5711,1.5711,1.5447,1.5163,1.5182,1.4927,1.4833,1.518,1.5052,1.4735,1.4237,1.4145,1.3744,1.2668,1.1344,1.0423,1.0272,0.9393,0.9061,0.971,0.9178,0.8791,0.8791,0.8524,0.8382,0.8382,0.8076,0.7892,0.7892,0.7885,0.7885,0.7892,0.7892,0.7899,0.7899,0.7638,0.7513,1.3349,1.3218,1.3139,1.2702,1.2979,1.342,1.3721,1.3868,1.3908,1.3773,1.3753,1.372,1.3667,1.3968,1.4362,1.475,1.5144,1.5498,1.5744,1.5578,1.5324,1.5182,1.5197,0.0,0.0,0.0,0.0,1.5764,1.5784,1.5784,1.5784,1.5784,1.5784,1.5784,1.5784,1.5784,1.5784,1.5784,1.5784,1.5784,1.5784,1.5784,1.5784,1.5784,1.5784,1.5784,1.5784,1.5784,1.5784,1.5784,1.5784,1.5784,1.5784,1.6339,1.6943,1.6109,1.6339,1.6943,1.6109,1.5784,1.5872,1.6292,1.7502,1.876,1.8892,1.9712,2.037,1.9368,1.9255,1.9234,1.8181,1.7935,1.7881,1.7493,1.6792,1.6316,1.6637,1.6633,1.6643,1.6996,1.6968,1.6855,1.6717,1.6364,1.5849,1.5096,1.4094,1.3207,1.2668,1.218,1.1696,1.1148,1.0783,1.0388,0.9855,0.9588,0.9283,0.8831,0.8717,0.8664,0.8664,0.8377,0.8223,0.8223,0.8005,0.7905,0.7905,0.7905,0.7905,0.7905,0.7799,0.7776,1.4049,1.3769,1.347,1.3371,1.354,1.3854,1.4041,1.4288,1.4365,1.3979,1.4099,1.4041,1.3435,1.362,1.3974,1.4311,1.4683,1.5144,1.5698,1.5578,1.5331,1.5137,1.519,1.5211,0.0,0.0,0.0,1.5758,1.5784,1.5784,1.5784,1.5784,1.5784,1.5784,1.5784,1.5784,1.5784,1.5784,1.5784,1.5784,1.5784,1.5784,1.5784,1.5784,1.5784,1.5784,1.5784,1.5784,1.5784,1.5784,1.6062,1.648,1.648,1.7264,1.8226,1.7436,1.7623,1.8095,1.6386,1.6109,1.6574,1.6976,1.848,2.0172,2.0288,2.1155,2.1832,2.0374,2.0404,2.0476,1.8963,1.8906,1.916,1.8772,1.8139,1.7698,1.7925,1.7839,1.7757,1.7949,1.8008,1.7881,1.7461,1.6885,1.6299,1.5732,1.4632,1.3698,1.3227,1.3081,1.2834,1.2307,1.1792,1.1302,1.0811,1.0167,0.9614,0.9185,0.8929,0.8804,0.8804,0.8624,0.8556,0.8556,0.8343,0.8218,0.8218,0.8218,0.8218,0.8218,0.8112,0.809,1.4434,1.4126,1.3817,1.3662,1.3888,1.4124,1.4153,1.4632,1.4931,1.4499,1.4864,1.4919,1.3672,1.3476,1.3602,1.4055,1.4124,1.4509,1.5618,1.5591,1.5418,0.0,0.0,0.0,0.0,0.0,0.0,1.59,0.0,1.592,1.592,1.592,1.592,1.592,1.5832,1.5784,1.5784,1.5784,1.5784,1.5784,1.5784,1.5784,1.5784,1.5784,1.5784,1.5784,1.5784,1.5784,1.5832,1.5872,1.6622,1.7692,1.7785,1.8549,1.9579,1.9542,1.9542,1.926,1.6842,1.6803,1.7963,1.9131,2.0305,2.1525,2.2677,2.2755,2.2244,2.0985,2.0908,2.0716,1.8396,1.9223,2.0352,1.9323,1.9542,1.9824,1.9414,1.8975,1.851,1.8125,1.8027,1.7881,1.7461,1.6721,1.6144,1.6105,1.5703,1.5167,1.4362,1.4034,1.3825,1.3693,1.2478,1.1885,1.2455,1.0879,0.9855,0.9814,0.9159,0.8804,0.8804,0.8804,0.8804,0.8804,0.8804,0.8804,0.8804,0.8804,0.8804,0.8798,0.8549,0.8422,1.5767,1.5155,1.4313,1.4298,1.4188,1.4231,1.4726,1.47,1.4543,1.4369,1.4231,1.3876,1.3002,1.2961,1.331,1.4037,1.4302,0.0,1.5644,1.5718,0.0,1.5424,0.0,1.5551,1.5411,1.6462,0.0,0.0,1.7225,1.7225,1.7225,1.7225,1.7225,1.7225,1.6292,1.5784,1.5784,1.5784,1.5784,1.5784,1.5784,1.5784,1.5784,1.5784,1.5784,1.5784,1.5784,1.5784,1.5872,1.6803,1.7412,1.7785,1.8688,1.9761,2.0747,1.9852,2.0079,2.0621,1.9077,1.8764,1.9085,1.9405,2.0305,2.1337,2.1667,2.2119,2.2074,2.0062,2.0595,2.1129,1.8455,1.9439,2.0897,2.0322,2.0324,2.0283,1.9844,1.9424,1.8994,1.852,1.8223,1.7881,1.7461,1.723,1.6858,1.6193,1.5997,1.5722,1.5186,1.5013,1.4859,1.4524,1.4183,1.3559,1.2578,1.1634,1.0693,0.9855,0.9159,0.8804,0.8804,0.8804,0.8804,0.8804,0.8804,0.8804,0.8804,0.8804,0.8804,0.8804,0.8731,0.8697,1.7422,1.6827,1.6041,1.6041,1.5644,1.5246,1.5233,1.5083,1.4792,1.4197,1.4136,1.3874,1.2903,1.2798,1.3051,0.0,0.0,0.0,1.5498,1.5752,1.5718,0.0,1.6195,0.0,1.6429,1.7657,1.8503,0.0,1.8503,1.8503,1.8503,1.8503,1.8503,1.8503,1.7809,1.7436,1.7436,1.7436,1.7163,1.6622,1.6622,1.6339,1.5784,1.5784,1.5784,1.5832,0.0,1.6622,1.6716,1.8002,1.8818,1.936,2.0034,2.1033,2.2031,2.1311,2.1489,2.1987,2.1311,2.1087,2.0989,2.044,2.1123,2.2076,2.2076,2.2427,2.2289,1.9915,2.0306,2.0828,1.8557,1.9173,2.0443,2.0586,2.0605,2.0488,2.001,1.9727,1.9375,1.8724,1.8301,1.7939,1.7695,1.75,1.7217,1.675,1.6339,1.6007,1.5732,1.5527,1.5322,1.5088,1.4921,1.4452,1.3583,1.2529,1.1547,1.0609,1.0,0.9413,0.8831,0.9087,0.9113,0.8811,0.8804,0.8804,0.8804,0.8804,0.8804,0.8804,0.8804,0.8804,1.9002,1.862,1.8037,1.8037,1.7359,1.6497,1.5725,1.5591,1.5278,1.4093,1.4269,1.43,1.3186,1.2911,1.3052,1.3592,0.0,1.433,1.5445,1.5792,1.5967,1.6055,1.7037,1.7777,1.7917,1.9039,1.9716,1.9716,1.9898,1.9906,1.9761,1.9716,1.9679,1.9497,1.9497,1.9497,1.9497,1.9497,1.8948,1.7963,1.7963,1.7358,1.6285,1.6285,1.6285,1.6332,1.7451,0.0,1.8048,1.9222,2.035,2.1337,2.148,2.2173,2.3091,2.3091,2.3091,2.3091,2.3091,2.3091,2.2916,2.1889,2.2262,2.3091,2.3091,2.3091,2.2633,2.035,2.034,2.062,1.8971,1.9116,1.9892,2.0516,2.0644,2.0498,2.0078,1.9951,1.9658,1.8773,1.8305,1.8076,1.8018,1.7705,1.7451,1.7425,1.676,1.6222,1.6105,1.5684,1.541,1.541,1.5088,1.4844,1.4785,1.3493,1.2396,1.1761,1.1135,1.0327,0.9202,0.9523,0.9482,0.8936,0.8929,0.8929,0.8929,0.9035,0.9008,0.8929,0.8929,0.8883,1.9722,1.9083,1.8324,1.8324,1.7499,1.6624,1.6313,1.5716,1.4989,1.4204,1.3881,1.3649,1.3442,1.3332,1.3835,1.5429,1.5622,1.5861,1.6631,1.6766,1.695,0.0,1.7552,1.8095,1.9085,2.026,0.0,0.0,0.0,2.2041,2.1025,2.098,2.0522,1.9534,1.9497,1.9497,1.9497,1.9497,1.9405,1.9177,1.9177,1.9085,1.8848,1.8848,1.8848,1.8856,1.9085,0.0,1.9268,2.0477,2.1114,2.1391,2.2403,2.2906,2.3091,2.3091,2.3091,2.3091,2.3091,2.3091,2.3057,2.2862,2.2916,2.3091,2.3091,2.3091,2.2818,2.1391,2.1799,2.2292,2.0672,2.0856,2.1404,2.114,2.083,2.0586,2.0507,2.0166,1.9658,1.8773,1.8539,1.8383,1.8076,1.7949,1.7783,1.7432,1.7288,1.6917,1.6183,1.5684,1.541,1.541,1.5352,1.5156,1.4842,1.4045,1.3368,1.286,1.1589,1.0934,1.1019,0.9928,0.9416,0.9614,0.964,0.964,0.964,1.0192,1.0167,0.964,0.964,0.9342,2.0884,2.062,2.0232,2.0232,1.893,1.7497,1.6717,1.5713,1.4654,1.3685,1.332,1.3184,1.3184,1.3091,1.3473,1.4734,1.4964,1.5276,1.6004,1.6809,1.7403,1.7656,1.8818,1.9807,2.0395,2.1534,2.2262,2.2262,0.0,2.2862,2.2262,2.2262,2.1987,2.1409,2.1364,2.1364,2.1364,2.1364,2.1042,2.044,2.044,2.0124,1.9497,1.9497,1.9497,1.9534,2.0169,0.0,2.0531,2.1756,2.2262,2.2306,2.2862,2.3091,2.3091,2.3091,2.3091,2.3091,2.3091,2.3091,2.3091,2.3091,2.3091,2.3091,2.3091,2.3091,2.2862,2.1658,2.1702,2.1938,2.0945,2.082,2.0944,2.1167,2.0889,2.0605,2.0605,2.0225,1.9795,1.9348,1.8909,1.8539,1.8334,1.8154,1.7939,1.7744,1.7529,1.7259,1.6838,1.6162,1.5664,1.5439,1.541,1.5332,1.5127,1.462,1.4092,1.3496,1.291,1.2324,1.1827,1.1044,1.0727,1.0979,1.0371,1.028,1.0685,1.0759,1.0636,1.0312,1.0312,1.0141,2.1631,2.1748,2.1719,2.1631,2.0107,1.8247,1.6872,1.5654,1.4451,1.3169,1.2905,1.2935,1.2998,1.2943,1.3139,1.4001,1.4431,1.483,1.535,1.6897,1.8002,1.8018,1.9938,0.0,2.1658,2.2536,0.0,2.3091,0.0,0.0,2.3091,2.3091,2.3091,2.3091,2.3091,2.3091,2.3091,2.3091,2.2633,2.1712,2.1712,2.1168,2.0268,2.0268,2.0268,2.0314,2.1257,0.0,0.0,2.2721,2.3091,2.3091,2.3091,2.3091,2.3091,2.3091,2.3091,2.3091,2.3091,2.3091,2.3091,2.3091,2.3091,2.3091,2.3091,2.3091,2.2906,2.1943,2.1712,2.1594,2.1282,2.0897,2.0652,2.1095,2.0889,2.0605,2.0605,2.0293,2.0029,1.9932,1.9329,1.8812,1.8627,1.8325,1.8115,1.8018,1.7734,1.749,1.7393,1.6809,1.6212,1.5742,1.5498,1.541,1.541,1.5107,1.4686,1.4193,1.4147,1.37,1.2715,1.2279,1.2125,1.2317,1.1366,1.1153,1.1711,1.149,1.1251,1.1015,1.1015,1.0939,2.1132,2.1249,2.1201,2.083,1.9648,1.8159,1.6535,1.5459,1.4451,1.3169,1.2905,1.3023,1.3379,1.3429,1.3833,1.5061,1.5936,1.6294,1.5818,1.774,1.9173,1.9015,0.0,0.0,2.2818,2.3047,0.0,0.0,0.0,0.0,2.3091,2.3091,2.3091,2.3091,2.3091,2.3091,2.3091,2.3091,2.3047,2.295,2.295,2.2862,2.2775,2.2775,2.2775,2.2775,2.2916,0.0,0.0,2.3047,2.3091,2.3091,2.3091,2.3091,2.3091,2.3091,2.3091,2.3091,2.3091,2.3091,2.3091,2.3091,2.3091,2.3091,2.3091,2.3091,2.3091,2.296,2.295,2.295,2.2911,2.2591,2.2078,2.1385,2.0889,2.0605,2.0605,2.0576,2.0429,1.999,1.9853,1.9514,1.8734,1.8568,1.8412,1.8066,1.7978,1.7812,1.7432,1.7314,1.71,1.6629,1.5859,1.541,1.541,1.5381,1.5323,1.5264,1.4574,1.4301,1.4541,1.3259,1.2695,1.3013,1.2914,1.269,1.2402,1.2987,1.271,1.1715,1.1715,1.1391,2.0644,2.1025,2.1083,2.0713,1.9404,1.7871,1.6427,1.5195,1.4111,1.3111,1.2905,1.2954,1.3096,1.3135,1.3379,1.4141,1.4561,1.4787,1.484,1.6766,1.8359,1.8815,2.0525,0.0,0.0,0.0,2.3091,0.0,0.0,0.0,2.3091,2.3091,2.3091,2.3091,2.3091,2.3091,2.3091,2.3091,2.3091,2.3091,2.3091,2.3091,2.3091,2.3091,2.3091,2.3091,2.3091,0.0,0.0,2.3091,2.3091,2.3091,2.3091,2.3091,2.3091,2.3091,2.3091,2.3091,2.3091,2.3091,2.3091,2.3091,2.3091,2.3091,2.3091,2.3091,2.3091,2.3091,2.3091,2.3091,2.3091,2.2637,2.1982,2.1337,2.0889,2.0605,2.0605,2.0605,2.0546,2.038,2.0088,1.9805,1.9426,1.8939,1.8549,1.8383,1.8174,1.7949,1.7783,1.7539,1.7314,1.7139,1.6328,1.5831,1.5831,1.5566,1.541,1.541,1.5108,1.4983,1.5137,1.4125,1.3644,1.3773,1.351,1.332,1.3158,1.3632,1.3632,1.3181,1.3181,1.3051,1.9766,2.0322,2.0557,2.0107,1.8799,1.7324,1.6173,1.4873,1.3724,1.3027,1.2905,1.2905,1.2905,1.2905,1.3003,1.3271,1.3525,1.3823,1.4215,1.6197,1.7837,1.8482,0.0,2.1973,0.0,2.2945,0.0,0.0,0.0,0.0,2.3091,2.3091,2.3091,2.3091,2.3091,2.3091,2.3091,2.3091,2.3091,2.3091,2.3091,2.3091,2.3091,2.3091,2.3091,2.3091,2.3091,0.0,0.0,2.3091,2.3091,2.3091,2.3091,2.3091,2.3091,2.3091,2.3091,2.3091,2.3091,2.3091,2.3091,2.3091,2.3091,2.3091,2.3091,2.3091,2.3091,2.3091,2.3091,2.3091,2.3091,2.2607,2.1963,2.1533,2.1084,2.0723,2.0635,2.0605,2.0605,2.0605,2.0312,2.0068,1.9932,1.9377,1.889,1.8637,1.8354,1.812,1.8027,1.7754,1.7568,1.7568,1.6936,1.6378,1.6114,1.5811,1.5547,1.542,1.541,1.541,1.541,1.4874,1.454,1.454,1.4292,1.406,1.3949,1.4198,1.4231,1.4104,1.4104,1.4104,1.8393,1.8975,1.9209,1.8734,1.7662,1.6482,1.5615,1.4434,1.3389,1.2993,1.2905,1.2905,1.2905,1.2905,1.2905,1.2915,1.3558,1.4183,1.4453,1.6515,1.8082,0.0,0.0,2.1375,2.1855,2.2646,0.0,0.0,0.0,0.0,2.3091,2.3091,2.3091,2.3091,2.3091,2.3091,2.3091,2.3091,2.3091,2.3091,2.3091,2.3091,2.3091,2.3091,2.3091,0.0,0.0,0.0,0.0,2.3091,2.3091,2.3091,2.3091,2.3091,2.3091,2.3091,2.3091,2.3091,2.3091,2.3091,2.3091,2.3091,2.3091,2.3091,2.3091,2.3091,2.3091,2.3091,2.3091,2.3091,2.3091,2.2779,2.2402,2.1982,2.1543,2.1064,2.0703,2.0605,2.0605,2.0605,2.0595,2.0458,1.999,1.9902,1.9572,1.8724,1.8598,1.8442,1.8057,1.8008,1.8008,1.8008,1.7627,1.7044,1.6163,1.6085,1.5899,1.5439,1.541,1.541,1.541,1.5381,1.5381,1.5381,1.5381,1.5205,1.4785,1.4775,1.4551,1.4104,1.4104,1.4104,1.6807,1.7422,1.7812,1.707,1.6686,1.6162,1.481,1.4326,1.3876,1.3057,1.2905,1.2905,1.2905,1.2905,1.3066,1.3617,1.3938,1.4345,1.5028,0.0,0.0,1.8915,2.1038,2.2545,0.0,0.0,0.0,0.0,0.0,0.0,2.3091,2.3091,2.3091,2.3091,2.3091,2.3091,2.3091,2.3091,2.3091,2.3091,2.3091,2.3091,2.3091,2.3091,2.3091,0.0,0.0,0.0,0.0,2.3091,2.3091,2.3091,2.3091,2.3091,2.3091,2.3091,2.3091,2.3091,2.3091,2.3091,2.3091,2.3091,2.3091,2.3091,2.3091,2.3091,2.3091,2.3091,2.3091,2.3091,2.3091,2.2779,2.2402,2.1992,2.1553,2.1073,2.0703,2.0605,2.0605,2.0605,2.0605,2.0556,2.0381,2.0107,1.9727,1.917,1.8828,1.8451,1.8057,1.8008,1.8008,1.8008,1.7891,1.7578,1.7044,1.6447,1.6036,1.5899,1.5576,1.541,1.541,1.541,1.5138,1.4599,1.5108,1.508,1.4384,1.4946,1.5137,1.4981,1.4981,1.4981,1.5915,1.6276,1.6514,1.5987,1.5862,1.5653,1.4713,1.4317,1.4004,1.3361,1.3065,1.2905,1.2905,1.2905,1.3047,1.3574,1.3763,1.4221,0.0,0.0,0.0,1.9844,0.0,0.0,0.0,0.0,0.0,0.0,0.0,0.0,2.3091,2.3091,2.3091,2.3091,2.3091,2.3091,2.3091,2.3091,2.3091,2.3091,2.3091,2.3091,2.3091,2.3091,2.3091,0.0,0.0,0.0,0.0,2.3091,2.3091,2.3091,2.3091,2.3091,2.3091,2.3091,2.3091,2.3091,2.3091,2.3091,2.3091,2.3091,2.3091,2.3091,2.3091,2.3091,2.3091,2.3091,2.3091,2.3091,2.3091,2.2896,2.2604,2.2217,2.1797,2.1357,2.0918,2.0723,2.0605,2.0605,2.0605,2.0605,2.0605,2.038,2.001,1.959,1.9287,1.887,1.8286,1.8217,1.8184,1.8027,1.8008,1.79,1.7637,1.7005,1.6525,1.6328,1.5898,1.5654,1.5654,1.5498,1.5167,1.4658,1.5138,1.5138,1.4658,1.5167,1.541,1.541,1.541,1.541,0.0,1.5548,1.5379,1.5349,1.525,1.5106,1.5091,1.4458,0.0,1.3815,1.3324,1.2915,1.2944,1.2925,1.2935,1.3023,1.3369,1.4082,0.0,1.6719,0.0,0.0,2.1728,0.0,0.0,0.0,0.0,0.0,0.0,0.0,2.3091,2.3091,2.3091,2.3091,2.3091,2.3091,2.3091,2.3091,2.3091,2.3091,2.3091,2.3091,2.3091,2.3091,2.3091,0.0,0.0,0.0,0.0,2.3091,2.3091,2.3091,2.3091,2.3091,2.3091,2.3091,2.3091,2.3091,2.3091,2.3091,2.3091,2.3091,2.3091,2.3091,2.3091,2.3091,2.3091,2.3091,2.3091,2.3091,2.3091,2.3091,2.2984,2.2617,2.2217,2.1807,2.1298,2.0908,2.0644,2.0615,2.0605,2.0605,2.0605,2.0605,2.0458,1.998,1.9912,1.9619,1.8754,1.8617,1.8451,1.8096,1.8027,1.8008,1.8008,1.7627,1.7207,1.6775,1.6357,1.6144,1.6144,1.5693,1.5459,1.5459,1.543,1.541,1.541,1.541,1.541,1.541,1.541,1.541,1.5487,0.0,1.5254,1.4947,1.5189,1.536,0.0,1.4644,1.4352,1.3897,1.3324,1.3003,1.3301,1.3096,1.3228,1.4206,1.4687,1.5274,1.6258,0.0,0.0,2.2418,2.274,0.0,0.0,0.0,0.0,0.0,0.0,2.3091,2.3091,2.3091,2.3091,2.3091,2.3091,2.3091,2.3091,2.3091,2.3091,2.3091,2.3091,2.3091,2.3091,2.3091,2.3091,0.0,0.0,0.0,2.3091,2.3091,2.3091,2.3091,2.3091,2.3091,2.3091,2.3091,2.3091,2.3091,2.3091,2.3091,2.3091,2.3091,2.3091,2.3091,2.3091,2.3091,2.3091,2.3091,2.3091,2.3091,2.3091,2.3091,2.2984,2.2617,2.2441,2.2158,2.1356,2.1112,2.0977,2.0674,2.0605,2.0605,2.0605,2.0605,2.0458,1.998,1.9912,1.9727,1.9199,1.8812,1.8559,1.8461,1.8169,1.8008,1.8008,1.7627,1.7344,1.7236,1.6816,1.6541,1.6541,1.6143,1.5938,1.5938,1.5586,1.541,1.541,1.541,1.541,1.541,1.541,1.541,1.5203,1.4971,1.4651,1.4686,1.5141,1.5521,1.5186,1.5096,1.5028,1.4675,1.3944,1.3381,1.3589,1.3372,1.3457,1.4346,1.501,0.0,0.0,0.0,2.1435,2.2916,2.3091,0.0,0.0,0.0,0.0,0.0,0.0,2.3091,2.3091,2.3091,2.3091,2.3091,2.3091,2.3091,2.3091,2.3091,2.3091,2.3091,2.3091,2.3091,2.3091,2.3091,2.3091,0.0,0.0,0.0,2.3091,2.3091,2.3091,2.3091,2.3091,2.3091,2.3091,2.3091,2.3091,2.3091,2.3091,2.3091,2.3091,2.3091,2.3091,2.3091,2.3091,2.3091,2.3091,2.3091,2.3091,2.3091,2.3091,2.3091,2.3042,2.2808,2.2613,2.2383,2.1882,2.1473,2.1122,2.0918,2.0742,2.0605,2.0605,2.0605,2.0517,2.0244,2.0215,2.0059,1.9629,1.9329,1.9036,1.8637,1.8403,1.8188,1.8027,1.7803,1.7666,1.7666,1.7266,1.7031,1.7031,1.6602,1.6279,1.6095,1.586,1.5615,1.541,1.541,1.541,1.541,1.541,1.541,1.5072,1.4677,1.4267,1.462,1.5162,1.5588,1.5477,1.5376,1.5343,1.5343,1.4434,1.3702,1.3813,1.3716,1.3779,1.4309,0.0,0.0,1.9717,2.082,2.1746,2.2955,0.0,0.0,0.0,0.0,0.0,0.0,0.0,2.3091,2.3091,2.3091,2.3091,2.3091,2.3091,2.3091,2.3091,2.3091,2.3091,2.3091,2.3091,2.3091,2.3091,2.3091,2.3091,2.3091,0.0,0.0,2.3091,2.3091,2.3091,2.3091,2.3091,2.3091,2.3091,2.3091,2.3091,2.3091,2.3091,2.3091,2.3091,2.3091,2.3091,2.3091,2.3091,2.3091,2.3091,2.3091,2.3091,2.3091,2.3091,2.3091,2.3091,2.3091,2.2818,2.2588,2.2519,2.1902,2.1356,2.122,2.0928,2.0683,2.0615,2.0605,2.0605,2.0605,2.0605,2.0468,2.0059,1.9951,1.9639,1.887,1.8676,1.8461,1.8135,1.8047,1.8008,1.8008,1.7676,1.7451,1.7383,1.7031,1.6621,1.6202,1.6193,1.5986,1.5615,1.5615,1.5615,1.5615,1.5547,1.5508,1.5881,1.5857,1.5323,1.4882,1.5191,1.5477,1.4949,1.4445,1.4073,1.4073,1.3529,1.3259,1.3929,1.4021,1.4387,0.0,0.0,1.8783,0.0,0.0,2.2119,0.0,0.0,0.0,0.0,0.0,0.0,0.0,0.0,2.3091,2.3091,2.3091,2.3091,2.3091,2.3091,2.3091,2.3091,2.3091,2.3091,2.3091,2.3091,2.3091,2.3091,2.3091,2.3091,2.3091,0.0,2.3091,2.3091,2.3091,2.3091,2.3091,2.3091,2.3091,2.3091,2.3091,2.3091,2.3091,2.3091,2.3091,2.3091,2.3091,2.3091,2.3091,2.3091,2.3091,2.3091,2.3091,2.3091,2.3091,2.3091,2.3091,2.3091,2.3091,2.3042,2.2896,2.2588,2.2402,2.21,2.1337,2.1142,2.1016,2.0674,2.0605,2.0605,2.0605,2.0605,2.0576,2.0517,2.0146,1.9863,1.9699,1.9036,1.8578,1.851,1.8213,1.8008,1.8008,1.7949,1.7754,1.7402,1.7314,1.708,1.6609,1.6599,1.656,1.6502,1.6502,1.6502,1.6492,1.6143,1.5987,1.4909,1.4985,1.4771,1.4645,1.552,1.6174,1.524,1.5015,1.5007,1.5007,1.4509,1.4256,0.0,0.0,1.5752,1.7553,0.0,2.0127,2.1406,2.1953,2.2451,0.0,0.0,0.0,0.0,0.0,0.0,0.0,0.0,0.0,2.3091,2.3091,2.3091,2.3091,2.3091,2.3091,2.3091,2.3091,2.3091,2.3091,2.3091,2.3091,2.3091,2.3091,2.3091,2.3091,0.0,2.3091,2.3091,2.3091,2.3091,2.3091,2.3091,2.3091,2.3091,2.3091,2.3091,2.3091,2.3091,2.3091,2.3091,2.3091,2.3091,2.3091,2.3091,2.3091,2.3091,2.3091,2.3091,2.3091,2.3091,2.3091,2.3091,2.3091,2.3091,2.3042,2.2847,2.2676,2.2393,2.196,2.1512,2.1132,2.0967,2.0723,2.0605,2.0605,2.0605,2.0605,2.0605,2.0429,2.0176,1.9941,1.9524,1.9202,1.9014,1.8594,1.8217,1.8027,1.8008,1.793,1.7734,1.7715,1.7519,1.709,1.708,1.6941,1.6697,1.6697,1.6697,1.6697,1.6523,1.6426,1.4286,1.4333,1.4243,1.4474,1.5436,1.6125,1.5353,1.5459,1.576,1.5831,1.5573,0.0,0.0,1.6268,0.0,1.9131,2.0244,2.1182,2.1924,2.2393,0.0,0.0,0.0,0.0,0.0,0.0,0.0,0.0,0.0,0.0,2.3091,2.3091,2.3091,2.3091,2.3091,2.3091,2.3091,2.3091,2.3091,2.3091,2.3091,2.3091,2.3091,2.3091,2.3091,2.3091,2.3091,2.3091,2.3091,2.3091,2.3091,2.3091,2.3091,2.3091,2.3091,2.3091,2.3091,2.3091,2.3091,2.3091,2.3091,2.3091,2.3091,2.3091,2.3091,2.3091,2.3091,2.3091,2.3091,2.3091,2.3091,2.3091,2.3091,2.3091,2.3091,2.3091,2.3091,2.2847,2.2627,2.2529,2.1941,2.1463,2.1366,2.1103,2.0879,2.0781,2.0723,2.0723,2.0615,2.0605,2.0478,2.0098,1.9971,1.9746,1.9316,1.8984,1.8568,1.8184,1.8066,1.8008,1.8008,1.8008,1.7861,1.7539,1.7529,1.7363,1.6999,1.6999,1.6999,1.6999,1.6902,1.6853,1.5311,1.5163,1.473,1.4688,1.4361,1.4174,1.4703,1.4846,1.4984,1.5378,1.5763,1.6028,0.0,1.7367,1.8724,1.9717,2.0947,2.1953,2.2402,0.0,0.0,0.0,0.0,0.0,0.0,0.0,0.0,0.0,0.0,0.0,2.3091,2.3091,2.3091,2.3091,2.3091,2.3091,2.3091,2.3091,2.3091,2.3091,2.3091,2.3091,2.3091,2.3091,2.3091,2.3091,2.3091,2.3091,2.3091,2.3091,2.3091,2.3091,2.3091,2.3091,2.3091,2.3091,2.3091,2.3091,2.3091,2.3091,2.3091,2.3091,2.3091,2.3091,2.3091,2.3091,2.3091,2.3091,2.3091,2.3091,2.3091,2.3091,2.3091,2.3091,2.3091,2.3091,2.3091,2.3071,2.2935,2.2588,2.2461,2.2295,2.1904,2.1816,2.165,2.121,2.1142,2.1035,2.0664,2.0605,2.0595,2.0556,2.0156,1.9746,1.9316,1.9258,1.9053,1.8588,1.8223,1.8008,1.8008,1.8008,1.7998,1.7969,1.7969,1.7949,1.792,1.792,1.792,1.791,1.7519,1.7334,1.4997,1.4672,1.4259,1.4862,1.4714,1.456,1.5057,1.5605,1.6191,1.6885,1.7158,1.7353,1.7617,0.0,1.9414,2.0518,2.1387,2.2129,0.0,0.0,0.0,0.0,0.0,0.0,0.0,0.0,0.0,0.0,0.0,0.0,2.3091,2.3091,2.3091,2.3091,2.3091,2.3091,2.3091,2.3091,2.3091,2.3091,2.3091,2.3091,2.3091,2.3091,2.3091,2.3091,2.3091,2.3091,2.3091,2.3091,2.3091,2.3091,2.3091,2.3091,2.3091,2.3091,2.3091,2.3091,2.3091,2.3091,2.3091,2.3091,2.3091,2.3091,2.3091,2.3091,2.3091,2.3091,2.3091,2.3091,2.3091,2.3091,2.3091,2.3091,2.3091,2.3091,2.3091,2.3091,2.3052,2.2886,2.2685,2.2461,2.2305,2.206,2.1738,2.1259,2.119,2.1034,2.0664,2.0605,2.0605,2.0605,2.0458,2.0146,1.9717,1.9678,1.9492,1.9072,1.8633,1.8247,1.8018,1.8008,1.8008,1.8008,1.8008,1.8008,1.8008,1.8008,1.8008,1.8008,1.7842,1.7773,1.4795,1.434,1.3961,1.4778,1.5033,1.5254,1.59,1.6602,1.7379,1.8408,1.8506,1.8545,1.8929,0.0,0.0,0.0,2.1709,0.0,0.0,0.0,0.0,0.0,0.0,0.0,0.0,0.0,0.0,0.0,0.0,0.0,0.0,2.3091,2.3091,2.3091,2.3091,2.3091,2.3091,2.3091,2.3091,2.3091,2.3091,2.3091,2.3091,2.3091,2.3091,2.3091,2.3091,2.3091,2.3091,2.3091,2.3091,2.3091,2.3091,2.3091,2.3091,2.3091,2.3091,2.3091,2.3091,2.3091,2.3091,2.3091,2.3091,2.3091,2.3091,2.3091,2.3091,2.3091,2.3091,2.3091,2.3091,2.3091,2.3091,2.3091,2.3091,2.3091,2.3091,2.3091,2.3091,2.3091,2.2867,2.2672,2.2672,2.2471,2.2139,2.1668,2.16,2.1385,2.085,2.0781,2.0723,2.0615,2.0605,2.0488,2.0146,2.0117,1.9941,1.9512,1.9199,1.8754,1.8198,1.8178,1.8144,1.8008,1.8008,1.8008,1.8008,1.8008,1.8008,1.8008,1.8008,1.8008,1.4878,1.4414,1.4005,1.4392,1.5106,1.6005,1.7152,1.7725,1.8389,1.9668,1.96,1.9434,1.9844,1.9922,0.0,2.1054,0.0,0.0,0.0,0.0,0.0,0.0,0.0,0.0,0.0,0.0,0.0,0.0,0.0,0.0,0.0,2.3091,2.3091,2.3091,2.3091,2.3091,2.3091,2.3091,2.3091,2.3091,2.3091,2.3091,2.3091,2.3091,2.3091,2.3091,2.3091,2.3091,2.3091,2.3091,2.3091,2.3091,2.3091,2.3091,2.3091,2.3091,2.3091,2.3091,2.3091,2.3091,2.3091,2.3091,2.3091,2.3091,2.3091,2.3091,2.3091,2.3091,2.3091,2.3091,2.3091,2.3091,2.3091,2.3091,2.3091,2.3091,2.3091,2.3091,2.3091,2.3091,2.3091,2.3091,2.3091,2.3091,2.2955,2.2578,2.251,2.2207,2.1307,2.119,2.1064,2.0654,2.0605,2.0605,2.0605,2.0605,2.0381,1.9951,1.9922,1.9541,1.8637,1.8607,1.8412,1.8037,1.8018,1.8018,1.8018,1.8008,1.8008,1.8008,1.8008,1.8008,1.4373,1.402,1.3926,1.462,1.5596,1.6918,1.8859,1.9108,1.9365,2.0977,2.0957,2.0605,2.041,2.0635,0.0,2.1151,0.0,0.0,0.0,0.0,0.0,0.0,0.0,0.0,0.0,0.0,0.0,0.0,0.0,0.0,0.0,2.3091,2.3091,2.3091,2.3091,2.3091,2.3091,2.3091,2.3091,2.3091,2.3091,2.3091,2.3091,2.3091,2.3091,2.3091,2.3091,2.3091,2.3091,2.3091,2.3091,2.3091,2.3091,2.3091,2.3091,2.3091,2.3091,2.3091,2.3091,2.3091,2.3091,2.3091,2.3091,2.3091,2.3091,2.3091,2.3091,2.3091,2.3091,2.3091,2.3091,2.3091,2.3091,2.3091,2.3091,2.3091,2.3091,2.3091,2.3091,2.3091,2.3091,2.3091,2.3091,2.3091,2.2955,2.2578,2.251,2.2207,2.1307,2.119,2.1064,2.0654,2.0605,2.0605,2.0605,2.0605,2.0546,2.0381,2.041,1.999,1.9131,1.9092,1.9033,1.8916,1.8568,1.8412,1.8412,1.8154,1.8008,1.8008,1.8008,1.8008,1.4967,1.5055,1.5309,1.5998,1.7007,1.8284,1.993,2.0579,2.1129,2.1958,2.1797,2.1465,2.1357,2.1426,0.0,0.0,0.0,0.0,0.0,0.0,0.0,0.0,0.0,0.0,0.0,0.0,0.0,0.0,0.0,0.0,0.0,2.3091,2.3091,2.3091,2.3091,2.3091,2.3091,2.3091,2.3091,2.3091,2.3091,2.3091,2.3091,2.3091,2.3091,2.3091,2.3091,2.3091,2.3091,2.3091,2.3091,2.3091,2.3091,2.3091,2.3091,2.3091,2.3091,2.3091,2.3091,2.3091,2.3091,2.3091,2.3091,2.3091,2.3091,2.3091,2.3091,2.3091,2.3091,2.3091,2.3091,2.3091,2.3091,2.3091,2.3091,2.3091,2.3091,2.3091,2.3091,2.3091,2.3091,2.3091,2.3091,2.3091,2.3013,2.275,2.2617,2.2324,2.1765,2.1602,2.1318,2.0879,2.083,2.0762,2.0615,2.0605,2.0605,2.0605,2.0605,2.037,1.9852,1.9629,1.9453,1.9287,1.9023,1.8896,1.8896,1.8643,1.8428,1.8227,1.8227,1.813,1.607,1.6704,1.7265,1.7895,1.8918,1.9932,2.0629,2.2056,2.3093,2.2614,0.0,2.21,2.2451,2.2236,2.2119,0.0,0.0,0.0,0.0,0.0,0.0,0.0,0.0,0.0,0.0,0.0,0.0,0.0,0.0,0.0,0.0,2.3091,2.3091,2.3091,2.3091,2.3091,2.3091,2.3091,2.3091,2.3091,2.3091,2.3091,2.3091,2.3091,2.3091,2.3091,2.3091,2.3091,2.3091,2.3091,2.3091,2.3091,2.3091,2.3091,2.3091,2.3091,2.3091,2.3091,2.3091,2.3091,2.3091,2.3091,2.3091,2.3091,2.3091,2.3091,2.3091,2.3091,2.3091,2.3091,2.3091,2.3091,2.3091,2.3091,2.3091,2.3091,2.3091,2.3091,2.3091,2.3091,2.3091,2.3091,2.3091,2.3091,2.3091,2.3091,2.2769,2.2559,2.2519,2.2178,2.1777,2.1298,2.1249,2.1113,2.0703,2.0664,2.0644,2.0605,2.0605,2.0605,2.0605,2.0185,1.9795,1.9451,1.9365,1.9346,1.9346,1.9307,1.9082,1.8656,1.8656,1.8461,1.5106,1.5393,1.6006,1.7496,1.9442,2.1227,2.2042,2.2546,2.2761,2.2554,2.2705,2.275,2.2559,2.2705,0.0,0.0,0.0,0.0,0.0,0.0,0.0,0.0,0.0,0.0,0.0,0.0,0.0,0.0,0.0,0.0,2.3091,2.3091,2.3091,2.3091,2.3091,2.3091,2.3091,2.3091,2.3091,0.0,2.3091,2.3091,2.3091,2.3091,2.3091,2.3091,2.3091,2.3091,2.3091,2.3091,2.3091,2.3091,2.3091,2.3091,2.3091,2.3091,2.3091,2.3091,2.3091,2.3091,2.3091,2.3091,2.3091,2.3091,2.3091,2.3091,2.3091,2.3091,2.3091,2.3091,2.3091,2.3091,2.3091,2.3091,2.3091,2.3091,2.3091,2.3091,2.3091,2.3091,2.3091,2.3091,2.3091,2.3091,2.3091,2.3091,2.3023,2.2838,2.2549,2.2432,2.2217,2.1787,2.1748,2.1572,2.1093,2.1094,2.0937,2.0625,2.0605,2.0605,2.0605,2.0517,2.0419,2.0331,1.9951,1.9775,1.9775,1.9443,1.9238,1.915,1.915,1.9102,1.5835,1.6703,1.7789,1.9374,2.0583,2.1571,2.2237,2.2534,2.2681,2.2615,2.272,2.273,2.2549,0.0,0.0,0.0,0.0,0.0,0.0,0.0,0.0,0.0,0.0,0.0,0.0,0.0,0.0,0.0,0.0,2.3091,2.3091,2.3091,2.3091,2.3091,2.3091,2.3091,2.3091,2.3091,2.3091,2.3091,2.3091,2.3091,2.3091,2.3091,2.3091,2.3091,2.3091,2.3091,2.3091,2.3091,2.3091,2.3091,2.3091,2.3091,2.3091,2.3091,2.3091,2.3091,2.3091,2.3091,2.3091,2.3091,2.3091,2.3091,2.3091,2.3091,2.3091,2.3091,2.3091,2.3091,2.3091,2.3091,2.3091,2.3091,2.3091,2.3091,2.3091,2.3091,2.3091,2.3091,2.3091,2.3091,2.3091,2.3091,2.3091,2.3091,2.3091,2.3013,2.2799,2.2769,2.2646,2.2236,2.2187,2.2012,2.1582,2.1317,2.1093,2.0898,2.0723,2.0605,2.0605,2.0605,2.0605,2.0605,2.038,2.0225,2.0225,2.0,1.9795,1.959,1.959,1.9482,1.6543,1.8189,1.9851,2.1477,2.1534,2.135,2.22,2.2355,2.2382,2.2537,2.2493,2.2402,0.0,0.0,0.0,0.0,0.0,0.0,0.0,0.0,0.0,0.0,0.0,0.0,0.0,0.0,0.0,0.0,0.0,2.3091,2.3091,2.3091,2.3091,2.3091,2.3091,2.3091,2.3091,2.3091,2.3091,2.3091,2.3091,2.3091,2.3091,2.3091,2.3091,2.3091,2.3091,2.3091,2.3091,2.3091,2.3091,2.3091,2.3091,2.3091,2.3091,2.3091,2.3091,2.3091,2.3091,2.3091,2.3091,2.3091,2.3091,2.3091,2.3091,2.3091,2.3091,2.3091,2.3091,2.3091,2.3091,2.3091,2.3091,2.3091,2.3091,2.3091,2.3091,2.3091,2.3091,2.3091,2.3091,2.3091,2.3091,2.3091,2.3091,2.3091,2.3091,2.3091,2.3091,2.3091,2.2964,2.2656,2.2617,2.2451,2.2031,2.166,2.1385,2.1317,2.1006,2.0801,2.0723,2.0684,2.0683,2.0605,2.0605,2.0605,2.0605,2.0605,2.0381,2.0029,2.0029,1.9834,1.4909,1.6656,1.8744,2.1257,2.1002,2.0761,0.0,0.0,2.1091,0.0,2.2039,2.1973,0.0,0.0,0.0,0.0,0.0,0.0,0.0,0.0,0.0,0.0,0.0,0.0,0.0,0.0,0.0,0.0,2.3091,2.3091,2.3091,2.3091,2.3091,2.3091,2.3091,2.3091,2.3091,2.3091,2.3091,2.3091,2.3091,2.3091,2.3091,2.3091,2.3091,2.3091,2.3091,2.3091,2.3091,2.3091,2.3091,2.3091,2.3091,2.3091,2.3091,2.3091,2.3091,2.3091,2.3091,2.3091,2.3091,2.3091,2.3091,2.3091,2.3091,2.3091,2.3091,2.3091,2.3091,2.3091,2.3091,2.3091,2.3091,2.3091,2.3091,2.3091,2.3091,2.3091,2.3091,2.3091,2.3091,2.3091,2.3091,2.3091,2.3091,2.3091,2.3091,2.3091,2.3091,2.3091,2.3071,2.3013,2.3013,2.2838,2.2461,2.2373,2.2187,2.1816,2.1738,2.1543,2.1122,2.1103,2.0967,2.0615,2.0605,2.0605,2.0605,2.0605,2.0576,2.0517,2.0517,2.0488,1.6157,1.7253,1.8439,2.1118,2.1399,2.1426,2.2993,2.2523,2.1983,2.2685,2.1961,0.0,0.0,0.0,0.0,0.0,0.0,0.0,0.0,0.0,0.0,0.0,0.0,0.0,0.0,0.0,0.0,0.0,2.2708,2.2676,2.3171,2.2708,2.2441,2.2441,2.2666,2.274,2.274,2.2974,2.3091,2.3091,2.3091,2.3091,2.3091,2.3091,2.3091,2.3091,2.3091,2.3091,2.3091,2.3091,2.3091,2.3091,2.3091,2.3091,2.3091,2.3091,2.3091,2.3091,2.3091,2.3091,2.3091,2.3091,2.3091,2.3091,2.3091,2.3091,2.3091,2.3091,2.3091,2.3091,2.3091,2.3091,2.3091,2.3091,2.3091,2.3091,2.3091,2.3091,2.3091,2.3091,2.3091,2.3091,2.3091,2.3091,2.3091,2.3091,2.3091,2.3091,2.3091,2.3091,2.3091,2.3091,2.3091,2.3023,2.2838,2.2646,2.2432,2.2246,2.2012,2.1797,2.1611,2.1602,2.1396,2.0947,2.0693,2.0867,2.1375,2.1375,2.1669,2.2226,2.2226,2.2226,1.6481,1.7108,1.7688,2.0342,2.115,2.1568,0.0,0.0,2.2887,0.0,0.0,0.0,0.0,0.0,0.0,0.0,0.0,0.0,0.0,0.0,0.0,0.0,0.0,0.0,0.0,0.0,0.0,0.0,2.3041,2.2849,2.3282,2.2646,2.2154,2.1926,2.2187,2.2353,2.2353,2.2773,2.2984,2.3091,2.3091,2.3091,2.3091,2.3091,2.3091,2.3091,2.3091,2.3091,2.3091,2.3091,2.3091,2.3091,2.3091,2.3091,2.3091,2.3091,2.3091,2.3091,2.3091,2.3091,2.3091,2.3091,2.3091,2.3091,2.3091,2.3091,2.3091,2.3091,2.3091,2.3091,2.3091,2.3091,2.3091,2.3091,2.3091,2.3091,2.3091,2.3091,2.3091,2.3091,2.3091,2.3091,2.3091,2.3091,2.3222,2.3474,2.3309,2.3222,2.3507,2.3256,2.3091,2.3091,2.3343,2.343,2.3135,2.31,2.2955,2.2676,2.2658,2.2597,2.2487,2.2756,2.2544,2.1789,2.1635,2.1563,2.1621,2.1876,2.2403,2.311,2.3368,2.3514,1.3972,1.4804,1.595,1.8499,1.943,2.0299,0.0,0.0,0.0,0.0,0.0,0.0,0.0,0.0,0.0,0.0,0.0,0.0,0.0,0.0,0.0,0.0,0.0,0.0,0.0,0.0,0.0,0.0,2.467,2.4237,2.3362,2.3241,2.2839,2.1926,2.1904,2.1924,2.1924,2.2334,2.2701,2.3091,2.3091,2.3091,2.3091,2.3091,2.3091,2.3091,2.3091,2.3091,2.3091,2.3091,2.3091,2.3091,2.3091,2.3091,2.3091,2.3091,2.3091,2.3091,2.3091,2.3091,2.3091,2.3091,2.3091,2.3091,2.3091,2.3091,2.3091,2.3091,2.3091,2.3091,2.3091,2.3091,2.3091,2.3091,2.3091,2.3091,2.3091,2.3091,2.3091,2.3091,2.3091,2.3091,2.3091,2.3091,2.3464,2.4542,2.38,2.3507,2.4585,2.3757,2.3091,2.3091,2.4092,2.4253,2.3178,2.4072,2.4223,2.3149,2.4074,2.4483,2.4105,2.5054,2.4894,2.3391,2.3853,2.2966,2.0673,2.1555,2.2027,2.2103,2.3073,2.3514,1.3783,1.4814,1.6006,1.7984,1.8852,1.9557,2.0803,2.1608,2.2259,2.2973,0.0,0.0,0.0,0.0,0.0,0.0,0.0,0.0,0.0,0.0,0.0,0.0,0.0,0.0,0.0,0.0,0.0,0.0,0.0,2.3816,2.3438,2.2828,2.2048,2.1115,2.1318,2.1602,2.1885,2.2305,2.2588,2.2744,2.2964,2.3091,2.3091,2.3091,2.3091,2.3091,2.3091,2.3091,2.3091,2.3091,2.3091,2.3091,2.3091,2.3091,2.3091,2.3091,2.3091,2.3091,2.3091,2.3091,2.3091,2.3091,2.3091,2.3091,2.3091,2.3091,2.3091,2.3091,2.3091,2.3091,2.3091,2.3091,2.3091,2.3091,2.3091,2.3091,2.3091,2.3091,2.3091,2.3091,2.3091,2.3091,2.3091,2.3091,2.3474,2.4628,2.4457,2.4339,2.4745,2.5094,2.502,2.4253,2.4542,2.4925,2.5263,2.501,2.4957,2.5274,2.5683,2.5815,2.5681,2.6051,2.5857,2.4996,2.5166,2.4493,2.2911,2.3597,2.4253,2.4898,2.5276,2.5429,1.3293,0.0,0.0,0.0,1.8183,1.8759,1.9963,0.0,2.1849,0.0,0.0,0.0,0.0,0.0,0.0,0.0,0.0,0.0,0.0,0.0,0.0,0.0,0.0,0.0,0.0,0.0,0.0,0.0,0.0,0.0,2.4036,2.3036,2.1924,2.0644,2.0859,2.1221,2.166,2.1943,2.2227,2.2519,2.275,2.2955,2.3091,2.3091,2.3091,2.3135,2.3507,2.3464,2.3091,2.3091,2.3091,2.3091,2.3091,2.3091,2.3091,2.3091,2.3091,2.3135,2.3551,2.342,2.3178,2.3551,2.343,2.3091,2.3091,2.3091,2.3091,2.3091,2.3091,2.3091,2.3091,2.3091,2.3091,2.3091,2.3091,2.3091,2.3091,2.3091,2.3091,2.3091,2.3091,2.3091,2.3091,2.343,2.4049,2.521,2.5378,2.5493,2.5859,2.5911,2.563,2.4872,2.5126,2.5504,2.5891,2.5911,2.6077,2.6472,2.6842,2.7046,2.7046,2.7383,2.7261,2.6582,2.6739,2.624,2.4979,2.5176,2.5539,2.5978,2.6349,2.6499,0.0,0.0,0.0,0.0,0.0,0.0,2.0075,0.0,2.1707,0.0,0.0,0.0,0.0,0.0,0.0,0.0,0.0,0.0,0.0,0.0,0.0,0.0,0.0,0.0,0.0,0.0,0.0,0.0,2.6499,2.606,2.504,2.4036,2.2563,2.0644,2.0644,2.0811,2.1171,2.123,2.165,2.248,2.25,2.2682,2.3081,2.3091,2.3091,2.3178,2.4296,2.4168,2.3135,2.3135,2.3135,2.3091,2.3091,2.3091,2.3091,2.3091,2.3091,2.3266,2.4382,2.4049,2.3343,2.4457,2.4049,2.3135,2.3135,2.3135,2.3091,2.3091,2.3091,2.3091,2.3091,2.3091,2.3091,2.3091,2.3091,2.3091,2.3091,2.3091,2.3091,2.3091,2.3091,2.3091,2.3135,2.4092,2.521,2.6348,2.6554,2.6924,2.7976,2.6232,2.4914,2.4914,2.588,2.6099,2.5041,2.6889,2.7683,2.6637,2.7562,2.8136,2.8136,2.9197,2.9287,2.8176,2.8654,2.8124,2.6536,2.6089,2.5564,2.5087,2.606,2.6499,1.3086,0.0,0.0,0.0,0.0,0.0,0.0,0.0,0.0,0.0,0.0,0.0,0.0,0.0,0.0,0.0,0.0,0.0,0.0,0.0,0.0,0.0,0.0,0.0,0.0,0.0,0.0,0.0,2.6499,2.606,2.504,2.3368,2.1859,2.0644,2.126,2.132,2.0752,2.1776,2.2029,2.1551,2.2217,2.2578,2.2695,2.2955,2.3091,2.3178,2.4296,2.4628,2.4339,2.4339,2.3833,2.3091,2.3091,2.3091,2.3091,2.3091,2.3091,2.3135,2.3474,2.392,2.4382,2.4702,2.4585,2.4339,2.4339,2.3757,2.3091,2.3091,2.3091,2.3091,2.3091,2.3091,2.3091,2.3091,2.3091,2.3091,2.3091,2.3091,2.3091,2.3091,2.3091,2.3343,2.4168,2.4585,2.5452,2.736,2.7643,2.7763,2.8044,2.8279,2.8108,2.7267,2.747,2.7855,2.8371,2.8227,2.8307,2.8831,2.917,2.9326,2.9326,2.9624,2.9663,2.9326,2.9462,2.8912,2.7644,2.7124,2.6615,2.6094,2.6383,2.6499,1.3975,0.0,0.0,0.0,0.0,0.0,0.0,1.752,0.0,0.0,0.0,0.0,0.0,0.0,0.0,0.0,0.0,0.0,0.0,0.0,0.0,0.0,0.0,0.0,0.0,2.6164,2.6499,2.6499,2.6499,2.606,2.504,2.3891,2.2813,2.1859,2.2339,2.214,2.1193,2.2414,2.2436,2.12,2.2118,2.2556,2.2519,2.2721,2.3219,2.3887,2.501,2.5504,2.5546,2.5994,2.5241,2.38,2.38,2.3507,2.3091,2.3091,2.3091,2.3222,2.4178,2.4628,2.4946,2.5859,2.5535,2.4787,2.4787,2.4339,2.38,2.38,2.4135,2.4392,2.392,2.4178,2.4264,2.3353,2.3464,2.3671,2.3222,2.3091,2.3091,2.3091,2.3464,2.4006,2.4702,2.5577,2.6603,2.7924,2.8518,2.8806,2.8806,2.8976,2.8858,2.8176,2.8096,2.8386,2.9028,2.8937,2.9106,2.9753,2.9792,2.9792,2.9792,2.9792,2.9792,2.9792,2.9792,2.9239,2.8109,2.7783,2.7218,2.6499,2.6499,2.6499,1.5042,1.577,0.0,0.0,0.0,0.0,1.8227,1.7587,1.7002,0.0,0.0,0.0,0.0,0.0,0.0,0.0,0.0,0.0,0.0,0.0,0.0,0.0,0.0,0.0,2.6386,2.6399,2.6424,2.6487,2.6499,2.606,2.504,2.5004,2.4528,2.3514,2.3599,2.3184,2.2178,2.3147,2.2854,2.1312,2.2261,2.2614,2.2441,2.249,2.3345,2.4872,2.6016,2.6565,2.676,2.7855,2.6889,2.483,2.4957,2.4211,2.3135,2.3387,2.3387,2.3594,2.5599,2.5797,2.5493,2.7308,2.6685,2.5157,2.5157,2.5083,2.4999,2.4999,2.5724,2.6265,2.5252,2.5755,2.5975,2.38,2.4049,2.45,2.3343,2.3222,2.3309,2.3309,2.4135,2.4872,2.5115,2.6808,2.8136,2.8255,2.9157,2.9792,2.9792,2.8937,2.8307,2.8307,2.8307,2.8307,2.8307,2.9236,2.9792,2.9792,2.9792,2.9792,2.9792,2.9792,2.9792,2.9792,2.9729,2.9202,2.8197,2.8072,2.7482,2.6499,2.6499,2.6499,1.6309,1.7034,1.7874,1.7528,0.0,0.0,1.6588,1.6844,1.7235,0.0,0.0,0.0,0.0,0.0,0.0,0.0,0.0,0.0,0.0,0.0,0.0,0.0,0.0,0.0,2.5724,2.5774,2.5996,2.6461,2.6499,2.606,2.504,2.5004,2.4528,2.3514,2.4301,2.4228,2.322,2.4192,2.3754,2.1842,2.2446,2.245,2.2021,2.2353,2.3345,2.4872,2.6016,2.7005,2.7896,2.8988,2.7614,2.4872,2.5808,2.4893,2.3299,2.5147,2.5263,2.4542,2.4957,2.616,2.7389,2.6953,2.7116,2.747,2.747,2.686,2.6182,2.6182,2.6348,2.6431,2.6224,2.6348,2.6141,2.4798,2.4617,2.45,2.3343,2.3844,2.4457,2.4457,2.467,2.5368,2.7134,2.7804,2.8426,2.9326,2.9663,2.9792,2.9792,2.9624,2.9495,2.9495,2.9495,2.9495,2.9495,2.9663,2.9792,2.9792,2.9792,2.9792,2.9792,2.9792,2.9792,2.9792,2.934,2.895,2.8725,2.7871,2.714,2.6499,2.6499,2.6499,1.7188,1.7757,1.8606,1.8606,0.0,0.0,0.0,1.7386,1.7163,1.7692,1.7752,0.0,0.0,0.0,0.0,0.0,0.0,0.0,0.0,0.0,0.0,0.0,0.0,0.0,2.5184,2.5209,2.5435,2.6021,2.6059,2.5968,2.5756,2.5734,2.5511,2.5016,2.5476,2.5252,2.4264,2.5252,2.4731,2.2776,2.3475,2.3717,2.3454,2.3645,2.4712,2.6479,2.7035,2.7947,2.8976,2.9573,2.849,2.6479,2.7075,2.6254,2.4935,2.6069,2.6141,2.5714,2.6273,2.7186,2.8096,2.8119,2.8119,2.8096,2.8096,2.7723,2.7412,2.8011,2.8131,2.7999,2.7452,2.7706,2.7585,2.5326,2.521,2.5336,2.4178,2.4414,2.5115,2.6232,2.6438,2.6808,2.7924,2.8557,2.9157,2.9702,2.9792,2.9792,2.9792,2.9792,2.9792,2.9792,2.9792,2.9792,2.9792,2.9792,2.9792,2.9792,2.9792,2.9792,2.9792,2.9792,2.9792,2.9792,2.9503,2.9214,2.8888,2.8373,2.767,2.6901,2.6625,2.6499,0.0,0.0,0.0,0.0,0.0,1.9363,0.0,0.0,0.0,1.8526,0.0,0.0,0.0,0.0,0.0,0.0,0.0,0.0,0.0,0.0,0.0,0.0,0.0,0.0,0.0,2.4399,2.4725,2.5398,2.5247,2.546,2.6285,2.6336,2.6386,2.6499,2.6499,2.6094,2.53,2.6094,2.5569,2.3818,2.46,2.4991,2.4993,2.4993,2.6124,2.8096,2.8096,2.8767,2.9792,2.9792,2.9275,2.8426,2.8426,2.7654,2.6554,2.6976,2.7017,2.6924,2.7815,2.8255,2.8557,2.9236,2.8988,2.8426,2.8426,2.8426,2.8636,2.9534,2.9792,2.9585,2.8688,2.9106,2.9079,2.6119,2.6119,2.6502,2.5378,2.5284,2.5942,2.7752,2.8267,2.8426,2.8426,2.9197,2.9792,2.9792,2.9792,2.9792,2.9792,2.9792,2.9792,2.9792,2.9792,2.9792,2.9792,2.9792,2.9792,2.9792,2.9792,2.9792,2.9792,2.9792,2.9792,2.9792,2.9792,2.9566,2.9051,2.895,2.8411,2.7431,2.6901,2.665,0.0,0.0,0.0,0.0,2.1865,0.0,0.0,0.0,1.9134,1.7767,0.0,0.0,0.0,0.0,0.0,0.0,0.0,0.0,0.0,0.0,0.0,0.0,0.0,0.0,0.0,2.3007,2.3735,2.48,2.3948,2.4048,2.5611,2.5686,2.5971,2.6474,2.6499,2.6465,2.6349,2.6452,2.5955,2.4826,2.4933,2.4991,2.4993,2.4993,2.6124,2.8096,2.8096,2.8767,2.9792,2.9792,2.9702,2.9624,2.9624,2.8331,2.673,2.8712,2.8779,2.7924,2.8044,2.8767,2.9456,2.8597,2.8897,2.9624,2.9624,2.9624,2.9624,2.9753,2.9792,2.9753,2.9624,2.9702,2.9456,2.8056,2.7804,2.7602,2.6554,2.7035,2.7804,2.8044,2.8937,2.9624,2.9624,2.9702,2.9792,2.9792,2.9792,2.9792,2.9792,2.9792,2.9792,2.9792,2.9792,2.9792,2.9792,2.9792,2.9792,2.9792,2.9792,2.9792,2.9792,2.9792,2.9792,2.9792,2.9792,2.9767,2.9691,2.9176,2.8574,2.7996,2.7444,2.7228,0.0,0.0,0.0,0.0,0.0,0.0,1.9802,0.0,1.9306,0.0,0.0,0.0,0.0,0.0,0.0,0.0,0.0,0.0,0.0,0.0,0.0,0.0,0.0,0.0,0.0,0.0,0.0,0.0,2.2895,2.3221,2.4594,2.5259,2.5711,2.5984,2.6323,2.6499,2.6499,2.6499,2.628,2.5873,2.5873,2.6189,2.6788,2.6788,2.7643,2.9106,2.9106,2.9365,2.9792,2.9792,2.9792,2.9792,2.9792,2.9209,2.8554,2.9456,2.9495,2.9106,2.9106,2.9404,2.9702,2.9236,2.9404,2.9792,2.9792,2.9792,2.9792,2.9792,2.9792,2.9792,2.9792,2.9792,2.9495,2.8386,2.8096,2.7964,2.7522,2.7763,2.8307,2.8976,2.9495,2.9792,2.9792,2.9792,2.9792,2.9792,2.9792,2.9792,2.9792,2.9792,2.9792,2.9792,2.9792,2.9792,2.9792,2.9792,2.9792,2.9792,2.9792,2.9792,2.9792,2.9792,2.9792,2.9792,2.9792,2.9792,2.9792,2.9553,2.9315,2.9063,2.7846,2.7281,2.2155,0.0,0.0,0.0,0.0,0.0,0.0,0.0,0.0,0.0,0.0,0.0,0.0,0.0,0.0,0.0,0.0,0.0,0.0,0.0,0.0,0.0,0.0,0.0,0.0,0.0,0.0,0.0,0.0,2.2096,2.3678,2.4657,2.5297,2.5586,2.6197,2.6499,2.6499,2.6499,2.6499,2.6499,2.6499,2.7065,2.8109,2.8109,2.8725,2.9792,2.9792,2.9792,2.9792,2.9792,2.9792,2.9792,2.9792,2.9792,2.9792,2.9792,2.9792,2.9792,2.9792,2.9792,2.9792,2.9792,2.9792,2.9792,2.9792,2.9792,2.9792,2.9792,2.9792,2.9792,2.9792,2.9792,2.9573,2.8767,2.8557,2.8557,2.8557,2.8557,2.8806,2.9624,2.9792,2.9792,2.9792,2.9792,2.9792,2.9792,2.9792,2.9792,2.9792,2.9792,2.9792,2.9792,2.9792,2.9792,2.9792,2.9792,2.9792,2.9792,2.9792,2.9792,2.9792,2.9792,2.9792,2.9792,2.9792,2.9792,2.9792,2.9792,2.9792,2.9767,2.8373,2.7657,0.0,0.0,0.0,2.1871,0.0,0.0,0.0,0.0,2.2218,0.0,0.0,0.0,0.0,0.0,0.0,0.0,0.0,0.0,0.0,0.0,0.0,0.0,0.0,0.0,0.0,0.0,0.0,0.0,0.0,0.0,2.2982,2.3728,2.4531,2.5561,2.6197,2.6499,2.6499,2.6499,2.6499,2.6499,2.6499,2.7065,2.8109,2.8109,2.8725,2.9792,2.9792,2.9792,2.9792,2.9792,2.9792,2.9792,2.9792,2.9792,2.9792,2.9792,2.9792,2.9792,2.9792,2.9792,2.9792,2.9792,2.9792,2.9792,2.9792,2.9792,2.9792,2.9792,2.9792,2.9792,2.9792,2.9792,2.9792,2.9753,2.9753,2.9753,2.9753,2.9753,2.9753,2.9792,2.9792,2.9792,2.9792,2.9792,2.9792,2.9792,2.9792,2.9792,2.9792,2.9792,2.9792,2.9792,2.9792,2.9792,2.9792,2.9792,2.9792,2.9792,2.9792,2.9792,2.9792,2.9792,2.9792,2.9792,2.9792,2.9792,2.9792,2.9792,2.9792,2.9779,2.9164,2.8549,0.0,0.0,2.7375,2.3851,0.0,0.0,0.0,0.0,0.0,0.0,0.0,0.0,0.0,0.0,0.0,0.0,0.0,0.0,0.0,0.0,0.0,0.0,0.0,0.0,0.0,0.0,0.0,0.0,1.9032,0.0,0.0,2.2723,2.3735,2.4519,2.5423,2.6109,2.6499,2.6499,2.6499,2.6499,2.6864,2.7394,2.8122,2.8486,2.9063,2.9792,2.9792,2.9792,2.9792,2.9792,2.9792,2.9792,2.9792,2.9792,2.9792,2.9792,2.9792,2.9792,2.9792,2.9792,2.9792,2.9792,2.9792,2.9792,2.9792,2.9792,2.9792,2.9792,2.9792,2.9792,2.9792,2.9792,2.9792,2.9792,2.9792,2.9792,2.9792,2.9792,2.9792,2.9792,2.9792,2.9792,2.9792,2.9792,2.9792,2.9792,2.9792,2.9792,2.9792,2.9792,2.9792,2.9792,2.9792,2.9792,2.9792,2.9792,2.9792,2.9792,2.9792,2.9792,2.9792,2.9792,2.9792,2.9792,2.9792,2.9792,2.9792,2.9792,2.9792,2.9792,2.9591,2.9001,2.6804,2.7936,0.0,2.6274,2.5761,0.0,2.3197,0.0,0.0,0.0,0.0,0.0,0.0,0.0,0.0,0.0,0.0,0.0,0.0,0.0,0.0,0.0,0.0,0.0,0.0,0.0,1.7099,1.7852,1.8242,0.0,0.0,0.0,2.317,2.3966,2.5034,2.5908,2.6487,2.6499,2.6499,2.6499,2.7052,2.757,2.8122,2.8674,2.9252,2.9792,2.9792,2.9792,2.9792,2.9792,2.9792,2.9792,2.9792,2.9792,2.9792,2.9792,2.9792,2.9792,2.9792,2.9792,2.9792,2.9792,2.9792,2.9792,2.9792,2.9792,2.9792,2.9792,2.9792,2.9792,2.9792,2.9792,2.9792,2.9792,2.9792,2.9792,2.9792,2.9792,2.9792,2.9792,2.9792,2.9792,2.9792,2.9792,2.9792,2.9792,2.9792,2.9792,2.9792,2.9792,2.9792,2.9792,2.9792,2.9792,2.9792,2.9792,2.9792,2.9792,2.9792,2.9792,2.9792,2.9792,2.9792,2.9792,2.9792,2.9792,2.9792,2.9792,2.9792,2.9792,2.9792,2.9289]}]]